[[{"header":{"parameterUnit":"m.s-1","parameterCategory":1,"la1":31.0,"la2":29.5877,"lo1":-88.7671,"lo2":-86.6584,"dy":0.0162,"dx":0.0185,"nx":115,"ny":88,"refTime":"2023-04-11T00:00:00:Z","depth":0,"parameterNumber":2,"parameterNumberName":"U-component_of_WINDS"},"data":[0.0,0.0,0.0,0.0,0.0,0.0,0.0,0.0,0.0,0.0,0.0,0.0,0.0,0.0,0.0,0.0,0.0,0.0,0.0,0.0,0.0,0.0,0.0,0.0,0.0,0.0,0.0,0.0,0.0,0.0,0.0,0.0,0.0,0.0,0.0,0.0,0.0,0.0,0.0,0.0,0.0,0.0,0.0,0.0,0.0,0.0,0.0,0.0,0.0,0.0,0.0,0.0,0.0,0.0,0.0,0.0,0.0,0.0,0.0,0.0,0.0,0.0,0.0,0.0,0.0,0.0,0.0,0.0,0.0,0.0,0.0,0.0,0.0,0.0,0.0,0.0,0.0,0.0,0.0,0.0,0.0,0.0,0.0,0.0,0.0,0.0,0.0,0.0,0.0,0.0,0.0,0.0,0.0,0.0,0.0,0.0,0.0,0.0,0.0,0.0,0.0,0.0,0.0,0.0,0.0,0.0,0.0,0.0,0.0,0.0,0.0,0.0,0.0,0.0,0.0,0.0,0.0,0.0,0.0,0.0,0.0,0.0,0.0,0.0,0.0,0.0,0.0,0.0,0.0,0.0,0.0,0.0,0.0,0.0,0.0,0.0,0.0,0.0,0.0,0.0,0.0,0.0,0.0,0.0,0.0,0.0,0.0,0.0,0.0,0.0,0.0,0.0,0.0,0.0,0.0,0.0,0.0,0.0,0.0,0.0,0.0,0.0,0.0,0.0,0.0,0.0,0.0,0.0,0.0,0.0,0.0,0.0,0.0,0.0,0.0,0.0,0.0,0.0,0.0,0.0,0.0,0.0,0.0,0.0,0.0,0.0,0.0,0.0,0.0,0.0,0.0,0.0,0.0,0.0,0.0,0.0,0.0,0.0,0.0,0.0,0.0,0.0,0.0,0.0,0.0,0.0,0.0,0.0,0.0,0.0,0.0,0.0,0.0,0.0,0.0,0.0,0.0,0.0,0.0,0.0,0.0,0.0,0.0,0.0,0.0,0.0,0.0,0.0,0.0,0.0,0.0,0.0,0.0,0.0,0.0,0.0,0.0,0.0,0.0,0.0,0.0,0.0,0.0,0.0,0.0,0.0,0.0,0.0,0.0,0.0,0.0,0.0,0.0,0.0,0.0,0.0,0.0,0.0,0.0,0.0,0.0,0.0,0.0,0.0,0.0,0.0,0.0,0.0,0.0,0.0,0.0,0.0,0.0,0.0,0.0,0.0,0.0,0.0,0.0,0.0,0.0,0.0,0.0,0.0,0.0,0.0,0.0,0.0,0.0,0.0,0.0,0.0,0.0,0.0,0.0,0.0,0.0,0.0,0.0,0.0,0.0,0.0,0.0,0.0,0.0,0.0,0.0,0.0,0.0,0.0,0.0,0.0,0.0,0.0,0.0,0.0,0.0,0.0,0.0,0.0,0.0,0.0,0.0,0.0,0.0,0.0,0.0,0.0,0.0,0.0,0.0,0.0,0.0,0.0,0.0,0.0,0.0,0.0,0.0,0.0,0.0,0.0,0.0,0.0,0.0,0.0,0.0,0.0,0.0,0.0,0.0,0.0,0.0,0.0,0.0,0.0,0.0,0.0,0.0,0.0,0.0,0.0,0.0,0.0,0.0,0.0,0.0,0.0,0.0,0.0,0.0,0.0,0.0,0.0,0.0,0.0,0.0,0.0,0.0,0.0,0.0,0.0,0.0,0.0,0.0,0.0,0.0,0.0,0.0,0.0,0.0,0.0,0.0,0.0,0.0,0.0,0.0,0.0,0.0,0.0,0.0,0.0,0.0,0.0,0.0,0.0,0.0,0.0,0.0,0.0,0.0,0.0,0.0,0.0,0.0,0.0,0.0,0.0,0.0,0.0,0.0,0.0,0.0,0.0,0.0,0.0,0.0,0.0,0.0,0.0,0.0,0.0,0.0,0.0,0.0,0.0,0.0,0.0,0.0,0.0,0.0,0.0,0.0,0.0,0.0,0.0,0.0,0.0,0.0,0.0,0.0,0.0,0.0,0.0,0.0,0.0,0.0,0.0,0.0,0.0,0.0,0.0,0.0,0.0,0.0,0.0,0.0,0.0,0.0,0.0,0.0,0.0,0.0,0.0,0.0,0.0,0.0,0.0,0.0,0.0,0.0,0.0,0.0,0.0,0.0,0.0,0.0,0.0,0.0,0.0,0.0,0.0,0.0,0.0,0.0,0.0,0.0,0.0,0.0,0.0,0.0,0.0,0.0,0.0,0.0,0.0,0.0,0.0,0.0,0.0,0.0,0.0,0.0,0.0,0.0,0.0,0.0,0.0,0.0,0.0,0.0,0.0,0.0,0.0,0.0,0.0,0.0,0.0,0.0,0.0,0.0,0.0,0.0,0.0,0.0,0.0,0.0,0.0,0.0,0.0,0.0,0.0,0.0,0.0,0.0,0.0,0.0,0.0,0.0,0.0,0.0,0.0,0.0,0.0,0.0,0.0,0.0,0.0,0.0,0.0,0.0,0.0,0.0,0.0,0.0,0.0,0.0,0.0,0.0,0.0,0.0,0.0,0.0,0.0,0.0,0.0,0.0,0.0,0.0,0.0,0.0,0.0,0.0,0.0,0.0,0.0,0.0,0.0,0.0,0.0,0.0,0.0,0.0,0.0,0.0,0.0,0.0,0.0,0.0,0.0,0.0,0.0,0.0,0.0,0.0,0.0,0.0,0.0,0.0,0.0,0.0,0.0,0.0,0.0,0.0,0.0,0.0,0.0,0.0,0.0,0.0,0.0,0.0,0.0,0.0,0.0,0.0,0.0,0.0,0.0,0.0,0.0,0.0,0.0,0.0,0.0,0.0,0.0,0.0,0.0,0.0,0.0,0.0,0.0,0.0,0.0,0.0,0.0,0.0,0.0,0.0,0.0,0.0,0.0,0.0,0.0,0.0,0.0,0.0,0.0,0.0,0.0,0.0,0.0,0.0,0.0,0.0,0.0,0.0,0.0,0.0,0.0,0.0,0.0,0.0,0.0,0.0,0.0,0.0,0.0,0.0,0.0,0.0,0.0,0.0,0.0,0.0,0.0,0.0,0.0,0.0,0.0,0.0,0.0,0.0,0.0,0.0,0.0,0.0,0.0,0.0,0.0,0.0,0.0,0.0,0.0,0.0,0.0,0.0,0.0,0.0,0.0,0.0,0.0,0.0,0.0,0.0,0.0,0.0,0.0,0.0,0.0,0.0,0.0,0.0,0.0,0.0,0.0,0.0,0.0,0.0,0.0,0.0,0.0,0.0,0.0,0.0,0.0,0.0,0.0,0.0,0.0,0.0,0.0,0.0,0.0,0.0,0.0,0.0,0.0,0.0,0.0,0.0,0.0,0.0,0.0,0.0,0.0,0.0,0.0,0.0,0.0,0.0,0.0,0.0,0.0,0.0,0.0,0.0,0.0,0.0,0.0,0.0,0.0,0.0,0.0,0.0,0.0,0.0,0.0,0.0,0.0,0.0,0.0,0.0,0.0,0.0,0.0,0.0,0.0,0.0,0.0,0.0,0.0,0.0,0.0,0.0,0.0,0.0,0.0,0.0,0.0,0.0,0.0,0.0,0.0,0.0,0.0,0.0,0.0,0.0,0.0,0.0,0.0,0.0,0.0,0.0,0.0,0.0,0.0,0.0,0.0,0.0,0.0,0.0,0.0,0.0,0.0,0.0,0.0,0.0,0.0,0.0,0.0,0.0,0.0,0.0,0.0,0.0,0.0,0.0,0.0,0.0,0.0,0.0,0.0,0.0,0.0,0.0,0.0,0.0,0.0,0.0,0.0,0.0,0.0,0.0,0.0,0.0,0.0,0.0,0.0,0.0,0.0,0.0,0.0,0.0,0.0,0.0,0.0,0.0,0.0,0.0,0.0,0.0,0.0,0.0,0.0,0.0,0.0,0.0,0.0,0.0,0.0,0.0,0.0,0.0,0.0,0.0,0.0,0.0,0.0,0.0,0.0,0.0,0.0,0.0,0.0,0.0,0.0,0.0,0.0,0.0,0.0,0.0,0.0,0.0,0.0,0.0,0.0,0.0,0.0,0.0,0.0,0.0,0.0,0.0,0.0,0.0,0.0,0.0,0.0,0.0,0.0,0.0,0.0,0.0,0.0,0.0,0.0,0.0,0.0,0.0,0.0,0.0,0.0,0.0,0.0,0.0,0.0,0.0,0.0,0.0,0.0,0.0,0.0,0.0,0.0,0.0,0.0,0.0,0.0,0.0,0.0,0.0,0.0,0.0,0.0,0.0,0.0,0.0,0.0,0.0,0.0,0.0,0.0,2.5726,0.0,0.0,0.0,0.0,0.0,0.0,0.0,0.0,0.0,0.0,0.0,0.0,0.0,0.0,0.0,0.0,0.0,0.0,0.0,0.0,0.0,0.0,0.0,0.0,0.0,0.0,0.0,0.0,0.0,0.0,0.0,0.0,0.0,0.0,0.0,0.0,0.0,0.0,0.0,0.0,0.0,0.0,0.0,0.0,0.0,0.0,0.0,0.0,0.0,0.0,0.0,0.0,0.0,0.0,0.0,0.0,0.0,0.0,0.0,0.0,0.0,0.0,0.0,0.0,0.0,0.0,0.0,0.0,0.0,0.0,0.0,0.0,0.0,0.0,0.0,0.0,0.0,0.0,0.0,0.0,0.0,0.0,0.0,0.0,0.0,0.0,0.0,0.0,0.0,0.0,0.0,0.0,0.0,0.0,0.0,0.0,0.0,0.0,0.0,0.0,0.0,0.0,0.0,0.0,0.0,0.0,0.0,0.0,0.0,0.0,3.1356,3.0328,2.8622,2.6929,2.5252,0.0,0.0,0.0,0.0,0.0,0.0,0.0,0.0,0.0,0.0,0.0,0.0,0.0,0.0,0.0,0.0,0.0,0.0,0.0,0.0,0.0,0.0,0.0,0.0,0.0,0.0,0.0,0.0,0.0,0.0,0.0,0.0,0.0,0.0,0.0,0.0,0.0,0.0,0.0,0.0,0.0,0.0,0.0,0.0,0.0,0.0,0.0,0.0,0.0,0.0,0.0,0.0,0.0,0.0,0.0,0.0,0.0,0.0,0.0,0.0,0.0,0.0,0.0,0.0,0.0,0.0,0.0,0.0,0.0,0.0,0.0,0.0,0.0,0.0,0.0,0.0,0.0,0.0,0.0,0.0,0.0,0.0,0.0,0.0,0.0,0.0,0.0,0.0,0.0,0.0,0.0,0.0,0.0,0.0,0.0,0.0,0.0,0.0,0.0,0.0,0.0,0.0,0.0,0.0,0.0,0.0,0.0,0.0,0.0,0.0,0.0,0.0,2.7864,2.6147,2.4416,0.0,0.0,0.0,0.0,0.0,0.0,0.0,0.0,0.0,0.0,0.0,0.0,0.0,0.0,0.0,0.0,0.0,0.0,0.0,0.0,0.0,0.0,0.0,0.0,0.0,0.0,0.0,0.0,0.0,0.0,0.0,0.0,0.0,0.0,0.0,0.0,0.0,0.0,0.0,0.0,0.0,0.0,0.0,0.0,0.0,0.0,0.0,0.0,0.0,0.0,0.0,0.0,0.0,0.0,0.0,0.0,0.0,0.0,0.0,0.0,0.0,0.0,0.0,0.0,0.0,0.0,0.0,0.0,0.0,0.0,0.0,0.0,0.0,0.0,0.0,0.0,0.0,0.0,0.0,0.0,0.0,0.0,0.0,0.0,0.0,0.0,0.0,0.0,0.0,0.0,0.0,0.0,0.0,0.0,0.0,0.0,0.0,0.0,0.0,0.0,0.0,0.0,0.0,0.0,0.0,0.0,0.0,0.0,0.0,0.0,2.9143,2.8462,2.7544,0.0,2.3293,0.0,0.0,0.0,0.0,0.0,0.0,0.0,0.0,0.0,0.0,0.0,0.0,0.0,0.0,0.0,0.0,0.0,0.0,0.0,0.0,0.0,0.0,0.0,0.0,0.0,0.0,0.0,0.0,0.0,0.0,0.0,0.0,0.0,0.0,0.0,0.0,0.0,0.0,0.0,0.0,0.0,0.0,0.0,0.0,0.0,0.0,0.0,0.0,0.0,0.0,0.0,0.0,0.0,0.0,0.0,0.0,0.0,0.0,0.0,0.0,0.0,0.0,0.0,0.0,0.0,0.0,0.0,0.0,0.0,0.0,0.0,0.0,0.0,0.0,0.0,0.0,0.0,0.0,0.0,0.0,0.0,0.0,0.0,0.0,0.0,0.0,0.0,0.0,0.0,0.0,0.0,0.0,0.0,0.0,0.0,0.0,0.0,0.0,0.0,0.0,0.0,0.0,0.0,0.0,0.0,0.0,0.0,0.0,0.0,0.0,2.8385,2.8009,2.6387,2.4558,0.0,0.0,0.0,0.0,0.0,0.0,0.0,0.0,0.0,0.0,0.0,0.0,0.0,0.0,0.0,0.0,0.0,0.0,0.0,0.0,0.0,0.0,0.0,0.0,0.0,0.0,0.0,0.0,0.0,0.0,0.0,0.0,0.0,0.0,0.0,0.0,0.0,0.0,0.0,0.0,0.0,0.0,0.0,0.0,0.0,0.0,0.0,0.0,0.0,0.0,0.0,0.0,0.0,0.0,0.0,0.0,0.0,0.0,0.0,0.0,0.0,0.0,0.0,0.0,0.0,0.0,0.0,0.0,0.0,0.0,0.0,0.0,0.0,0.0,0.0,0.0,0.0,0.0,0.0,0.0,0.0,0.0,0.0,0.0,0.0,0.0,0.0,0.0,0.0,0.0,0.0,0.0,0.0,0.0,0.0,0.0,0.0,0.0,0.0,0.0,0.0,0.0,0.0,0.0,0.0,0.0,0.0,0.0,0.0,0.0,2.84,2.7752,2.7164,2.5133,2.352,2.2406,0.0,0.0,0.0,0.0,0.0,0.0,0.0,0.0,0.0,0.0,0.0,0.0,0.0,0.0,0.0,0.0,0.0,0.0,0.0,0.0,0.0,0.0,0.0,0.0,0.0,0.0,0.0,0.0,0.0,0.0,0.0,0.0,0.0,0.0,0.0,0.0,0.0,0.0,0.0,0.0,0.0,0.0,0.0,0.0,0.0,0.0,0.0,0.0,0.0,0.0,0.0,0.0,0.0,0.0,0.0,0.0,0.0,0.0,0.0,0.0,0.0,0.0,0.0,0.0,0.0,0.0,0.0,0.0,0.0,0.0,0.0,0.0,0.0,0.0,0.0,0.0,0.0,0.0,0.0,0.0,0.0,0.0,0.0,0.0,0.0,0.0,0.0,0.0,0.0,0.0,0.0,0.0,0.0,0.0,0.0,0.0,0.0,0.0,0.0,0.0,0.0,0.0,0.0,0.0,0.0,0.0,0.0,0.0,2.7994,2.7808,2.7108,2.5849,2.4019,2.3043,0.0,0.0,0.0,0.0,0.0,0.0,0.0,0.0,0.0,0.0,0.0,0.0,0.0,0.0,0.0,0.0,0.0,0.0,0.0,0.0,0.0,0.0,0.0,0.0,0.0,0.0,0.0,0.0,0.0,0.0,0.0,0.0,0.0,0.0,0.0,0.0,0.0,0.0,0.0,0.0,0.0,0.0,0.0,0.0,0.0,0.0,0.0,0.0,0.0,0.0,0.0,0.0,0.0,0.0,0.0,0.0,0.0,0.0,0.0,0.0,0.0,0.0,0.0,0.0,0.0,0.0,0.0,0.0,0.0,0.0,0.0,0.0,0.0,0.0,0.0,0.0,0.0,0.0,0.0,0.0,0.0,0.0,0.0,0.0,0.0,0.0,0.0,0.0,0.0,0.0,0.0,0.0,0.0,0.0,0.0,0.0,0.0,0.0,0.0,0.0,0.0,0.0,0.0,0.0,0.0,0.0,0.0,0.0,0.0,2.7627,2.7108,2.6467,2.569,2.4544,2.362,0.0,0.0,0.0,0.0,0.0,0.0,0.0,0.0,0.0,0.0,0.0,0.0,0.0,0.0,0.0,0.0,0.0,0.0,0.0,0.0,0.0,0.0,0.0,0.0,0.0,0.0,0.0,0.0,0.0,0.0,0.0,0.0,0.0,0.0,0.0,0.0,0.0,0.0,0.0,0.0,0.0,0.0,0.0,0.0,0.0,0.0,0.0,0.0,0.0,0.0,0.0,0.0,0.0,0.0,0.0,0.0,0.0,0.0,0.0,0.0,0.0,0.0,0.0,0.0,0.0,0.0,0.0,0.0,0.0,0.0,0.0,0.0,0.0,0.0,0.0,0.0,0.0,0.0,0.0,0.0,0.0,0.0,0.0,0.0,0.0,0.0,0.0,0.0,0.0,0.0,0.0,0.0,0.0,0.0,0.0,0.0,0.0,0.0,0.0,0.0,0.0,0.0,0.0,0.0,0.0,0.0,0.0,0.0,0.0,2.7407,0.0,2.6118,2.5579,2.4844,2.4023,0.0,0.0,0.0,0.0,0.0,0.0,0.0,0.0,0.0,0.0,0.0,0.0,0.0,0.0,0.0,0.0,0.0,0.0,0.0,0.0,0.0,0.0,0.0,0.0,0.0,0.0,0.0,0.0,0.0,0.0,0.0,0.0,0.0,0.0,0.0,0.0,0.0,0.0,0.0,0.0,0.0,0.0,0.0,0.0,0.0,0.0,0.0,0.0,0.0,0.0,0.0,0.0,0.0,0.0,0.0,0.0,0.0,0.0,0.0,0.0,0.0,0.0,0.0,0.0,0.0,0.0,0.0,0.0,0.0,0.0,0.0,0.0,0.0,0.0,0.0,0.0,0.0,0.0,0.0,0.0,0.0,0.0,0.0,0.0,0.0,0.0,0.0,0.0,0.0,0.0,0.0,0.0,0.0,0.0,0.0,0.0,0.0,0.0,0.0,0.0,0.0,0.0,0.0,0.0,0.0,0.0,0.0,0.0,2.7887,2.7263,2.6776,2.6186,2.536,2.4841,2.4243,0.0,0.0,0.0,0.0,0.0,0.0,0.0,0.0,0.0,0.0,0.0,0.0,0.0,0.0,0.0,0.0,0.0,0.0,0.0,0.0,0.0,0.0,0.0,0.0,0.0,0.0,0.0,0.0,0.0,0.0,0.0,0.0,0.0,0.0,0.0,0.0,0.0,0.0,0.0,0.0,0.0,0.0,0.0,0.0,0.0,0.0,0.0,0.0,0.0,0.0,0.0,0.0,0.0,0.0,0.0,0.0,0.0,0.0,0.0,0.0,0.0,0.0,0.0,0.0,0.0,0.0,0.0,0.0,0.0,0.0,0.0,0.0,0.0,0.0,0.0,0.0,0.0,0.0,0.0,0.0,0.0,0.0,0.0,0.0,0.0,0.0,0.0,0.0,0.0,0.0,0.0,0.0,0.0,0.0,0.0,0.0,0.0,0.0,0.0,0.0,0.0,0.0,0.0,0.0,0.0,0.0,0.0,0.0,0.0,2.838,2.7632,2.7082,2.6727,2.5737,2.491,0.0,0.0,0.0,0.0,0.0,0.0,0.0,0.0,0.0,0.0,0.0,0.0,0.0,0.0,0.0,0.0,0.0,0.0,0.0,0.0,0.0,0.0,0.0,0.0,0.0,0.0,0.0,0.0,0.0,0.0,0.0,0.0,0.0,0.0,0.0,0.0,0.0,0.0,0.0,0.0,0.0,0.0,0.0,0.0,0.0,0.0,0.0,0.0,0.0,0.0,0.0,0.0,0.0,0.0,0.0,0.0,0.0,0.0,0.0,0.0,0.0,0.0,0.0,0.0,0.0,0.0,0.0,0.0,0.0,0.0,0.0,0.0,0.0,0.0,0.0,0.0,0.0,0.0,0.0,0.0,0.0,0.0,0.0,0.0,0.0,0.0,0.0,0.0,0.0,0.0,0.0,0.0,0.0,0.0,0.0,0.0,0.0,0.0,0.0,0.0,0.0,0.0,0.0,0.0,0.0,0.0,0.0,0.0,0.0,2.9727,2.8571,2.784,2.7655,2.6525,2.5561,2.4827,0.0,0.0,0.0,0.0,0.0,0.0,0.0,0.0,0.0,0.0,0.0,0.0,0.0,0.0,0.0,0.0,0.0,0.0,0.0,0.0,0.0,0.0,0.0,0.0,0.0,0.0,0.0,0.0,0.0,0.0,0.0,0.0,0.0,0.0,0.0,0.0,0.0,0.0,0.0,0.0,0.0,0.0,0.0,0.0,0.0,0.0,0.0,0.0,0.0,0.0,0.0,0.0,0.0,0.0,0.0,0.0,0.0,0.0,0.0,0.0,0.0,0.0,0.0,0.0,0.0,0.0,0.0,0.0,0.0,0.0,0.0,0.0,0.0,0.0,0.0,0.0,0.0,0.0,0.0,0.0,0.0,0.0,0.0,0.0,0.0,0.0,0.0,0.0,0.0,0.0,0.0,0.0,0.0,0.0,0.0,0.0,0.0,0.0,0.0,0.0,0.0,0.0,0.0,0.0,0.0,0.0,0.0,0.0,3.1305,2.9533,2.8439,2.8209,2.7197,2.6221,0.0,0.0,0.0,0.0,0.0,0.0,0.0,0.0,0.0,0.0,0.0,0.0,0.0,0.0,0.0,0.0,0.0,0.0,0.0,0.0,0.0,0.0,0.0,0.0,0.0,0.0,0.0,0.0,0.0,0.0,0.0,0.0,0.0,0.0,0.0,0.0,0.0,0.0,0.0,0.0,0.0,0.0,0.0,0.0,0.0,0.0,0.0,0.0,0.0,0.0,0.0,0.0,0.0,0.0,0.0,0.0,0.0,0.0,0.0,0.0,0.0,0.0,0.0,0.0,0.0,0.0,0.0,0.0,0.0,0.0,0.0,0.0,0.0,0.0,0.0,0.0,0.0,0.0,0.0,0.0,0.0,0.0,0.0,0.0,0.0,0.0,0.0,0.0,0.0,0.0,0.0,0.0,0.0,0.0,0.0,0.0,0.0,0.0,0.0,0.0,0.0,0.0,0.0,0.0,0.0,0.0,0.0,0.0,0.0,3.1549,3.0224,2.9409,2.9244,2.8033,2.6729,0.0,0.0,0.0,0.0,0.0,0.0,0.0,0.0,0.0,0.0,0.0,0.0,0.0,0.0,0.0,0.0,0.0,0.0,0.0,0.0,0.0,0.0,0.0,0.0,0.0,0.0,0.0,0.0,0.0,0.0,0.0,0.0,0.0,0.0,0.0,0.0,0.0,0.0,0.0,0.0,0.0,0.0,0.0,0.0,0.0,0.0,0.0,0.0,0.0,0.0,0.0,0.0,0.0,0.0,0.0,0.0,0.0,0.0,0.0,0.0,0.0,0.0,0.0,0.0,0.0,0.0,0.0,0.0,0.0,0.0,0.0,0.0,0.0,0.0,0.0,0.0,0.0,0.0,0.0,0.0,0.0,0.0,0.0,0.0,0.0,0.0,0.0,0.0,0.0,0.0,0.0,0.0,0.0,0.0,0.0,0.0,0.0,0.0,0.0,0.0,0.0,0.0,0.0,0.0,0.0,0.0,0.0,0.0,3.0636,3.1809,3.0816,3.0279,3.0227,2.841,2.6879,0.0,0.0,0.0,0.0,0.0,0.0,0.0,0.0,0.0,0.0,0.0,0.0,0.0,0.0,0.0,0.0,0.0,0.0,0.0,0.0,0.0,0.0,0.0,0.0,0.0,0.0,0.0,0.0,0.0,0.0,0.0,0.0,0.0,0.0,0.0,0.0,0.0,0.0,0.0,0.0,0.0,0.0,0.0,0.0,0.0,0.0,0.0,0.0,0.0,0.0,0.0,0.0,0.0,0.0,0.0,0.0,0.0,0.0,0.0,0.0,0.0,0.0,0.0,0.0,0.0,0.0,0.0,0.0,0.0,0.0,0.0,0.0,0.0,0.0,0.0,0.0,0.0,0.0,0.0,0.0,0.0,0.0,0.0,0.0,0.0,0.0,0.0,0.0,0.0,0.0,0.0,0.0,0.0,0.0,0.0,0.0,0.0,0.0,0.0,0.0,0.0,0.0,0.0,0.0,0.0,0.0,0.0,0.0,3.0554,3.1836,3.1308,3.0979,3.0922,2.8648,2.6965,0.0,0.0,0.0,0.0,0.0,0.0,0.0,0.0,0.0,0.0,0.0,0.0,0.0,0.0,0.0,0.0,0.0,0.0,0.0,0.0,0.0,0.0,0.0,0.0,0.0,0.0,0.0,0.0,0.0,0.0,0.0,0.0,0.0,0.0,0.0,0.0,0.0,0.0,0.0,0.0,0.0,0.0,0.0,0.0,0.0,0.0,0.0,0.0,0.0,0.0,0.0,0.0,0.0,0.0,0.0,0.0,0.0,0.0,0.0,0.0,0.0,0.0,0.0,0.0,0.0,0.0,0.0,0.0,0.0,0.0,0.0,0.0,0.0,0.0,0.0,0.0,0.0,0.0,0.0,0.0,0.0,0.0,0.0,0.0,0.0,0.0,0.0,0.0,0.0,0.0,0.0,0.0,0.0,0.0,0.0,0.0,0.0,0.0,0.0,0.0,0.0,0.0,0.0,0.0,0.0,0.0,0.0,0.0,3.0573,3.1483,3.1175,3.1049,3.1049,2.9495,2.7918,0.0,0.0,0.0,0.0,0.0,0.0,0.0,0.0,0.0,0.0,0.0,0.0,0.0,0.0,0.0,0.0,0.0,0.0,0.0,0.0,0.0,0.0,0.0,0.0,0.0,0.0,0.0,0.0,0.0,0.0,0.0,0.0,0.0,0.0,0.0,0.0,0.0,0.0,0.0,0.0,0.0,0.0,0.0,0.0,0.0,0.0,0.0,0.0,2.7287,0.0,0.0,0.0,0.0,0.0,0.0,0.0,0.0,0.0,0.0,0.0,0.0,0.0,0.0,0.0,0.0,0.0,0.0,0.0,0.0,0.0,0.0,0.0,0.0,0.0,0.0,0.0,0.0,0.0,0.0,0.0,0.0,0.0,0.0,0.0,0.0,0.0,0.0,0.0,0.0,0.0,0.0,0.0,0.0,0.0,0.0,0.0,0.0,0.0,0.0,0.0,0.0,0.0,0.0,0.0,0.0,0.0,0.0,0.0,3.0467,3.138,3.1395,3.1272,3.1129,2.976,2.8235,0.0,0.0,0.0,0.0,0.0,0.0,0.0,0.0,0.0,0.0,0.0,0.0,0.0,0.0,0.0,0.0,0.0,0.0,0.0,0.0,0.0,0.0,0.0,0.0,0.0,0.0,0.0,0.0,0.0,0.0,0.0,0.0,0.0,0.0,0.0,0.0,0.0,0.0,0.0,0.0,0.0,0.0,0.0,0.0,0.0,0.0,0.0,0.0,0.0,0.0,0.0,0.0,0.0,0.0,0.0,0.0,0.0,0.0,0.0,0.0,0.0,0.0,0.0,0.0,0.0,0.0,0.0,0.0,0.0,0.0,0.0,0.0,0.0,0.0,0.0,0.0,0.0,0.0,0.0,0.0,0.0,0.0,0.0,0.0,0.0,0.0,0.0,0.0,0.0,0.0,0.0,0.0,0.0,0.0,0.0,0.0,0.0,0.0,0.0,0.0,0.0,0.0,0.0,0.0,0.0,0.0,0.0,2.9326,3.047,3.153,3.1753,3.1664,3.1343,2.9895,2.8337,2.6573,0.0,0.0,0.0,0.0,0.0,0.0,0.0,0.0,0.0,0.0,0.0,0.0,0.0,0.0,0.0,0.0,0.0,0.0,0.0,0.0,0.0,0.0,0.0,0.0,0.0,0.0,0.0,0.0,0.0,0.0,0.0,0.0,0.0,0.0,0.0,0.0,0.0,0.0,2.0039,2.0771,0.0,0.0,0.0,0.0,0.0,0.0,0.0,0.0,2.7845,0.0,0.0,0.0,0.0,0.0,0.0,0.0,0.0,0.0,0.0,0.0,0.0,0.0,0.0,0.0,0.0,0.0,0.0,0.0,0.0,0.0,0.0,0.0,0.0,0.0,0.0,0.0,0.0,0.0,0.0,0.0,0.0,0.0,0.0,0.0,0.0,0.0,0.0,0.0,0.0,0.0,0.0,0.0,0.0,0.0,0.0,0.0,0.0,0.0,0.0,0.0,0.0,0.0,0.0,0.0,0.0,2.7927,2.9557,3.0895,3.1994,3.2321,3.2313,3.1931,3.0541,2.8938,2.7202,0.0,0.0,0.0,0.0,0.0,0.0,0.0,0.0,0.0,0.0,0.0,0.0,0.0,0.0,0.0,0.0,0.0,0.0,0.0,0.0,0.0,0.0,0.0,0.0,0.0,0.0,0.0,0.0,0.0,0.0,0.0,0.0,0.0,0.0,0.0,0.0,0.0,0.0,0.0,2.19,2.28,0.0,0.0,0.0,0.0,0.0,0.0,0.0,0.0,2.8361,0.0,0.0,0.0,0.0,0.0,0.0,0.0,0.0,0.0,0.0,0.0,0.0,0.0,0.0,0.0,0.0,0.0,0.0,0.0,0.0,0.0,0.0,0.0,0.0,0.0,0.0,0.0,0.0,0.0,0.0,0.0,0.0,0.0,0.0,0.0,0.0,0.0,0.0,0.0,0.0,0.0,0.0,0.0,0.0,0.0,0.0,0.0,0.0,0.0,0.0,0.0,0.0,0.0,0.0,0.0,2.8524,3.0063,3.149,3.2732,3.2933,3.2853,3.2532,3.0849,2.9152,0.0,0.0,0.0,0.0,0.0,0.0,0.0,0.0,0.0,0.0,0.0,0.0,0.0,0.0,0.0,0.0,0.0,0.0,0.0,0.0,0.0,0.0,0.0,0.0,0.0,0.0,0.0,0.0,0.0,0.0,0.0,0.0,0.0,0.0,0.0,0.0,0.0,0.0,0.0,0.0,2.2566,2.3337,2.4032,0.0,0.0,0.0,0.0,0.0,0.0,2.9022,2.8563,0.0,0.0,0.0,0.0,0.0,0.0,0.0,0.0,0.0,0.0,0.0,0.0,0.0,0.0,0.0,0.0,0.0,0.0,0.0,0.0,0.0,0.0,0.0,0.0,0.0,0.0,0.0,0.0,0.0,0.0,0.0,0.0,0.0,0.0,0.0,0.0,0.0,0.0,0.0,0.0,0.0,0.0,0.0,0.0,0.0,0.0,0.0,0.0,0.0,0.0,0.0,0.0,0.0,0.0,0.0,2.924,3.0638,3.2118,3.3497,3.3654,3.348,3.3053,3.1196,2.9432,0.0,0.0,0.0,0.0,0.0,0.0,0.0,0.0,0.0,0.0,0.0,0.0,0.0,0.0,0.0,0.0,0.0,0.0,0.0,0.0,0.0,0.0,0.0,0.0,0.0,0.0,0.0,0.0,0.0,0.0,0.0,0.0,0.0,0.0,0.0,0.0,0.0,0.0,0.0,0.0,0.0,2.3915,2.4857,2.5534,0.0,0.0,0.0,0.0,2.9031,2.9064,0.0,0.0,0.0,0.0,0.0,0.0,0.0,0.0,0.0,0.0,0.0,0.0,0.0,0.0,0.0,0.0,0.0,0.0,0.0,0.0,0.0,0.0,0.0,0.0,0.0,0.0,0.0,0.0,0.0,0.0,0.0,0.0,0.0,0.0,0.0,0.0,0.0,0.0,0.0,0.0,0.0,0.0,0.0,0.0,0.0,0.0,0.0,0.0,0.0,0.0,0.0,0.0,0.0,0.0,0.0,0.0,2.9471,3.1149,3.2719,3.4084,3.4469,3.4215,3.335,3.1843,3.0127,0.0,0.0,0.0,0.0,0.0,0.0,0.0,0.0,0.0,0.0,0.0,0.0,0.0,0.0,0.0,0.0,0.0,0.0,0.0,0.0,0.0,0.0,0.0,0.0,0.0,0.0,0.0,0.0,0.0,0.0,0.0,0.0,0.0,0.0,0.0,0.0,0.0,0.0,0.0,0.0,0.0,2.4814,2.5807,2.6457,2.7189,0.0,0.0,2.9108,2.9778,2.9418,0.0,0.0,0.0,0.0,0.0,0.0,0.0,0.0,0.0,0.0,0.0,0.0,0.0,0.0,0.0,0.0,0.0,0.0,0.0,0.0,0.0,0.0,0.0,0.0,0.0,0.0,0.0,0.0,0.0,0.0,0.0,0.0,0.0,0.0,0.0,0.0,0.0,0.0,0.0,0.0,0.0,0.0,0.0,0.0,0.0,0.0,0.0,0.0,0.0,0.0,0.0,0.0,0.0,0.0,0.0,2.8411,3.0239,3.2131,3.3828,3.5244,3.5271,3.499,3.4442,3.2519,3.0595,0.0,0.0,0.0,0.0,0.0,0.0,0.0,0.0,0.0,0.0,0.0,0.0,0.0,0.0,0.0,0.0,0.0,0.0,0.0,0.0,0.0,0.0,0.0,0.0,0.0,0.0,0.0,0.0,0.0,0.0,0.0,0.0,0.0,0.0,0.0,0.0,0.0,0.0,0.0,0.0,0.0,0.0,2.6623,2.7405,0.0,0.0,0.0,2.9939,3.0036,0.0,0.0,0.0,0.0,0.0,0.0,0.0,0.0,0.0,0.0,0.0,0.0,0.0,0.0,0.0,0.0,0.0,0.0,0.0,0.0,0.0,0.0,0.0,0.0,0.0,0.0,0.0,0.0,0.0,0.0,0.0,0.0,0.0,0.0,0.0,0.0,0.0,0.0,0.0,0.0,0.0,0.0,0.0,0.0,0.0,0.0,0.0,0.0,0.0,0.0,0.0,0.0,0.0,0.0,0.0,0.0,0.0,3.0982,3.2986,3.467,3.6006,3.5992,3.5752,3.5284,3.316,0.0,0.0,0.0,0.0,0.0,0.0,0.0,0.0,0.0,0.0,0.0,0.0,0.0,0.0,0.0,0.0,0.0,0.0,0.0,0.0,0.0,0.0,0.0,0.0,0.0,0.0,0.0,2.2352,0.0,0.0,0.0,0.0,0.0,0.0,0.0,0.0,0.0,0.0,0.0,0.0,0.0,0.0,2.6266,2.7442,2.8364,2.9045,0.0,0.0,3.0578,3.0146,3.009,2.948,0.0,0.0,0.0,0.0,0.0,0.0,0.0,0.0,0.0,0.0,0.0,0.0,0.0,0.0,0.0,0.0,0.0,0.0,0.0,0.0,0.0,0.0,0.0,0.0,0.0,0.0,0.0,0.0,0.0,0.0,0.0,0.0,0.0,0.0,0.0,0.0,0.0,0.0,0.0,0.0,0.0,0.0,0.0,0.0,0.0,0.0,0.0,0.0,0.0,0.0,0.0,0.0,0.0,0.0,0.0,3.1617,3.3374,3.4883,3.61,3.658,3.6446,3.5551,3.3841,3.2198,0.0,0.0,0.0,0.0,0.0,0.0,0.0,0.0,0.0,0.0,0.0,0.0,0.0,0.0,0.0,0.0,0.0,0.0,0.0,0.0,0.0,0.0,0.0,0.0,0.0,0.0,0.0,0.0,0.0,0.0,0.0,0.0,0.0,0.0,0.0,0.0,0.0,0.0,0.0,0.0,0.0,2.7134,2.835,2.9272,2.9927,0.0,0.0,3.0896,3.0142,2.9631,2.8817,2.7444,0.0,0.0,0.0,0.0,0.0,0.0,0.0,0.0,0.0,0.0,0.0,0.0,0.0,0.0,0.0,0.0,0.0,0.0,0.0,0.0,0.0,0.0,0.0,0.0,0.0,0.0,0.0,0.0,0.0,0.0,0.0,0.0,0.0,0.0,0.0,0.0,0.0,0.0,0.0,0.0,0.0,0.0,0.0,0.0,0.0,0.0,0.0,0.0,0.0,0.0,0.0,0.0,0.0,3.065,3.2233,3.4135,3.5698,3.6834,3.7275,3.7086,3.6446,3.4736,3.3106,0.0,0.0,0.0,0.0,0.0,0.0,0.0,0.0,0.0,0.0,0.0,0.0,0.0,0.0,0.0,0.0,0.0,0.0,0.0,0.0,0.0,0.0,0.0,0.0,0.0,0.0,0.0,0.0,2.4052,2.4146,2.4289,0.0,0.0,0.0,0.0,0.0,0.0,0.0,0.0,0.0,0.0,2.7856,2.9219,2.9737,0.0,0.0,3.0533,3.0342,2.9656,2.8963,2.8097,2.6902,2.5571,0.0,0.0,0.0,0.0,0.0,0.0,0.0,0.0,0.0,0.0,0.0,0.0,0.0,0.0,0.0,0.0,0.0,0.0,0.0,0.0,0.0,0.0,0.0,0.0,0.0,0.0,0.0,0.0,0.0,0.0,0.0,0.0,0.0,0.0,0.0,0.0,0.0,0.0,0.0,0.0,0.0,0.0,0.0,0.0,0.0,0.0,0.0,0.0,0.0,0.0,0.0,0.0,3.1226,3.2714,3.4629,3.6193,3.7355,3.7742,3.7662,3.7061,3.5618,3.4189,0.0,0.0,0.0,0.0,0.0,0.0,0.0,0.0,0.0,0.0,0.0,0.0,0.0,0.0,0.0,0.0,0.0,0.0,0.0,0.0,0.0,0.0,0.0,0.0,0.0,0.0,0.0,0.0,2.4696,2.4663,2.4409,0.0,0.0,0.0,0.0,0.0,0.0,0.0,0.0,0.0,0.0,2.8534,2.9649,3.0005,3.0171,3.0272,3.0105,2.9712,2.9017,2.8195,2.7288,2.6111,0.0,0.0,0.0,0.0,0.0,0.0,0.0,0.0,0.0,0.0,0.0,0.0,0.0,0.0,0.0,0.0,0.0,0.0,0.0,0.0,0.0,0.0,0.0,0.0,0.0,0.0,0.0,0.0,0.0,0.0,2.7198,0.0,0.0,0.0,0.0,0.0,0.0,0.0,0.0,0.0,0.0,0.0,0.0,0.0,0.0,0.0,0.0,0.0,0.0,0.0,0.0,0.0,0.0,3.178,3.3009,3.4736,3.6206,3.7355,3.8013,3.8026,3.7395,3.65,3.5471,3.4242,0.0,0.0,0.0,0.0,0.0,0.0,0.0,0.0,0.0,0.0,0.0,0.0,0.0,0.0,0.0,0.0,0.0,0.0,0.0,0.0,0.0,0.0,0.0,0.0,0.0,0.0,2.508,2.5114,2.4743,0.0,0.0,0.0,0.0,0.0,0.0,0.0,0.0,0.0,0.0,2.8041,2.9119,2.954,3.0121,3.0225,2.9768,2.957,2.9142,2.8083,2.7246,2.6314,0.0,0.0,0.0,0.0,0.0,0.0,0.0,0.0,0.0,0.0,0.0,0.0,0.0,0.0,0.0,0.0,0.0,0.0,0.0,0.0,0.0,0.0,0.0,0.0,0.0,0.0,0.0,3.3061,3.2368,0.0,0.0,0.0,0.0,0.0,0.0,0.0,0.0,0.0,0.0,0.0,3.1518,3.1883,0.0,0.0,0.0,0.0,0.0,0.0,0.0,0.0,0.0,0.0,0.0,0.0,3.2206,3.3584,3.5137,3.65,3.7635,3.825,3.837,3.7969,3.7101,3.5725,3.3774,0.0,0.0,0.0,0.0,0.0,0.0,0.0,0.0,0.0,0.0,0.0,0.0,0.0,0.0,0.0,0.0,0.0,0.0,0.0,0.0,0.0,0.0,0.0,0.0,0.0,2.4399,0.0,0.0,0.0,0.0,0.0,0.0,0.0,0.0,0.0,0.0,0.0,2.6587,2.7133,2.8286,2.9143,2.9348,2.9152,2.8919,0.0,0.0,0.0,0.0,0.0,0.0,0.0,0.0,0.0,0.0,0.0,0.0,0.0,0.0,2.3336,2.3165,2.338,2.3598,2.3528,0.0,0.0,0.0,0.0,0.0,0.0,0.0,0.0,0.0,0.0,0.0,0.0,0.0,0.0,3.3829,0.0,3.2446,0.0,0.0,0.0,0.0,0.0,0.0,0.0,0.0,3.2425,3.3131,3.3668,3.3999,3.4631,0.0,3.5496,3.506,0.0,0.0,0.0,0.0,0.0,0.0,0.0,0.0,3.275,3.4052,3.5471,3.674,3.7782,3.841,3.8571,3.8321,3.7502,3.6273,3.4549,3.4501,3.3663,0.0,0.0,0.0,0.0,0.0,0.0,0.0,0.0,0.0,0.0,0.0,0.0,0.0,0.0,0.0,0.0,0.0,0.0,0.0,0.0,0.0,0.0,0.0,2.4566,0.0,0.0,0.0,0.0,0.0,0.0,0.0,0.0,0.0,2.5383,2.6306,2.7015,2.7298,2.8239,2.8828,2.8678,0.0,0.0,0.0,0.0,0.0,0.0,0.0,2.3409,2.2845,2.2485,2.2236,2.1935,2.1979,2.2099,2.2168,0.0,0.0,2.314,2.3443,2.3699,2.3655,2.3765,2.3874,2.3696,2.3837,2.4123,0.0,0.0,0.0,0.0,0.0,0.0,0.0,0.0,3.539,3.4761,0.0,3.3556,0.0,0.0,0.0,0.0,0.0,3.2558,0.0,0.0,3.4545,3.5048,3.5405,3.574,3.6626,3.7913,3.7585,3.7808,3.8237,3.5286,0.0,0.0,0.0,0.0,0.0,0.0,3.3322,3.4362,3.5792,3.6941,3.7809,3.841,3.8571,3.8321,3.7729,3.7141,3.6527,3.6424,3.5679,3.4157,3.3338,0.0,0.0,0.0,0.0,0.0,0.0,0.0,0.0,0.0,0.0,0.0,0.0,0.0,0.0,0.0,0.0,0.0,0.0,0.0,0.0,2.5181,0.0,0.0,0.0,0.0,0.0,0.0,0.0,0.0,0.0,0.0,2.5974,2.6676,2.7109,2.7135,0.0,0.0,0.0,0.0,2.6043,2.5631,2.4552,2.3572,2.2944,2.2475,2.2084,2.1649,0.0,0.0,2.2014,2.2011,2.2076,2.232,2.2524,2.2898,2.3593,2.3872,2.4004,2.3893,2.3871,2.3718,2.3347,2.3491,2.3769,3.868,0.0,0.0,0.0,0.0,3.6951,3.6856,3.6725,3.5928,3.5394,3.5175,3.4692,0.0,0.0,0.0,0.0,0.0,0.0,3.4766,3.5616,3.6392,3.7111,3.7689,3.8165,3.8734,3.9277,3.905,3.9017,3.9104,3.718,3.5299,3.3692,0.0,0.0,0.0,0.0,3.4026,3.5204,3.6286,3.7235,3.8174,3.8517,3.8571,3.8321,3.8317,3.7956,3.7224,3.7908,3.7563,3.6093,3.5667,0.0,0.0,0.0,0.0,0.0,0.0,0.0,0.0,0.0,0.0,0.0,0.0,0.0,0.0,0.0,0.0,0.0,0.0,0.0,2.5673,2.5161,2.4596,0.0,0.0,0.0,0.0,0.0,0.0,0.0,0.0,0.0,2.5677,2.6783,2.7124,0.0,0.0,2.7043,2.5927,2.5094,2.4517,2.4217,2.3357,0.0,0.0,2.1691,2.1566,2.1228,2.1557,2.1994,2.222,2.2021,2.181,2.1915,2.1807,2.1909,2.2619,2.3311,2.3683,2.3721,2.3836,2.3942,2.3797,2.3794,2.3893,3.9707,3.8989,3.8534,3.8233,3.8012,3.7611,3.7662,3.7903,3.7163,3.6807,3.6706,3.6422,3.5844,3.5035,3.5308,0.0,0.0,0.0,3.6541,3.723,3.7893,3.8473,3.9019,3.9332,3.9889,4.0436,4.0107,4.0014,4.023,3.882,3.7304,3.5742,0.0,0.0,3.3254,3.3805,3.4644,3.5605,3.6607,3.7435,3.8076,3.8504,3.8638,3.845,3.8504,3.829,3.7812,3.8413,3.8251,3.7187,3.6814,3.5963,0.0,0.0,0.0,0.0,0.0,0.0,0.0,0.0,0.0,0.0,0.0,2.7636,0.0,0.0,0.0,0.0,2.6398,2.5933,2.5628,2.4825,0.0,0.0,0.0,0.0,0.0,0.0,0.0,2.4269,2.4484,2.4753,2.5085,2.5908,2.616,2.525,2.5647,2.5586,2.4413,0.0,2.3003,2.2926,2.2278,2.1515,2.069,2.0749,2.0832,2.0556,2.0845,2.1238,2.1589,2.1405,2.1247,2.1223,2.1141,2.1224,2.1621,2.2212,2.2852,2.3449,2.3737,2.3819,2.3828,2.3883,2.3947,4.0725,4.0691,3.9483,3.9031,3.9053,3.8224,3.8395,3.9159,3.8725,3.8419,3.8313,3.8277,3.7746,3.6846,3.6561,0.0,3.775,3.8056,3.8335,3.8735,3.9062,3.9429,3.9693,3.9746,4.0354,4.1384,4.0852,4.0876,4.1267,4.0113,3.9151,3.8344,3.6051,3.4813,3.4745,3.4862,3.5164,3.5778,3.6861,3.7569,3.7889,3.841,3.8678,3.8638,3.837,3.8254,3.82,3.8282,3.8101,3.7691,3.7079,3.629,3.5291,0.0,0.0,0.0,0.0,0.0,0.0,0.0,0.0,0.0,0.0,0.0,0.0,0.0,0.0,0.0,2.6369,0.0,2.5512,2.4248,0.0,0.0,0.0,2.1821,2.2231,2.2347,2.2799,2.3965,0.0,0.0,2.4227,2.4465,2.4414,2.3897,2.4107,2.3934,2.2856,2.2113,2.1604,2.1631,2.1197,2.0578,1.9844,2.0003,2.018,2.0006,1.996,2.0259,2.0557,2.0603,2.056,2.0582,2.0664,2.0783,2.0834,2.1108,2.1585,2.314,2.3406,2.3363,2.3315,2.3427,2.3465,4.1833,4.2201,4.1133,4.0506,4.0158,3.9559,3.933,3.9277,3.8804,3.8412,3.818,3.8127,3.8288,3.8412,3.799,3.8237,3.9045,3.8901,3.9169,3.9697,4.022,4.0509,4.0615,4.1056,4.1398,4.1705,4.1584,4.1457,4.1249,4.0333,3.9713,3.9245,3.7764,3.6597,3.5751,3.5738,3.6166,3.6954,3.7462,3.7969,3.842,3.8424,3.8263,3.8036,3.7956,3.7716,3.7275,3.7901,3.8031,3.7523,3.7075,3.6311,3.5124,3.3572,0.0,0.0,0.0,0.0,0.0,0.0,0.0,0.0,0.0,2.7685,2.769,0.0,2.6786,0.0,2.6002,2.5221,2.5405,2.3756,0.0,0.0,2.174,2.1279,2.1276,2.1788,2.2394,2.2838,2.3311,2.3364,2.2886,2.2972,2.2698,2.1641,2.2178,2.241,2.1552,2.0679,2.0111,2.0136,1.9967,1.9669,1.9591,1.9938,2.0282,2.0321,2.0456,2.0729,2.1056,2.0802,2.0618,2.0672,2.0457,2.0494,2.0909,2.1034,2.1366,2.2161,2.1993,2.1689,2.1697,2.1786,2.1809,4.2236,4.2513,4.1977,4.1574,4.1268,4.0278,3.9888,3.9845,3.9568,3.9335,3.9183,3.9028,3.9234,3.9619,3.9195,3.9438,4.0082,3.9973,4.0007,4.0141,4.0458,4.0558,4.0442,4.0756,4.0965,4.1096,4.0965,4.0756,4.0442,3.9674,3.9178,3.8938,3.7859,3.7036,3.6479,3.6571,3.6901,3.7438,3.7796,3.8237,3.8691,3.8424,3.824,3.801,3.7622,3.7219,3.6899,3.7192,3.7196,3.7004,3.6414,3.5627,3.4668,3.327,3.1721,0.0,0.0,0.0,0.0,0.0,0.0,0.0,0.0,0.0,0.0,0.0,2.6464,2.6572,2.5351,2.4591,2.4767,2.2926,2.1734,2.1649,2.0939,2.0468,2.0489,2.0922,2.1324,2.1733,2.2126,2.2199,2.1753,2.1804,2.1573,2.0671,2.0888,2.1016,2.0612,2.0085,1.9758,1.9766,1.9758,1.9763,1.9782,1.9828,1.9946,2.0153,2.0333,2.0476,2.0719,2.0527,2.0435,2.045,2.0292,2.0223,2.0596,2.0658,2.0782,2.0988,2.0883,2.0904,2.1359,2.148,2.148,4.2272,4.2286,4.2212,4.2091,4.1934,4.0547,4.0134,4.0447,4.0405,4.0317,4.024,3.9984,4.0092,4.035,4.002,4.0191,4.077,4.077,4.0558,4.0274,4.0274,4.0166,3.9818,3.9831,3.9946,4.0162,3.9946,3.9666,3.941,3.8865,3.8483,3.814,3.7292,3.6944,3.6906,3.7172,3.7304,3.7277,3.7808,3.822,3.8414,3.8153,3.8012,3.7945,3.7065,3.6531,3.6491,3.6029,3.5845,3.5951,3.5178,3.4435,3.3762,3.2434,3.0955,0.0,2.8328,0.0,0.0,0.0,0.0,0.0,0.0,0.0,0.0,2.6566,2.5993,2.5419,2.4487,2.3848,2.3798,2.1945,2.0806,2.0901,2.0084,1.962,1.9877,1.9957,2.0223,2.0762,2.093,2.1008,2.0814,2.09,2.0895,2.0459,2.0167,2.0029,2.0,1.9976,1.9875,1.9932,2.0143,2.0088,2.0013,1.976,1.965,1.9888,1.9991,1.9956,2.0147,2.0181,2.0132,2.0153,2.0173,2.0173,2.0153,2.018,2.02,2.0283,2.0339,2.0617,2.1381,2.1592,2.1767,4.2271,4.2271,4.1717,4.1163,4.0581,3.9764,3.9721,4.0058,3.9815,3.9395,3.8907,3.9289,3.9473,3.9524,3.9465,3.967,3.9991,3.9991,4.0082,4.0212,4.0225,4.0187,4.0098,4.0111,4.0136,4.0175,4.0124,3.9844,3.9423,3.9321,3.8941,3.8445,3.7822,3.7517,3.7491,0.0,0.0,0.0,3.6936,3.707,3.7109,3.6692,3.6319,3.6088,3.5267,0.0,3.4471,3.415,3.3785,3.3336,3.2978,0.0,0.0,0.0,0.0,0.0,0.0,0.0,0.0,0.0,0.0,0.0,2.487,2.5198,2.5858,2.5695,2.5162,2.4167,2.3173,2.2635,2.2582,2.1063,2.0022,2.0009,1.9601,1.9438,1.9587,1.9835,2.0098,2.0373,2.0667,2.0691,2.0357,2.0413,2.0369,2.0067,1.9928,1.9969,2.0044,1.978,1.9521,1.9527,1.9854,1.9995,1.9915,1.9943,2.001,2.0058,2.0058,2.0126,2.0268,2.0302,2.0336,2.0431,2.0458,2.0395,2.0395,2.056,2.0627,2.0648,2.0736,2.0746,2.0519,2.0478,2.0471,4.1635,0.0,4.1268,4.086,0.0,3.9945,3.9374,3.8903,3.9234,3.9212,3.8892,3.9373,3.9564,3.9577,3.9704,3.9844,3.9984,3.9971,3.9857,3.9678,3.969,3.9563,3.9231,3.9231,3.9231,3.9231,3.8848,3.8375,3.7936,3.7536,3.7082,3.6612,3.6152,3.5947,3.5935,3.5561,3.5752,3.6581,3.6417,3.6375,3.6292,3.5547,3.5084,3.4923,0.0,0.0,0.0,0.0,0.0,0.0,0.0,0.0,0.0,0.0,0.0,2.7122,2.6472,2.577,2.5073,2.4264,2.3795,2.3849,2.3494,2.3611,2.4529,2.4605,2.4101,2.2955,2.2164,2.1718,2.1663,2.0456,1.9615,1.9681,1.9322,1.91,1.9256,1.9412,1.9596,1.9831,2.0065,2.0211,2.0005,2.0151,2.0174,2.0031,2.0112,2.0227,2.0275,2.0071,1.9833,1.9908,2.0166,2.0315,2.0329,2.0444,2.0539,2.0546,2.0546,2.0573,2.0648,2.0661,2.0689,2.0756,2.077,2.077,2.077,2.0831,2.0885,2.0892,2.0946,2.0926,2.0594,2.0546,2.0546,4.0844,4.0636,4.0636,4.0381,3.9936,3.9647,3.8772,3.7549,0.0,0.0,0.0,3.9024,3.9149,3.9161,3.9386,3.9486,3.9486,3.9486,3.9167,3.8668,3.8668,3.8348,3.7836,3.7836,3.7824,3.7836,3.7247,3.6657,3.6178,3.5473,3.4897,3.442,3.4024,3.3816,3.3771,3.3568,3.4282,3.5821,3.5632,3.5431,3.5312,3.4315,3.3751,3.3589,3.2665,3.2167,3.21,3.1662,3.1078,3.0365,2.9932,2.9247,2.835,2.7589,2.6683,2.559,2.5234,2.4749,2.3992,2.3103,2.2638,2.2746,2.2261,2.2277,2.3098,2.3308,2.2963,2.1877,2.1271,2.0949,2.0892,1.9979,1.9395,1.9521,1.9128,1.8963,1.9074,1.9108,1.9283,1.9501,1.9711,1.9793,1.999,2.0051,2.0166,2.0241,2.0417,2.055,2.057,2.0539,2.0465,2.0573,2.0675,2.079,2.0817,2.0878,2.0994,2.0953,2.0973,2.1001,2.1001,2.1001,2.1001,2.0973,2.1001,2.0994,2.0994,2.1014,2.1034,2.1034,2.1062,2.1075,2.1075,2.1075,2.1041,4.0323,3.919,3.919,3.8513,3.7365,3.7265,3.6972,3.6577,3.6309,3.6228,3.6251,3.6506,3.6622,3.6634,3.6669,3.668,3.668,3.668,3.6616,3.6552,3.6552,3.6487,3.6423,3.6358,3.6423,3.6358,3.6294,3.5966,3.5456,3.4768,3.4196,3.3678,3.2908,3.2384,3.2128,3.2085,3.2212,3.2498,3.3545,3.3743,3.2977,3.2588,3.2047,3.1288,3.0658,3.0374,3.0363,3.0034,2.9387,2.8306,2.8137,2.7563,2.6403,2.6032,2.5395,2.4403,2.4139,2.3623,2.2636,2.2078,2.1677,2.1523,2.1684,2.1803,2.1706,2.1901,2.1712,2.1028,2.057,2.0223,2.0223,1.9647,1.9306,1.9267,1.9201,1.925,1.9522,1.9616,1.9664,1.9949,2.0024,2.0092,2.0227,2.0282,2.0397,2.0607,2.0702,2.0831,2.1007,2.1001,2.0919,2.0933,2.0953,2.0967,2.0987,2.098,2.1028,2.1001,2.1021,2.1034,2.1041,2.1041,2.1041,2.1014,2.1034,2.1028,2.1021,2.1102,2.1163,2.119,2.1265,2.1346,2.1346,2.128,2.1285,3.9113,3.8449,3.8449,3.7887,3.696,3.6505,3.6105,3.5804,3.5256,3.5131,3.5352,3.5518,3.5316,3.4994,3.4994,3.4994,3.4982,3.4861,3.4872,3.4971,3.4861,3.4872,3.4982,3.4982,3.4929,3.4918,3.4475,3.4042,3.363,3.2932,3.232,3.2003,3.1494,3.1267,3.1111,3.0793,3.0608,3.0598,3.1656,3.1838,3.1045,3.0474,2.9829,2.905,2.8512,2.8234,2.8292,2.8014,2.7375,2.6094,2.6036,2.5515,2.4246,2.4053,2.3739,2.3097,2.2922,2.2643,2.2092,2.1609,2.11,2.0636,2.0777,2.0843,2.0714,2.1112,2.1095,2.0498,2.0198,2.0111,2.0111,1.9874,1.9691,1.9691,1.9691,1.9746,1.9868,1.9902,1.9983,2.0187,2.0227,2.0282,2.0368,2.0519,2.0607,2.0763,2.0892,2.1089,2.1233,2.1279,2.1231,2.1238,2.1238,2.1238,2.1231,2.1238,2.1238,2.1238,2.1238,2.1238,2.1238,2.1238,2.1231,2.1238,2.1238,2.1238,2.1231,2.1285,2.1333,2.134,2.138,2.1368,2.1375,2.1375,2.1321,3.8089,3.7794,3.7793,3.7375,3.6745,3.5968,3.5494,3.5252,3.4695,3.4467,3.4499,3.4563,3.4207,3.356,3.3366,3.329,3.3269,3.2982,3.2993,3.3269,3.3122,3.3229,3.3464,3.3475,3.3454,3.3326,3.2578,3.2051,3.1697,3.0775,3.0082,2.977,2.9687,2.9687,2.9687,2.9178,2.8928,2.8961,2.9468,2.9506,2.9202,2.8506,2.7732,2.6989,2.6412,2.6138,2.6189,2.5975,2.5419,2.4342,2.4223,2.3688,2.2631,2.2512,2.2328,2.197,2.1865,2.1759,2.1497,2.114,2.0727,2.0263,2.02,2.02,2.02,2.0637,2.0727,2.0236,2.0133,2.0078,2.0133,2.0085,2.0098,2.0098,2.0098,2.0092,2.0146,2.0153,2.0227,2.0383,2.0424,2.0485,2.0621,2.075,2.0831,2.0906,2.1102,2.1306,2.1348,2.1375,2.1375,2.1375,2.1375,2.1355,2.1375,2.1362,2.1355,2.1375,2.1362,2.1348,2.1348,2.1362,2.1368,2.1348,2.1355,2.1348,2.1362,2.1362,2.1362,2.1355,2.1368,2.1448,2.1502,2.1543,2.1436,3.7849,3.7325,3.7136,3.6463,3.5728,3.5366,3.518,3.5094,3.4573,3.3649,3.2745,3.3026,3.2803,3.2143,3.1492,3.1232,3.1157,3.0551,3.0607,3.1157,3.1147,3.1363,3.1729,3.1784,3.1726,3.1435,3.0811,3.0373,3.0103,2.8927,2.7867,2.7074,2.6931,2.7056,2.6993,2.6993,2.6868,2.6868,2.6321,2.6529,2.7426,2.6832,2.6115,2.5272,2.4615,2.4229,2.4274,2.4213,2.3897,2.322,2.3143,2.2843,2.2165,2.2042,2.1803,2.1268,2.1207,2.0982,2.0512,2.0421,2.0426,2.0478,2.0428,2.0435,2.0499,2.0499,2.0446,2.02,2.0119,2.0126,2.0098,2.0119,2.0132,2.0146,2.0139,2.0153,2.0295,2.0309,2.0417,2.0702,2.0716,2.0783,2.0892,2.096,2.1028,2.1136,2.1279,2.1335,2.1362,2.1375,2.1375,2.1375,2.1375,2.1375,2.1375,2.1375,2.1375,2.1375,2.1375,2.1375,2.1375,2.1375,2.1375,2.1375,2.1375,2.1375,2.1389,2.1375,2.1389,2.1436,2.1502,2.1496,2.1625,2.1733,2.172,3.7183,3.6775,3.6666,3.6268,3.565,3.5402,3.523,3.5079,3.4431,3.3471,3.2357,3.2059,3.123,3.0123,2.9797,2.947,2.9068,2.8688,2.8697,2.9059,2.8949,2.8977,2.9162,2.9153,2.905,2.8855,2.8478,2.824,2.8085,2.7479,2.6939,2.6625,2.6616,2.6616,2.6553,2.6176,2.5798,2.5412,2.4781,2.4433,2.4486,2.4667,2.432,2.363,2.3309,2.3183,2.3183,2.3183,2.287,2.2242,2.218,2.1866,2.1174,2.1111,2.0985,2.0734,2.0741,2.0635,2.0451,2.0388,2.0519,2.0668,2.0675,2.0716,2.0804,2.0811,2.0756,2.0641,2.0471,2.0363,2.0363,2.0363,2.0363,2.037,2.0444,2.0519,2.058,2.0668,2.079,2.0892,2.0912,2.0926,2.0994,2.1075,2.1184,2.1313,2.1341,2.1368,2.1375,2.1375,2.1375,2.1375,2.1375,2.1375,2.1375,2.1375,2.1375,2.1375,2.1375,2.1375,2.1375,2.1375,2.1375,2.1375,2.1395,2.1502,2.157,2.1584,2.1591,2.1638,2.1699,2.1726,2.1787,2.1842,2.1808,3.678,3.6608,3.6533,3.6242,3.58,3.5414,3.5143,3.4796,3.4052,3.31,3.2143,3.1495,3.023,2.8767,2.8581,2.8161,2.7487,2.6965,2.6908,2.7159,2.6891,2.6871,2.7153,2.7209,2.7113,2.6866,2.6547,2.6236,2.6049,2.5866,2.5861,2.605,2.605,2.5987,2.5735,2.5327,2.48,2.4103,2.3444,2.2902,2.2583,2.2767,2.2722,2.233,2.2126,2.1999,2.1999,2.1999,2.1809,2.1301,2.1301,2.1047,2.0539,2.0539,2.0539,2.0483,2.0587,2.06,2.0607,2.0577,2.0716,2.0817,2.0838,2.0878,2.0973,2.1001,2.1001,2.0967,2.0797,2.0668,2.0604,2.0668,2.0668,2.0675,2.0777,2.0831,2.0838,2.0939,2.1001,2.1048,2.1062,2.1082,2.1123,2.1211,2.1319,2.1408,2.1368,2.1375,2.1375,2.1375,2.1375,2.1375,2.1375,2.1375,2.1375,2.1375,2.1375,2.1375,2.1375,2.1375,2.1382,2.1395,2.1502,2.155,2.1543,2.1584,2.1692,2.1733,2.1753,2.1848,2.1909,2.1937,2.195,2.1977,2.2011,3.6866,3.6823,3.6597,3.6173,3.5754,3.504,3.4642,3.4334,3.3386,3.2536,3.1911,3.1368,3.0051,2.8163,2.7947,2.7448,2.6643,2.545,2.5179,2.5722,2.5113,2.5346,2.6364,2.6421,2.6328,2.5966,2.5294,2.462,2.3889,2.3795,2.4087,2.4663,2.468,2.4419,2.3937,2.3944,2.3575,2.2951,2.2427,2.2061,2.1939,2.1485,2.1404,2.1612,2.0991,2.0757,2.0687,2.061,2.061,2.0546,2.0623,2.0553,2.0489,2.0489,2.0496,2.0566,2.0682,2.0763,2.0777,2.0878,2.0973,2.0987,2.0987,2.1001,2.1034,2.1048,2.1041,2.1014,2.1007,2.098,2.0973,2.0939,2.0946,2.0946,2.0973,2.0987,2.0987,2.1021,2.1068,2.117,2.1204,2.1258,2.1394,2.1355,2.1441,2.1469,2.1389,2.1389,2.1395,2.1389,2.1389,2.1375,2.1375,2.1375,2.1375,2.1375,2.1375,2.1382,2.1389,2.1389,2.1496,2.1536,2.1611,2.1679,2.174,2.1794,2.1848,2.1882,2.1903,2.1971,2.2052,2.2086,2.2099,2.2228,2.2249,3.6597,3.6154,3.5901,3.5433,3.4771,3.4228,3.3986,3.3815,3.2856,3.2272,3.174,3.0704,2.9503,2.8175,2.7705,2.6671,2.5417,2.4815,2.4485,2.4345,2.4081,2.4122,2.436,2.441,2.4324,2.4111,2.3783,2.3536,2.3282,2.3211,2.3278,2.3401,2.3542,2.3421,2.3161,2.3218,2.2979,2.2341,2.2075,2.178,2.1397,2.113,2.1069,2.1167,2.096,2.0838,2.0831,2.0831,2.0831,2.0831,2.0838,2.0838,2.0831,2.0838,2.0831,2.0838,2.0885,2.0919,2.0926,2.0967,2.1041,2.1123,2.1136,2.119,2.1258,2.1285,2.1279,2.1279,2.1279,2.1285,2.1245,2.1116,2.1001,2.1014,2.1082,2.1136,2.1157,2.1218,2.1306,2.1346,2.136,2.1421,2.1543,2.1584,2.1625,2.1706,2.1726,2.1679,2.1611,2.1591,2.1557,2.1469,2.1375,2.1475,2.1584,2.1489,2.1382,2.1475,2.1496,2.157,2.1618,2.172,2.1794,2.1815,2.1889,2.1957,2.1998,2.2093,2.2099,2.214,2.2228,2.2215,2.2187,2.2303,2.233,3.6024,3.5371,3.5216,3.4693,3.3894,3.3337,3.2893,3.2529,3.1641,3.1138,3.0802,2.985,2.8828,2.8041,2.73,2.6011,2.453,2.4382,2.405,2.3377,2.3133,2.3046,2.3083,2.3017,2.3009,2.2776,2.2522,2.2472,2.2687,2.268,2.2751,2.2848,2.2952,2.2823,2.262,2.2673,2.2435,2.1857,2.1762,2.1601,2.1143,2.1143,2.1143,2.1143,2.1143,2.1089,2.1014,2.1001,2.1001,2.1001,2.1001,2.1001,2.1001,2.1001,2.1001,2.1007,2.1041,2.1068,2.1082,2.1116,2.1211,2.134,2.136,2.1428,2.1564,2.1584,2.1584,2.1584,2.1584,2.1577,2.1543,2.1408,2.1252,2.1177,2.1224,2.1313,2.1353,2.1448,2.153,2.1577,2.1591,2.1638,2.1713,2.1733,2.1781,2.1876,2.1882,2.1835,2.1767,2.1733,2.1713,2.1611,2.1604,2.1645,2.1713,2.1679,2.1645,2.1665,2.1658,2.1713,2.1774,2.1876,2.195,2.1957,2.2004,2.2079,2.2167,2.2269,2.2316,2.2344,2.2323,2.2289,2.2247,2.233,2.2344,3.5251,3.4536,3.4546,3.3843,3.2905,3.2208,3.1405,3.0594,2.9789,2.9553,2.9491,2.8839,2.8318,2.7554,2.6717,2.5424,2.421,2.4007,2.3633,2.2847,2.2197,2.2201,2.2641,2.2587,2.2523,2.2428,2.1687,2.1549,2.2045,2.2096,2.2327,2.2817,2.2839,2.2529,2.1974,2.2116,2.1867,2.1435,2.1399,2.1408,2.1368,2.1421,2.1421,2.1428,2.1435,2.1326,2.1062,2.1041,2.1041,2.1034,2.1028,2.1007,2.1041,2.1041,2.1021,2.1062,2.115,2.1218,2.1245,2.136,2.1509,2.1618,2.1658,2.1699,2.1801,2.1835,2.1835,2.1828,2.1835,2.1855,2.1842,2.1808,2.1699,2.1436,2.1462,2.1523,2.1625,2.1665,2.172,2.1815,2.1835,2.1876,2.1882,2.1889,2.1909,2.1937,2.1943,2.193,2.1896,2.1889,2.1882,2.1855,2.1808,2.1801,2.1848,2.1882,2.1882,2.1889,2.1876,2.1889,2.1923,2.2004,2.2093,2.212,2.2167,2.2166,2.2249,2.2337,2.2371,2.2391,2.2371,2.2378,2.2384,2.2391,2.235,3.3751,3.2974,3.2489,3.1815,3.1034,3.0625,3.0254,2.9972,2.9568,2.9419,2.9254,2.8734,2.799,2.7248,2.6359,2.5171,2.3862,2.3786,2.3209,2.2337,2.1977,2.1956,2.2145,2.2097,2.2083,2.2055,2.1731,2.1635,2.1773,2.1677,2.1646,2.1773,2.1909,2.1763,2.1484,2.1556,2.1499,2.1374,2.1414,2.1368,2.1382,2.1543,2.1597,2.1611,2.1692,2.1692,2.1604,2.1414,2.1313,2.1306,2.1306,2.1306,2.124,2.1306,2.1306,2.1319,2.1448,2.153,2.1543,2.1652,2.1753,2.1808,2.1815,2.1835,2.1876,2.1889,2.1896,2.1889,2.1882,2.1882,2.1882,2.1882,2.1848,2.1753,2.1747,2.1747,2.1801,2.1821,2.1835,2.1869,2.1882,2.1923,2.2011,2.2038,2.2079,2.216,2.2181,2.2154,2.2065,2.2038,2.1984,2.1909,2.1909,2.195,2.2004,2.2045,2.2065,2.2065,2.2059,2.2045,2.2079,2.212,2.2208,2.2283,2.2261,2.2302,2.2378,2.2418,2.2466,2.2486,2.25,2.2493,2.2479,2.2459,2.2439,3.2409,3.1418,3.1001,3.0149,2.9288,2.9097,2.87,2.8251,2.8006,2.7923,2.7783,2.7367,2.686,2.6268,2.5553,2.467,2.3762,2.3475,2.2973,2.2304,2.2147,2.2106,2.2038,2.1923,2.1882,2.1869,2.1794,2.172,2.1665,2.157,2.1448,2.134,2.1328,2.1394,2.1319,2.1448,2.153,2.153,2.1577,2.1604,2.1625,2.1699,2.1747,2.176,2.1835,2.1876,2.1869,2.1699,2.1604,2.1604,2.1604,2.1604,2.1604,2.1604,2.1604,2.1625,2.1686,2.1747,2.176,2.1815,2.1916,2.195,2.1964,2.1998,2.2032,2.2052,2.2052,2.2052,2.2059,2.2052,2.2052,2.2052,2.2052,2.2052,2.1937,2.1923,2.195,2.2018,2.2052,2.2072,2.2065,2.2099,2.2167,2.2201,2.2228,2.2254,2.2337,2.2323,2.2221,2.2194,2.212,2.2072,2.2099,2.2147,2.2181,2.2208,2.2235,2.2235,2.2235,2.2208,2.2215,2.2249,2.2241,2.2391,2.2445,2.252,2.254,2.2595,2.2642,2.2712,2.2712,2.2635,2.2628,2.2601,2.2581,3.1205,3.0007,2.9865,2.894,2.7729,2.7649,2.6999,2.5769,2.557,2.5637,2.5465,2.5516,2.5229,2.4862,2.4433,2.3989,2.3714,2.3214,2.2925,2.2787,2.2635,2.252,2.235,2.212,2.2011,2.1977,2.1923,2.1835,2.1747,2.1699,2.1611,2.1496,2.1496,2.1409,2.1509,2.1618,2.1686,2.1692,2.1801,2.1848,2.1855,2.1889,2.1896,2.1896,2.193,2.1943,2.195,2.1923,2.1896,2.1882,2.1842,2.1835,2.1869,2.1882,2.1848,2.1848,2.1882,2.1896,2.1896,2.1943,2.1998,2.2106,2.2127,2.2181,2.2269,2.2276,2.2283,2.2289,2.2296,2.2241,2.2234,2.2303,2.2303,2.2227,2.2099,2.2025,2.2113,2.2235,2.2276,2.2303,2.233,2.2344,2.2337,2.2337,2.2261,2.2288,2.2364,2.2323,2.2323,2.2303,2.233,2.2303,2.2255,2.2255,2.2269,2.2269,2.2303,2.2371,2.2364,2.2344,2.233,2.2364,2.2439,2.2513,2.2574,2.2649,2.2703,2.2744,2.2784,2.2791,2.2791,2.2798,2.2778,2.2744,2.2703,2.8727,2.8299,2.7158,2.6451,2.6165,2.6093,2.5879,2.5513,2.5404,2.5367,2.5367,2.5416,2.5016,2.4517,2.4189,2.3792,2.3302,2.3089,2.2947,2.2961,2.3029,2.2893,2.2676,2.2472,2.2433,2.2399,2.2154,2.2032,2.1991,2.1876,2.1801,2.1767,2.174,2.1753,2.1781,2.1801,2.1821,2.1828,2.1862,2.1896,2.1848,2.1943,2.2052,2.2059,2.216,2.2208,2.2221,2.2221,2.2099,2.1896,2.1882,2.1882,2.1903,2.1903,2.1909,2.1923,2.1998,2.2052,2.2072,2.2147,2.2228,2.2269,2.2193,2.2296,2.233,2.2344,2.2344,2.2344,2.2344,2.2344,2.2344,2.2274,2.2274,2.233,2.2269,2.2235,2.2269,2.231,2.2344,2.2344,2.2357,2.2405,2.2452,2.2432,2.2405,2.2459,2.2432,2.2371,2.2398,2.2391,2.2418,2.2295,2.2254,2.2261,2.2337,2.2337,2.2378,2.2479,2.2486,2.2452,2.2439,2.2452,2.2567,2.2683,2.2717,2.2778,2.2818,2.2852,2.2893,2.2947,2.2947,2.2947,2.2907,2.2873,2.2812,2.7657,2.7237,2.6022,2.5306,2.5091,2.5019,2.4876,2.4589,2.4517,2.4517,2.4517,2.451,2.4302,2.3929,2.3774,2.3525,2.3097,2.3103,2.3097,2.311,2.3171,2.3076,2.2879,2.2723,2.2692,2.261,2.2384,2.2235,2.2113,2.2018,2.195,2.1882,2.1882,2.1882,2.1876,2.1611,2.1508,2.1446,2.1282,2.1204,2.1207,2.1285,2.1576,2.1748,2.1946,2.1995,2.2212,2.2268,2.2249,2.2113,2.2079,2.2079,2.2079,2.2079,2.2072,2.2079,2.216,2.2208,2.2221,2.2296,2.2268,2.2337,2.2344,2.2344,2.2344,2.2344,2.2344,2.2344,2.2344,2.2344,2.2281,2.2391,2.2459,2.2527,2.2527,2.25,2.2439,2.2493,2.252,2.2527,2.2527,2.2547,2.2642,2.2567,2.2574,2.2608,2.2595,2.2561,2.2547,2.252,2.2506,2.2486,2.2493,2.252,2.2534,2.2534,2.254,2.2628,2.2669,2.2622,2.2608,2.2608,2.2703,2.2818,2.2852,2.2893,2.2947,2.3002,2.3056,2.3097,2.3097,2.3083,2.3049,2.3008,2.2947,2.7166,2.6387,2.5592,2.4876,2.4302,2.423,2.3943,2.3362,2.3362,2.3362,2.3362,2.3219,2.3362,2.3219,2.3342,2.3212,2.3212,2.3198,2.3061,2.299,2.2996,2.2858,2.253,2.2809,2.2751,2.2642,2.2658,2.2405,2.2242,2.2167,2.1997,2.18,2.1753,2.174,2.1466,2.1142,2.0988,2.0895,2.0589,2.048,2.0555,2.0592,2.0845,2.1336,2.1355,2.1487,2.182,2.1975,2.1942,2.2011,2.2212,2.2241,2.2178,2.2123,2.2047,2.1889,2.1813,2.1833,2.1978,2.184,2.1991,2.1853,2.1922,2.206,2.1922,2.1853,2.1784,2.1784,2.2074,2.1913,2.1953,2.2235,2.2405,2.2499,2.2623,2.273,2.2662,2.271,2.2778,2.2778,2.2778,2.2784,2.2798,2.2791,2.2784,2.2778,2.2744,2.2683,2.2676,2.2669,2.2676,2.2696,2.271,2.2744,2.2751,2.2751,2.2757,2.2798,2.2859,2.2852,2.2846,2.2852,2.29,2.2961,2.3008,2.3063,2.313,2.3178,2.3198,2.3198,2.3164,2.3185,2.3198,2.3151,2.3097,2.5521,2.4804,2.4015,2.3578,2.3506,2.3434,2.3369,2.3232,2.3225,2.3232,2.3219,2.3219,2.3219,2.3219,2.3219,2.3219,2.3219,2.3147,2.2931,2.2363,2.2363,2.1918,2.1783,2.2309,2.2876,2.2775,2.2656,2.252,2.2369,2.2116,2.1924,2.1396,2.1308,2.1058,2.0595,2.0563,2.0448,2.0466,2.0361,2.0287,2.0324,2.0336,2.0425,2.0744,2.0778,2.0753,2.0844,2.0757,2.07,2.0948,2.1655,2.1955,2.1576,2.1432,2.1224,2.0878,2.067,2.067,2.0601,2.074,2.0601,2.074,2.0752,2.0532,2.0601,2.0689,2.0683,2.062,2.0695,2.0948,2.1042,2.1515,2.1778,2.1971,2.2404,2.2805,2.2907,2.2839,2.2812,2.2805,2.2805,2.2825,2.294,2.2859,2.2866,2.292,2.2886,2.2798,2.2798,2.2818,2.2846,2.2879,2.2873,2.2893,2.2886,2.2893,2.292,2.294,2.3002,2.3035,2.3029,2.3022,2.3035,2.309,2.3164,2.3212,2.3219,2.3219,2.3212,2.3219,2.3219,2.3219,2.3219,2.3219,2.3219,2.5135,2.4416,2.3616,2.3368,2.3429,2.3436,2.3436,2.3422,2.3354,2.3255,2.3314,2.3259,2.3219,2.3219,2.3219,2.3219,2.3075,2.2794,2.25,2.2075,2.1787,2.1283,2.1133,2.1567,2.2005,2.1914,2.1714,2.1584,2.1487,2.1384,2.101,2.0746,2.0733,2.0613,2.0157,1.9992,1.9906,1.9777,1.956,1.9488,1.954,1.9552,1.9765,2.012,2.0327,2.0593,2.0514,2.0459,2.0422,2.0538,2.1043,2.1214,2.0828,2.0664,2.0463,2.018,2.011,2.011,2.0116,2.011,2.018,2.0053,2.0102,2.0202,2.0233,2.0263,2.0306,2.0318,2.0385,2.0471,2.0593,2.0895,2.1198,2.1351,2.17,2.2031,2.2096,2.2537,2.2988,2.2988,2.3008,2.3035,2.3042,2.2974,2.3002,2.3076,2.3083,2.3015,2.3029,2.3042,2.3035,2.3042,2.3022,2.3022,2.3022,2.3035,2.3063,2.309,2.313,2.3151,2.3151,2.3144,2.3137,2.3178,2.3212,2.3212,2.3219,2.3219,2.3147,2.3147,2.3147,2.3147,2.3147,2.3147,2.3147,2.5007,2.4427,2.3708,2.3565,2.3673,2.3673,2.3666,2.3653,2.3544,2.3483,2.3383,2.332,2.3208,2.3259,2.3225,2.3154,2.2866,2.2428,2.2069,2.1427,2.0995,2.0563,2.0491,2.0467,2.0503,2.0377,2.0682,2.0636,2.0532,2.0257,2.0302,2.0069,2.0078,1.9992,1.9888,1.9554,1.927,1.9134,1.883,1.8595,1.8594,1.8605,1.8892,1.9393,1.9822,2.0073,1.9996,2.002,2.0055,2.0055,1.9972,1.9765,1.9617,1.9731,1.9661,1.9592,1.9187,1.9001,1.8896,1.9158,1.9227,1.9482,1.9437,1.9636,1.9601,1.9437,1.9407,1.9583,1.9547,1.954,2.015,2.0174,2.0371,2.073,2.0845,2.0923,2.1139,2.2069,2.2546,2.2904,2.2793,2.2799,2.3028,2.3151,2.3191,2.3147,2.3147,2.3147,2.3147,2.314,2.3099,2.3151,2.3124,2.3117,2.311,2.311,2.3151,2.3093,2.3212,2.314,2.3147,2.3205,2.3185,2.3198,2.3219,2.3147,2.3075,2.2931,2.2931,2.3082,2.2794,2.2428,2.2572,2.3003,2.3003,2.4375,2.3865,2.3712,2.366,2.368,2.3687,2.37,2.368,2.3666,2.3646,2.3619,2.3483,2.3336,2.3302,2.3266,2.2866,2.2435,2.1997,2.1355,2.0491,2.0058,1.9775,1.9342,1.927,1.9109,1.9286,1.99,2.0447,2.0463,2.0526,1.9918,1.9595,1.9554,1.9283,1.8899,1.8556,1.8551,1.8562,1.8335,1.825,1.8272,1.8355,1.8355,1.8643,1.8854,1.8915,1.8887,1.8743,1.8479,1.7892,1.7736,1.7319,1.7257,1.7887,1.799,1.7693,1.7203,1.7088,1.708,1.6833,1.6702,1.6575,1.6939,1.7227,1.745,1.7258,1.7583,1.7665,1.7514,1.7305,1.7989,1.8632,1.9225,1.9769,2.0202,2.0563,2.0707,2.0995,2.1427,2.1853,2.2075,2.2363,2.2572,2.2644,2.2644,2.2572,2.2572,2.2788,2.2931,2.3003,2.3061,2.3133,2.3205,2.3198,2.3198,2.3191,2.3198,2.3126,2.3147,2.3003,2.3075,2.3147,2.3147,2.2788,2.2859,2.3003,2.2866,2.265,2.2363,2.2291,2.1931,2.1571,2.1931,2.2284,2.2572,2.4314,2.3782,2.3788,2.3836,2.3897,2.391,2.391,2.3897,2.3822,2.3788,2.3748,2.3639,2.3517,2.3377,2.3309,2.2867,2.2094,2.1139,2.0491,1.9775,1.9342,1.8981,1.8625,1.8625,1.862,1.8748,1.9346,1.9637,1.9496,1.9375,1.9264,1.8981,1.8878,1.8704,1.8381,1.8109,1.7941,1.7896,1.7644,1.7458,1.7458,1.7458,1.7458,1.7458,1.7458,1.7386,1.7375,1.7345,1.716,1.6857,1.6746,1.6405,1.6281,1.6161,1.6529,1.6278,1.598,1.5853,1.5905,1.5915,1.5976,1.5991,1.5891,1.6133,1.6438,1.6467,1.6272,1.6439,1.6531,1.6382,1.6864,1.7231,1.7592,1.7886,1.8392,1.8609,1.8681,1.8975,1.9619,2.0341,2.0917,2.1277,2.1715,2.1853,2.1925,2.1997,2.2075,2.2291,2.2572,2.2644,2.265,2.2859,2.2859,2.2859,2.2859,2.2788,2.2788,2.2859,2.2794,2.2644,2.25,2.2428,2.2141,2.1781,2.2075,2.2428,2.2363,2.2003,2.1715,2.1499,2.1211,2.1067,2.1283,2.1571,2.1787,2.4286,2.3938,2.3938,2.4012,2.4114,2.4121,2.4114,2.4094,2.3992,2.3938,2.3917,2.3788,2.3586,2.3266,2.2915,2.2486,2.1653,2.0363,1.9868,1.9516,1.9075,1.8696,1.8658,1.8652,1.8652,1.862,1.8681,1.8499,1.8638,1.8617,1.8419,1.8446,1.8374,1.8258,1.8069,1.7546,1.7375,1.7024,1.6657,1.629,1.629,1.629,1.629,1.629,1.629,1.6368,1.6508,1.6503,1.6286,1.6141,1.5982,1.5891,1.5615,1.5093,1.5058,1.542,1.5459,1.5526,1.5482,1.542,1.5295,1.5299,1.556,1.5731,1.5898,1.5863,1.5915,1.5933,1.5784,1.5852,1.6006,1.6078,1.6223,1.6435,1.6512,1.644,1.6802,1.7163,1.7742,1.8537,1.9475,2.0196,2.0773,2.1283,2.1427,2.1427,2.1499,2.1571,2.1787,2.1859,2.1931,2.2284,2.2428,2.2428,2.2356,2.2284,2.2212,2.2141,2.1997,2.1853,2.1643,2.1499,2.1211,2.1067,2.1067,2.1355,2.1355,2.1283,2.0923,2.0635,2.0563,2.0563,2.0635,2.0779,2.0923,2.4018,2.4094,2.4094,2.4107,2.4121,2.4121,2.4121,2.4121,2.4094,2.4094,2.3918,2.387,2.3413,2.2684,2.1914,2.1137,2.0527,2.0143,1.9619,1.9179,1.9038,1.8775,1.871,1.8772,1.8567,1.8446,1.8419,1.8614,1.8504,1.8483,1.8488,1.8416,1.7901,1.7577,1.7489,1.6787,1.6512,1.644,1.6295,1.6223,1.6146,1.615,1.615,1.6146,1.6146,1.6073,1.6006,1.6006,1.5861,1.5286,1.5213,1.4919,1.4399,1.4182,1.4105,1.4144,1.4175,1.4074,1.4344,1.4421,1.4493,1.4489,1.445,1.4612,1.497,1.5191,1.4996,1.4271,1.4339,1.4702,1.5141,1.5213,1.5576,1.5861,1.5933,1.6006,1.615,1.615,1.6585,1.6802,1.7742,1.9042,1.998,2.0491,2.0923,2.0923,2.0851,2.0851,2.0995,2.1067,2.1283,2.1643,2.1787,2.1781,2.1853,2.1715,2.1637,2.1493,2.1211,2.1067,2.0851,2.0707,2.0779,2.0635,2.0491,2.0346,2.0491,2.0346,2.0064,1.9847,1.9697,1.9775,1.9847,1.9992,2.013,2.406,2.4121,2.4121,2.4121,2.4121,2.4121,2.4121,2.4121,2.4121,2.3822,2.3442,2.3383,2.2865,2.196,2.1013,2.0439,2.0071,1.9715,1.9341,1.9058,1.8979,1.8731,1.8315,1.8221,1.8174,1.7944,1.769,1.7581,1.7923,1.8336,1.8475,1.7964,1.7602,1.7231,1.6802,1.601,1.5721,1.5503,1.5281,1.4992,1.4992,1.4996,1.4996,1.5064,1.5064,1.5064,1.5064,1.4992,1.4847,1.4488,1.4488,1.4343,1.4126,1.4049,1.4049,1.4045,1.3944,1.4012,1.4041,1.3977,1.3981,1.3981,1.4053,1.4194,1.4416,1.4488,1.4416,1.4053,1.4053,1.4198,1.4416,1.4488,1.4629,1.4919,1.5209,1.5064,1.5209,1.5571,1.5721,1.5788,1.6006,1.7091,1.7953,1.8176,1.8464,1.8753,1.8898,1.9186,1.9764,2.0557,2.0779,2.1067,2.1139,2.1067,2.1139,2.1139,2.0989,2.0845,2.0346,2.0202,2.013,2.0064,1.9769,1.9625,1.9336,1.9342,1.9559,1.9559,1.927,1.9053,1.8837,1.9053,1.927,1.9125,1.927,2.4121,2.4121,2.4121,2.4121,2.4121,2.4121,2.4121,2.4121,2.3822,2.3449,2.2926,2.2471,2.1886,2.1211,2.0375,1.9896,1.9879,1.9356,1.9134,1.906,1.8759,1.8384,1.7988,1.7746,1.7479,1.7374,1.6935,1.6901,1.7289,1.7695,1.7685,1.7174,1.6807,1.6517,1.5933,1.5286,1.486,1.483,1.4492,1.4281,1.4204,1.4175,1.4094,1.4082,1.3993,1.3981,1.3981,1.4053,1.4053,1.4053,1.4053,1.4053,1.3981,1.3981,1.3981,1.3977,1.3964,1.3968,1.3977,1.3981,1.3981,1.3981,1.3981,1.4053,1.4053,1.3981,1.3981,1.3981,1.3981,1.3981,1.4053,1.4053,1.4126,1.4194,1.4198,1.3908,1.3836,1.4194,1.4194,1.3904,1.4049,1.4484,1.5132,1.5354,1.5788,1.6368,1.6874,1.738,1.8248,1.9331,1.9331,1.9331,1.9259,1.9259,1.9331,1.9547,1.9764,1.9908,1.9403,1.9048,1.8759,1.847,1.8109,1.8036,1.8186,1.8258,1.847,1.8548,1.862,1.8692,1.8692,1.862,1.8698,1.8548,1.862,2.4121,2.4121,2.4121,2.4121,2.4121,2.4121,2.4121,2.3897,2.33,2.2926,2.2478,2.143,2.0751,2.0353,1.9876,1.9411,1.9358,1.9299,1.9197,1.8973,1.8545,1.8019,1.7526,1.704,1.6709,1.6693,1.6305,1.6374,1.6576,1.6538,1.6594,1.6329,1.5921,1.5449,1.509,1.4685,1.435,1.4327,1.4234,1.4275,1.4181,1.4148,1.4107,1.4087,1.4034,1.3981,1.3981,1.3993,1.3997,1.3997,1.3985,1.3981,1.3981,1.3981,1.3981,1.3981,1.3981,1.3981,1.3981,1.3981,1.3981,1.3981,1.3981,1.3977,1.3763,1.3904,1.3981,1.3763,1.3541,1.3759,1.3832,1.3981,1.3614,1.3686,1.3541,1.3179,1.3033,1.2961,1.2816,1.2162,1.2307,1.2961,1.3179,1.3614,1.4339,1.506,1.6006,1.6585,1.6729,1.7448,1.7231,1.7091,1.6942,1.6874,1.6802,1.7158,1.7881,1.8026,1.7742,1.7308,1.6946,1.6729,1.7024,1.6946,1.7096,1.7241,1.7386,1.7675,1.7969,1.8403,1.8548,1.8548,1.8548,1.8548,1.8548,2.4121,2.4121,2.4121,2.4121,2.4121,2.4121,2.3822,2.3374,2.3001,2.2253,2.1355,2.0301,1.9776,1.9701,1.9552,1.9321,1.9321,1.9321,1.9026,1.8651,1.8191,1.75,1.6866,1.6319,1.6062,1.5836,1.5595,1.5555,1.5798,1.5598,1.5189,1.5042,1.5171,1.4955,1.4662,1.4356,1.4238,1.4189,1.4234,1.4328,1.432,1.423,1.4201,1.4193,1.4181,1.4148,1.4144,1.4091,1.407,1.405,1.4013,1.4001,1.3997,1.3997,1.3997,1.3997,1.3997,1.3997,1.3989,1.3985,1.3981,1.3981,1.3981,1.384,1.3416,1.3259,1.2965,1.2743,1.2674,1.2899,1.3179,1.2888,1.2598,1.2961,1.2888,1.2598,1.2307,1.2162,1.1872,1.1436,1.1581,1.2017,1.2089,1.2089,1.2961,1.3827,1.4847,1.5644,1.5788,1.5933,1.5784,1.5861,1.5861,1.5933,1.5933,1.6078,1.6218,1.615,1.615,1.6006,1.5933,1.629,1.6512,1.629,1.6223,1.644,1.6657,1.6946,1.7458,1.8114,1.8475,1.8548,1.8548,1.8548,1.8548,2.4121,2.4121,2.4121,2.4121,2.4121,2.4121,2.3673,2.2926,2.2627,2.1655,2.0151,1.9552,1.9321,1.9321,1.9321,1.9321,1.9321,1.9246,1.8726,1.8276,1.775,1.6924,1.6021,1.5481,1.5301,1.5104,1.4792,1.4758,1.5092,1.4629,1.4555,1.4704,1.4844,1.4678,1.4468,1.4357,1.4365,1.4369,1.432,1.4328,1.441,1.4307,1.4295,1.4357,1.4332,1.4308,1.4291,1.4181,1.416,1.414,1.4111,1.4075,1.4062,1.4135,1.4135,1.4058,1.4058,1.4131,1.4054,1.403,1.4038,1.4079,1.3713,1.3417,1.3037,1.2668,1.2324,1.1913,1.1837,1.1899,1.2467,1.2162,1.2017,1.238,1.2235,1.1944,1.1581,1.129,1.1072,1.0782,1.0927,1.0782,1.0927,1.1,1.1726,1.2449,1.3106,1.3977,1.4484,1.4625,1.4919,1.506,1.5281,1.5426,1.5571,1.5281,1.5064,1.5136,1.5136,1.5281,1.5354,1.5644,1.5644,1.5281,1.5281,1.5644,1.5861,1.6083,1.6951,1.7969,1.8186,1.8403,1.8548,1.8548,1.8548,2.4121,2.4121,2.4121,2.4121,2.4121,2.4121,2.3598,2.2702,2.1954,2.0831,1.9552,1.9321,1.9321,1.9321,1.9321,1.9321,1.9246,1.9171,1.8726,1.7976,1.7149,1.6397,1.5658,1.5055,1.485,1.4595,1.4524,1.4603,1.4646,1.4562,1.4491,1.4479,1.46,1.4559,1.4353,1.4344,1.4385,1.4397,1.4458,1.4475,1.4462,1.4413,1.4389,1.4373,1.4332,1.4382,1.4299,1.4271,1.425,1.4242,1.4291,1.4271,1.4275,1.4279,1.4283,1.4287,1.4291,1.423,1.4238,1.416,1.4017,1.3972,1.3518,1.3014,1.2745,1.2301,1.168,1.1182,1.1316,1.1502,1.1688,1.1581,1.1508,1.1581,1.1436,1.1145,1.0709,1.0491,1.0273,1.0055,0.9691,0.94,0.9618,0.9909,1.0564,1.1145,1.1581,1.2235,1.3033,1.3396,1.3686,1.3832,1.4045,1.4049,1.4049,1.4049,1.3981,1.4049,1.4049,1.4049,1.4049,1.4049,1.4049,1.4053,1.4122,1.4194,1.4702,1.5141,1.6083,1.7029,1.7892,1.8186,1.8403,1.8475,1.8331,2.4121,2.4121,2.4121,2.4121,2.4121,2.4121,2.3374,2.2029,2.0751,1.9776,1.9402,1.9321,1.9321,1.9321,1.9262,1.9262,1.9187,1.8576,1.8051,1.7304,1.6562,1.5769,1.5115,1.4841,1.4634,1.4679,1.4691,1.4646,1.4677,1.4597,1.4556,1.4532,1.4511,1.4487,1.4446,1.4467,1.4475,1.4475,1.4499,1.4511,1.4511,1.4483,1.4467,1.4467,1.443,1.4409,1.4405,1.4369,1.4344,1.4332,1.4382,1.4349,1.4345,1.4345,1.4336,1.4332,1.4258,1.4064,1.3721,1.3487,1.3463,1.3311,1.3081,1.2418,1.1663,1.1289,1.0826,1.0438,1.0411,1.0595,1.0784,1.0294,1.0209,1.0636,1.0491,1.0055,0.9691,0.9691,0.9618,0.94,0.9036,0.8384,0.8238,0.8529,0.9112,0.9691,1.0127,1.1145,1.2017,1.2162,1.238,1.238,1.2453,1.2453,1.2525,1.2816,1.2888,1.2888,1.267,1.2453,1.2453,1.2743,1.267,1.2816,1.2743,1.267,1.3441,1.4153,1.5055,1.5938,1.6551,1.7143,1.7386,1.753,1.7819,2.4121,2.4046,2.3822,2.3673,2.3748,2.3972,2.315,2.158,2.0076,1.9321,1.9332,1.9365,1.9392,1.9403,1.943,1.9144,1.8993,1.847,1.7487,1.665,1.6125,1.5491,1.4992,1.4699,1.472,1.4781,1.4785,1.4748,1.4695,1.4743,1.4601,1.4532,1.4516,1.4507,1.4503,1.4503,1.4507,1.4507,1.4516,1.4516,1.4516,1.4507,1.4511,1.4507,1.4503,1.4503,1.4499,1.4471,1.443,1.4409,1.4381,1.434,1.434,1.434,1.434,1.4344,1.398,1.3634,1.307,1.2856,1.2678,1.2205,1.2258,1.1811,1.0916,1.0633,1.0161,0.9763,0.9425,0.9696,0.9889,0.9322,0.9436,0.9868,0.9484,0.9049,0.8893,0.8893,0.8529,0.8384,0.8092,0.7437,0.7075,0.7148,0.7585,0.8165,0.8675,0.9764,1.0782,1.1,1.1145,1.129,1.1436,1.1726,1.1872,1.2017,1.1944,1.1726,1.1581,1.1508,1.1799,1.2162,1.1872,1.1647,1.1913,1.2178,1.2513,1.3158,1.3879,1.445,1.4865,1.5476,1.6055,1.657,1.6989,2.4046,2.3972,2.3225,2.2851,2.3001,2.3449,2.2926,2.1505,2.0001,1.9327,1.9337,1.9457,1.9495,1.9533,1.9549,1.9119,1.8421,1.8274,1.7271,1.6359,1.5802,1.5305,1.5015,1.4793,1.4818,1.481,1.4818,1.4842,1.4789,1.4767,1.4605,1.4532,1.4516,1.4516,1.4516,1.4516,1.4516,1.4516,1.4516,1.4516,1.4516,1.4516,1.4516,1.4516,1.4516,1.4516,1.4511,1.4499,1.4499,1.4495,1.4495,1.4499,1.4503,1.4511,1.4511,1.4206,1.3667,1.3069,1.224,1.2014,1.1411,1.0859,1.0648,1.0663,1.0428,0.9805,0.9257,0.9158,0.8978,0.9098,0.9218,0.9097,0.8976,0.8882,0.8559,0.8257,0.8095,0.7801,0.7439,0.7148,0.7,0.6565,0.6419,0.6492,0.6053,0.6709,0.7218,0.7872,0.8818,0.9618,0.9909,1.0418,1.0709,1.1145,1.1218,1.0927,1.1,1.0782,1.1,1.1,1.129,1.129,1.1,1.098,1.1366,1.162,1.1733,1.206,1.261,1.3034,1.3423,1.4239,1.5022,1.5773,1.6205,2.3225,2.315,2.2403,2.2029,2.1954,2.1655,2.1206,2.0681,1.9701,1.9365,1.9457,1.949,1.956,1.956,1.9058,1.8692,1.8003,1.731,1.6616,1.594,1.5505,1.5146,1.4944,1.4887,1.492,1.4957,1.4969,1.4932,1.4859,1.4744,1.4609,1.4528,1.4516,1.4516,1.4516,1.4516,1.4516,1.4516,1.4516,1.4516,1.4516,1.4516,1.4516,1.4516,1.4516,1.4516,1.4516,1.4516,1.4516,1.4516,1.4516,1.4516,1.4516,1.444,1.4361,1.3683,1.3231,1.2778,1.1503,1.0669,1.0065,0.9309,0.8782,0.8782,0.8704,0.8626,0.809,0.8296,0.8275,0.8322,0.8298,0.826,0.8146,0.7968,0.7645,0.7325,0.7164,0.6785,0.6348,0.598,0.5761,0.5397,0.5324,0.4887,0.4668,0.5251,0.5761,0.6198,0.6998,0.7872,0.86,0.9109,0.9327,0.9691,0.9618,0.94,0.9691,0.9909,0.9982,0.9982,0.9909,0.9909,0.9982,1.0176,1.0489,1.0581,1.067,1.1151,1.1792,1.1863,1.2242,1.3113,1.3919,1.4526,1.4999,2.2651,2.2322,2.158,2.1056,2.0681,2.0232,2.0007,1.9926,1.9477,1.9392,1.9506,1.956,1.9495,1.9142,1.8733,1.822,1.7448,1.6763,1.6067,1.5531,1.5196,1.5087,1.4969,1.4981,1.5006,1.505,1.5137,1.5018,1.4936,1.4797,1.4654,1.4524,1.4516,1.4516,1.4516,1.4516,1.4516,1.4516,1.4516,1.4516,1.4516,1.4516,1.4516,1.4516,1.4516,1.4516,1.4516,1.4516,1.4516,1.4516,1.4516,1.4516,1.4365,1.4214,1.3385,1.2631,1.2178,1.1348,1.014,0.9536,0.8856,0.81,0.727,0.6965,0.7116,0.719,0.7341,0.7486,0.7394,0.73,0.7283,0.7188,0.7155,0.7125,0.6795,0.6468,0.6081,0.5771,0.5327,0.4887,0.4448,0.3938,0.3573,0.3209,0.3137,0.3573,0.3865,0.4083,0.5177,0.6488,0.7218,0.7801,0.7874,0.7947,0.7947,0.8092,0.8384,0.8602,0.8384,0.8384,0.8384,0.8524,0.8665,0.9002,0.9476,0.9641,0.9735,1.044,1.1008,1.0937,1.1008,1.1803,1.2456,1.2888,1.3284,2.2116,2.1562,2.0756,2.0001,1.9396,1.9321,1.9407,1.9337,1.9348,1.9414,1.9533,1.9653,1.9307,1.8872,1.8557,1.7665,1.6878,1.6177,1.571,1.5133,1.51,1.5034,1.5038,1.5141,1.505,1.5059,1.5137,1.5038,1.4997,1.4875,1.472,1.4544,1.4556,1.4565,1.4552,1.4548,1.454,1.4516,1.4516,1.4516,1.4516,1.4516,1.4516,1.4516,1.4516,1.4516,1.4516,1.4516,1.4516,1.4516,1.4516,1.4516,1.4064,1.3536,1.2405,1.1654,1.1276,1.0367,0.9309,0.8629,0.8024,0.727,0.6362,0.5679,0.5603,0.583,0.6057,0.583,0.5591,0.5514,0.5504,0.5493,0.5475,0.5377,0.5129,0.4803,0.4555,0.4246,0.394,0.35,0.3063,0.2698,0.2844,0.2552,0.2479,0.2479,0.2625,0.2698,0.3354,0.4885,0.547,0.6127,0.6417,0.6488,0.6781,0.6927,0.7148,0.7221,0.7075,0.7293,0.7655,0.7576,0.7347,0.783,0.8452,0.8635,0.8957,0.9375,0.9581,0.9652,0.9864,1.0577,1.1008,1.1086,1.1827,2.0804,2.0548,1.9887,1.9477,1.9321,1.9321,1.9306,1.9462,1.9462,1.9457,1.9653,1.9696,1.9423,1.8665,1.8073,1.7162,1.6382,1.5762,1.5297,1.5137,1.5141,1.5141,1.5141,1.5141,1.5141,1.5141,1.5133,1.503,1.4965,1.4895,1.4842,1.4728,1.4703,1.4675,1.4622,1.4618,1.4597,1.4556,1.4548,1.4548,1.4544,1.4524,1.4516,1.4516,1.4516,1.4516,1.4516,1.4516,1.4516,1.4516,1.4516,1.4214,1.3611,1.2786,1.1955,1.1125,1.0747,0.9841,0.878,0.7948,0.7268,0.6209,0.5302,0.4468,0.4165,0.4392,0.4315,0.3938,0.3787,0.3787,0.3861,0.3854,0.3847,0.3681,0.359,0.3342,0.3022,0.2714,0.2482,0.2115,0.175,0.175,0.1969,0.1969,0.1969,0.2042,0.2261,0.2334,0.2261,0.3063,0.3136,0.3793,0.4812,0.5104,0.5395,0.5615,0.5761,0.62,0.6271,0.6565,0.6783,0.6777,0.6624,0.6957,0.7361,0.7708,0.7835,0.7519,0.7727,0.817,0.8392,0.8976,0.8679,0.8607,0.9842,1.9845,1.9158,1.8524,1.8196,1.8196,1.8196,1.8338,1.844,1.8421,1.8584,1.8764,1.8996,1.8929,1.8166,1.7391,1.6616,1.584,1.5371,1.5219,1.5141,1.5141,1.5141,1.5141,1.5141,1.5141,1.5141,1.5055,1.5018,1.4944,1.4916,1.4875,1.481,1.4793,1.4773,1.4716,1.4707,1.4687,1.4642,1.4626,1.4626,1.4609,1.4573,1.4524,1.4516,1.4516,1.452,1.4516,1.444,1.4214,1.3913,1.3536,1.2933,1.2333,1.1805,1.1201,1.0596,1.0146,0.9692,0.8402,0.757,0.6816,0.5679,0.4544,0.3862,0.3029,0.3181,0.3029,0.2727,0.2954,0.303,0.303,0.3026,0.3025,0.2942,0.2851,0.2609,0.2072,0.147,0.1244,0.1021,0.0802,0.0802,0.0948,0.0875,0.0,0.0,0.0,0.0,0.0,0.0,0.0,0.1751,0.2917,0.35,0.3646,0.3938,0.4229,0.4741,0.5251,0.5032,0.4959,0.5614,0.5969,0.6099,0.645,0.7031,0.7011,0.641,0.6778,0.7451,0.7302,0.7223,0.6778,0.6484,0.7654,1.917,1.7888,1.7176,1.6919,1.6919,1.6919,1.7056,1.7161,1.719,1.7372,1.754,1.8105,1.7937,1.7363,1.669,1.584,1.5297,1.5219,1.5141,1.5141,1.5141,1.5141,1.5141,1.5141,1.5141,1.5141,1.5137,1.5018,1.4961,1.4952,1.4924,1.4838,1.4822,1.4822,1.481,1.4801,1.4789,1.4756,1.4748,1.4769,1.4716,1.4642,1.4593,1.456,1.4548,1.4548,1.4552,1.4401,1.4099,1.3321,1.2642,1.188,1.1352,1.0974,1.0524,0.9995,0.9919,0.9085,0.8024,0.7646,0.6587,0.5376,0.4316,0.3408,0.2727,0.2121,0.197,0.1894,0.2121,0.2045,0.2045,0.0,0.0,0.0,0.0,0.0,0.0,0.0,0.0,0.0,0.0,0.0,0.0,0.0,0.0,0.0,0.0,0.0,0.0,0.0,0.0,0.0,0.1459,0.1897,0.2115,0.2625,0.3136,0.3209,0.3646,0.3281,0.3209,0.3938,0.4521,0.4957,0.5389,0.5601,0.5748,0.5375,0.5895,0.6188,0.567,0.5151,0.5299,0.5152,0.5672,1.8584,1.7819,1.7176,1.6919,1.6844,1.6844,1.6981,1.7085,1.7114,1.73,1.7163,1.6786,1.6603,1.6538,1.646,1.584,1.5219,1.5141,1.5141,1.5141,1.5141,1.5141,1.5141,1.5141,1.5141,1.5141,1.5141,1.505,1.501,1.5018,1.5026,1.4993,1.4997,1.4969,1.4903,1.4891,1.4875,1.4846,1.4822,1.4822,1.4805,1.4761,1.4748,1.4736,1.4736,1.4736,1.4736,1.4736,1.4157,1.3263,1.1999,1.1226,1.0766,1.0387,1.0006,0.9852,0.97,0.916,0.8404,0.8102,0.7192,0.5983,0.5073,0.4165,0.3182,0.2045,0.1818,0.1364,0.1288,0.0833,0.0,0.0,0.0,0.0,0.0,0.0,0.0,0.0,0.0,0.0,0.0,0.0,0.0,0.0,0.0,0.0,0.0,0.0,0.0,0.0,0.0,0.0,0.0,0.0802,0.1313,0.1897,0.2261,0.2188,0.2188,0.2261,0.2334,0.2479,0.299,0.3719,0.35,0.3351,0.35,0.4156,0.3792,0.3862,0.3353,0.2988,0.3354,0.3719,0.423]},{"header":{"parameterUnit":"m.s-1","parameterCategory":1,"la1":31.0,"la2":29.5877,"lo1":-88.7671,"lo2":-86.6584,"dy":0.0162,"dx":0.0185,"nx":115,"ny":88,"refTime":"2023-04-11T00:00:00:Z","depth":0,"parameterNumber":3,"parameterNumberName":"V-component_of_WINDS"},"data":[0.0,0.0,0.0,0.0,0.0,0.0,0.0,0.0,0.0,0.0,0.0,0.0,0.0,0.0,0.0,0.0,0.0,0.0,0.0,0.0,0.0,0.0,0.0,0.0,0.0,0.0,0.0,0.0,0.0,0.0,0.0,0.0,0.0,0.0,0.0,0.0,0.0,0.0,0.0,0.0,0.0,0.0,0.0,0.0,0.0,0.0,0.0,0.0,0.0,0.0,0.0,0.0,0.0,0.0,0.0,0.0,0.0,0.0,0.0,0.0,0.0,0.0,0.0,0.0,0.0,0.0,0.0,0.0,0.0,0.0,0.0,0.0,0.0,0.0,0.0,0.0,0.0,0.0,0.0,0.0,0.0,0.0,0.0,0.0,0.0,0.0,0.0,0.0,0.0,0.0,0.0,0.0,0.0,0.0,0.0,0.0,0.0,0.0,0.0,0.0,0.0,0.0,0.0,0.0,0.0,0.0,0.0,0.0,0.0,0.0,0.0,0.0,0.0,0.0,0.0,0.0,0.0,0.0,0.0,0.0,0.0,0.0,0.0,0.0,0.0,0.0,0.0,0.0,0.0,0.0,0.0,0.0,0.0,0.0,0.0,0.0,0.0,0.0,0.0,0.0,0.0,0.0,0.0,0.0,0.0,0.0,0.0,0.0,0.0,0.0,0.0,0.0,0.0,0.0,0.0,0.0,0.0,0.0,0.0,0.0,0.0,0.0,0.0,0.0,0.0,0.0,0.0,0.0,0.0,0.0,0.0,0.0,0.0,0.0,0.0,0.0,0.0,0.0,0.0,0.0,0.0,0.0,0.0,0.0,0.0,0.0,0.0,0.0,0.0,0.0,0.0,0.0,0.0,0.0,0.0,0.0,0.0,0.0,0.0,0.0,0.0,0.0,0.0,0.0,0.0,0.0,0.0,0.0,0.0,0.0,0.0,0.0,0.0,0.0,0.0,0.0,0.0,0.0,0.0,0.0,0.0,0.0,0.0,0.0,0.0,0.0,0.0,0.0,0.0,0.0,0.0,0.0,0.0,0.0,0.0,0.0,0.0,0.0,0.0,0.0,0.0,0.0,0.0,0.0,0.0,0.0,0.0,0.0,0.0,0.0,0.0,0.0,0.0,0.0,0.0,0.0,0.0,0.0,0.0,0.0,0.0,0.0,0.0,0.0,0.0,0.0,0.0,0.0,0.0,0.0,0.0,0.0,0.0,0.0,0.0,0.0,0.0,0.0,0.0,0.0,0.0,0.0,0.0,0.0,0.0,0.0,0.0,0.0,0.0,0.0,0.0,0.0,0.0,0.0,0.0,0.0,0.0,0.0,0.0,0.0,0.0,0.0,0.0,0.0,0.0,0.0,0.0,0.0,0.0,0.0,0.0,0.0,0.0,0.0,0.0,0.0,0.0,0.0,0.0,0.0,0.0,0.0,0.0,0.0,0.0,0.0,0.0,0.0,0.0,0.0,0.0,0.0,0.0,0.0,0.0,0.0,0.0,0.0,0.0,0.0,0.0,0.0,0.0,0.0,0.0,0.0,0.0,0.0,0.0,0.0,0.0,0.0,0.0,0.0,0.0,0.0,0.0,0.0,0.0,0.0,0.0,0.0,0.0,0.0,0.0,0.0,0.0,0.0,0.0,0.0,0.0,0.0,0.0,0.0,0.0,0.0,0.0,0.0,0.0,0.0,0.0,0.0,0.0,0.0,0.0,0.0,0.0,0.0,0.0,0.0,0.0,0.0,0.0,0.0,0.0,0.0,0.0,0.0,0.0,0.0,0.0,0.0,0.0,0.0,0.0,0.0,0.0,0.0,0.0,0.0,0.0,0.0,0.0,0.0,0.0,0.0,0.0,0.0,0.0,0.0,0.0,0.0,0.0,0.0,0.0,0.0,0.0,0.0,0.0,0.0,0.0,0.0,0.0,0.0,0.0,0.0,0.0,0.0,0.0,0.0,0.0,0.0,0.0,0.0,0.0,0.0,0.0,0.0,0.0,0.0,0.0,0.0,0.0,0.0,0.0,0.0,0.0,0.0,0.0,0.0,0.0,0.0,0.0,0.0,0.0,0.0,0.0,0.0,0.0,0.0,0.0,0.0,0.0,0.0,0.0,0.0,0.0,0.0,0.0,0.0,0.0,0.0,0.0,0.0,0.0,0.0,0.0,0.0,0.0,0.0,0.0,0.0,0.0,0.0,0.0,0.0,0.0,0.0,0.0,0.0,0.0,0.0,0.0,0.0,0.0,0.0,0.0,0.0,0.0,0.0,0.0,0.0,0.0,0.0,0.0,0.0,0.0,0.0,0.0,0.0,0.0,0.0,0.0,0.0,0.0,0.0,0.0,0.0,0.0,0.0,0.0,0.0,0.0,0.0,0.0,0.0,0.0,0.0,0.0,0.0,0.0,0.0,0.0,0.0,0.0,0.0,0.0,0.0,0.0,0.0,0.0,0.0,0.0,0.0,0.0,0.0,0.0,0.0,0.0,0.0,0.0,0.0,0.0,0.0,0.0,0.0,0.0,0.0,0.0,0.0,0.0,0.0,0.0,0.0,0.0,0.0,0.0,0.0,0.0,0.0,0.0,0.0,0.0,0.0,0.0,0.0,0.0,0.0,0.0,0.0,0.0,0.0,0.0,0.0,0.0,0.0,0.0,0.0,0.0,0.0,0.0,0.0,0.0,0.0,0.0,0.0,0.0,0.0,0.0,0.0,0.0,0.0,0.0,0.0,0.0,0.0,0.0,0.0,0.0,0.0,0.0,0.0,0.0,0.0,0.0,0.0,0.0,0.0,0.0,0.0,0.0,0.0,0.0,0.0,0.0,0.0,0.0,0.0,0.0,0.0,0.0,0.0,0.0,0.0,0.0,0.0,0.0,0.0,0.0,0.0,0.0,0.0,0.0,0.0,0.0,0.0,0.0,0.0,0.0,0.0,0.0,0.0,0.0,0.0,0.0,0.0,0.0,0.0,0.0,0.0,0.0,0.0,0.0,0.0,0.0,0.0,0.0,0.0,0.0,0.0,0.0,0.0,0.0,0.0,0.0,0.0,0.0,0.0,0.0,0.0,0.0,0.0,0.0,0.0,0.0,0.0,0.0,0.0,0.0,0.0,0.0,0.0,0.0,0.0,0.0,0.0,0.0,0.0,0.0,0.0,0.0,0.0,0.0,0.0,0.0,0.0,0.0,0.0,0.0,0.0,0.0,0.0,0.0,0.0,0.0,0.0,0.0,0.0,0.0,0.0,0.0,0.0,0.0,0.0,0.0,0.0,0.0,0.0,0.0,0.0,0.0,0.0,0.0,0.0,0.0,0.0,0.0,0.0,0.0,0.0,0.0,0.0,0.0,0.0,0.0,0.0,0.0,0.0,0.0,0.0,0.0,0.0,0.0,0.0,0.0,0.0,0.0,0.0,0.0,0.0,0.0,0.0,0.0,0.0,0.0,0.0,0.0,0.0,0.0,0.0,0.0,0.0,0.0,0.0,0.0,0.0,0.0,0.0,0.0,0.0,0.0,0.0,0.0,0.0,0.0,0.0,0.0,0.0,0.0,0.0,0.0,0.0,0.0,0.0,0.0,0.0,0.0,0.0,0.0,0.0,0.0,0.0,0.0,0.0,0.0,0.0,0.0,0.0,0.0,0.0,0.0,0.0,0.0,0.0,0.0,0.0,0.0,0.0,0.0,0.0,0.0,0.0,0.0,0.0,0.0,0.0,0.0,0.0,0.0,0.0,0.0,0.0,0.0,0.0,0.0,0.0,0.0,0.0,0.0,0.0,0.0,0.0,0.0,0.0,0.0,0.0,0.0,0.0,0.0,0.0,0.0,0.0,0.0,0.0,0.0,0.0,0.0,0.0,0.0,0.0,0.0,0.0,0.0,0.0,0.0,0.0,0.0,0.0,0.0,0.0,0.0,0.0,0.0,0.0,0.0,0.0,0.0,0.0,0.0,0.0,0.0,0.0,0.0,0.0,0.0,0.0,0.0,0.0,0.0,0.0,0.0,0.0,0.0,0.0,0.0,0.0,0.0,0.0,0.0,0.0,0.0,0.0,0.0,0.0,0.0,0.0,0.0,0.0,0.0,0.0,0.0,0.0,0.0,0.0,0.0,0.0,0.0,0.0,0.0,0.0,0.0,0.0,0.0,0.0,0.0,0.0,0.0,0.0,0.0,0.0,0.0,0.0,0.0,0.0,0.0,0.0,0.0,0.0,0.0,0.0,0.0,0.0,0.0,0.0,0.0,0.0,0.0,0.0,0.0,0.0,0.0,0.0,0.0,0.0,0.0,0.0,5.1249,0.0,0.0,0.0,0.0,0.0,0.0,0.0,0.0,0.0,0.0,0.0,0.0,0.0,0.0,0.0,0.0,0.0,0.0,0.0,0.0,0.0,0.0,0.0,0.0,0.0,0.0,0.0,0.0,0.0,0.0,0.0,0.0,0.0,0.0,0.0,0.0,0.0,0.0,0.0,0.0,0.0,0.0,0.0,0.0,0.0,0.0,0.0,0.0,0.0,0.0,0.0,0.0,0.0,0.0,0.0,0.0,0.0,0.0,0.0,0.0,0.0,0.0,0.0,0.0,0.0,0.0,0.0,0.0,0.0,0.0,0.0,0.0,0.0,0.0,0.0,0.0,0.0,0.0,0.0,0.0,0.0,0.0,0.0,0.0,0.0,0.0,0.0,0.0,0.0,0.0,0.0,0.0,0.0,0.0,0.0,0.0,0.0,0.0,0.0,0.0,0.0,0.0,0.0,0.0,0.0,0.0,0.0,0.0,0.0,0.0,4.5945,4.7605,4.865,5.0051,5.1919,0.0,0.0,0.0,0.0,0.0,0.0,0.0,0.0,0.0,0.0,0.0,0.0,0.0,0.0,0.0,0.0,0.0,0.0,0.0,0.0,0.0,0.0,0.0,0.0,0.0,0.0,0.0,0.0,0.0,0.0,0.0,0.0,0.0,0.0,0.0,0.0,0.0,0.0,0.0,0.0,0.0,0.0,0.0,0.0,0.0,0.0,0.0,0.0,0.0,0.0,0.0,0.0,0.0,0.0,0.0,0.0,0.0,0.0,0.0,0.0,0.0,0.0,0.0,0.0,0.0,0.0,0.0,0.0,0.0,0.0,0.0,0.0,0.0,0.0,0.0,0.0,0.0,0.0,0.0,0.0,0.0,0.0,0.0,0.0,0.0,0.0,0.0,0.0,0.0,0.0,0.0,0.0,0.0,0.0,0.0,0.0,0.0,0.0,0.0,0.0,0.0,0.0,0.0,0.0,0.0,0.0,0.0,0.0,0.0,0.0,0.0,0.0,4.9313,5.0904,5.2963,0.0,0.0,0.0,0.0,0.0,0.0,0.0,0.0,0.0,0.0,0.0,0.0,0.0,0.0,0.0,0.0,0.0,0.0,0.0,0.0,0.0,0.0,0.0,0.0,0.0,0.0,0.0,0.0,0.0,0.0,0.0,0.0,0.0,0.0,0.0,0.0,0.0,0.0,0.0,0.0,0.0,0.0,0.0,0.0,0.0,0.0,0.0,0.0,0.0,0.0,0.0,0.0,0.0,0.0,0.0,0.0,0.0,0.0,0.0,0.0,0.0,0.0,0.0,0.0,0.0,0.0,0.0,0.0,0.0,0.0,0.0,0.0,0.0,0.0,0.0,0.0,0.0,0.0,0.0,0.0,0.0,0.0,0.0,0.0,0.0,0.0,0.0,0.0,0.0,0.0,0.0,0.0,0.0,0.0,0.0,0.0,0.0,0.0,0.0,0.0,0.0,0.0,0.0,0.0,0.0,0.0,0.0,0.0,0.0,0.0,4.6413,4.8744,5.0206,0.0,5.5294,0.0,0.0,0.0,0.0,0.0,0.0,0.0,0.0,0.0,0.0,0.0,0.0,0.0,0.0,0.0,0.0,0.0,0.0,0.0,0.0,0.0,0.0,0.0,0.0,0.0,0.0,0.0,0.0,0.0,0.0,0.0,0.0,0.0,0.0,0.0,0.0,0.0,0.0,0.0,0.0,0.0,0.0,0.0,0.0,0.0,0.0,0.0,0.0,0.0,0.0,0.0,0.0,0.0,0.0,0.0,0.0,0.0,0.0,0.0,0.0,0.0,0.0,0.0,0.0,0.0,0.0,0.0,0.0,0.0,0.0,0.0,0.0,0.0,0.0,0.0,0.0,0.0,0.0,0.0,0.0,0.0,0.0,0.0,0.0,0.0,0.0,0.0,0.0,0.0,0.0,0.0,0.0,0.0,0.0,0.0,0.0,0.0,0.0,0.0,0.0,0.0,0.0,0.0,0.0,0.0,0.0,0.0,0.0,0.0,0.0,4.6835,4.9006,5.1439,5.35,0.0,0.0,0.0,0.0,0.0,0.0,0.0,0.0,0.0,0.0,0.0,0.0,0.0,0.0,0.0,0.0,0.0,0.0,0.0,0.0,0.0,0.0,0.0,0.0,0.0,0.0,0.0,0.0,0.0,0.0,0.0,0.0,0.0,0.0,0.0,0.0,0.0,0.0,0.0,0.0,0.0,0.0,0.0,0.0,0.0,0.0,0.0,0.0,0.0,0.0,0.0,0.0,0.0,0.0,0.0,0.0,0.0,0.0,0.0,0.0,0.0,0.0,0.0,0.0,0.0,0.0,0.0,0.0,0.0,0.0,0.0,0.0,0.0,0.0,0.0,0.0,0.0,0.0,0.0,0.0,0.0,0.0,0.0,0.0,0.0,0.0,0.0,0.0,0.0,0.0,0.0,0.0,0.0,0.0,0.0,0.0,0.0,0.0,0.0,0.0,0.0,0.0,0.0,0.0,0.0,0.0,0.0,0.0,0.0,0.0,4.5726,4.7349,4.9835,5.2324,5.4092,5.5111,0.0,0.0,0.0,0.0,0.0,0.0,0.0,0.0,0.0,0.0,0.0,0.0,0.0,0.0,0.0,0.0,0.0,0.0,0.0,0.0,0.0,0.0,0.0,0.0,0.0,0.0,0.0,0.0,0.0,0.0,0.0,0.0,0.0,0.0,0.0,0.0,0.0,0.0,0.0,0.0,0.0,0.0,0.0,0.0,0.0,0.0,0.0,0.0,0.0,0.0,0.0,0.0,0.0,0.0,0.0,0.0,0.0,0.0,0.0,0.0,0.0,0.0,0.0,0.0,0.0,0.0,0.0,0.0,0.0,0.0,0.0,0.0,0.0,0.0,0.0,0.0,0.0,0.0,0.0,0.0,0.0,0.0,0.0,0.0,0.0,0.0,0.0,0.0,0.0,0.0,0.0,0.0,0.0,0.0,0.0,0.0,0.0,0.0,0.0,0.0,0.0,0.0,0.0,0.0,0.0,0.0,0.0,0.0,4.4691,4.5769,4.8035,5.1493,5.2629,5.3957,0.0,0.0,0.0,0.0,0.0,0.0,0.0,0.0,0.0,0.0,0.0,0.0,0.0,0.0,0.0,0.0,0.0,0.0,0.0,0.0,0.0,0.0,0.0,0.0,0.0,0.0,0.0,0.0,0.0,0.0,0.0,0.0,0.0,0.0,0.0,0.0,0.0,0.0,0.0,0.0,0.0,0.0,0.0,0.0,0.0,0.0,0.0,0.0,0.0,0.0,0.0,0.0,0.0,0.0,0.0,0.0,0.0,0.0,0.0,0.0,0.0,0.0,0.0,0.0,0.0,0.0,0.0,0.0,0.0,0.0,0.0,0.0,0.0,0.0,0.0,0.0,0.0,0.0,0.0,0.0,0.0,0.0,0.0,0.0,0.0,0.0,0.0,0.0,0.0,0.0,0.0,0.0,0.0,0.0,0.0,0.0,0.0,0.0,0.0,0.0,0.0,0.0,0.0,0.0,0.0,0.0,0.0,0.0,0.0,4.4918,4.6775,4.8747,5.083,5.2041,5.3365,0.0,0.0,0.0,0.0,0.0,0.0,0.0,0.0,0.0,0.0,0.0,0.0,0.0,0.0,0.0,0.0,0.0,0.0,0.0,0.0,0.0,0.0,0.0,0.0,0.0,0.0,0.0,0.0,0.0,0.0,0.0,0.0,0.0,0.0,0.0,0.0,0.0,0.0,0.0,0.0,0.0,0.0,0.0,0.0,0.0,0.0,0.0,0.0,0.0,0.0,0.0,0.0,0.0,0.0,0.0,0.0,0.0,0.0,0.0,0.0,0.0,0.0,0.0,0.0,0.0,0.0,0.0,0.0,0.0,0.0,0.0,0.0,0.0,0.0,0.0,0.0,0.0,0.0,0.0,0.0,0.0,0.0,0.0,0.0,0.0,0.0,0.0,0.0,0.0,0.0,0.0,0.0,0.0,0.0,0.0,0.0,0.0,0.0,0.0,0.0,0.0,0.0,0.0,0.0,0.0,0.0,0.0,0.0,0.0,4.601,0.0,4.9642,5.0886,5.2159,5.3485,0.0,0.0,0.0,0.0,0.0,0.0,0.0,0.0,0.0,0.0,0.0,0.0,0.0,0.0,0.0,0.0,0.0,0.0,0.0,0.0,0.0,0.0,0.0,0.0,0.0,0.0,0.0,0.0,0.0,0.0,0.0,0.0,0.0,0.0,0.0,0.0,0.0,0.0,0.0,0.0,0.0,0.0,0.0,0.0,0.0,0.0,0.0,0.0,0.0,0.0,0.0,0.0,0.0,0.0,0.0,0.0,0.0,0.0,0.0,0.0,0.0,0.0,0.0,0.0,0.0,0.0,0.0,0.0,0.0,0.0,0.0,0.0,0.0,0.0,0.0,0.0,0.0,0.0,0.0,0.0,0.0,0.0,0.0,0.0,0.0,0.0,0.0,0.0,0.0,0.0,0.0,0.0,0.0,0.0,0.0,0.0,0.0,0.0,0.0,0.0,0.0,0.0,0.0,0.0,0.0,0.0,0.0,0.0,4.6816,4.8127,4.9379,5.0708,5.1997,5.3197,5.4371,0.0,0.0,0.0,0.0,0.0,0.0,0.0,0.0,0.0,0.0,0.0,0.0,0.0,0.0,0.0,0.0,0.0,0.0,0.0,0.0,0.0,0.0,0.0,0.0,0.0,0.0,0.0,0.0,0.0,0.0,0.0,0.0,0.0,0.0,0.0,0.0,0.0,0.0,0.0,0.0,0.0,0.0,0.0,0.0,0.0,0.0,0.0,0.0,0.0,0.0,0.0,0.0,0.0,0.0,0.0,0.0,0.0,0.0,0.0,0.0,0.0,0.0,0.0,0.0,0.0,0.0,0.0,0.0,0.0,0.0,0.0,0.0,0.0,0.0,0.0,0.0,0.0,0.0,0.0,0.0,0.0,0.0,0.0,0.0,0.0,0.0,0.0,0.0,0.0,0.0,0.0,0.0,0.0,0.0,0.0,0.0,0.0,0.0,0.0,0.0,0.0,0.0,0.0,0.0,0.0,0.0,0.0,0.0,0.0,5.0546,5.1225,5.2443,5.4198,5.4416,5.5057,0.0,0.0,0.0,0.0,0.0,0.0,0.0,0.0,0.0,0.0,0.0,0.0,0.0,0.0,0.0,0.0,0.0,0.0,0.0,0.0,0.0,0.0,0.0,0.0,0.0,0.0,0.0,0.0,0.0,0.0,0.0,0.0,0.0,0.0,0.0,0.0,0.0,0.0,0.0,0.0,0.0,0.0,0.0,0.0,0.0,0.0,0.0,0.0,0.0,0.0,0.0,0.0,0.0,0.0,0.0,0.0,0.0,0.0,0.0,0.0,0.0,0.0,0.0,0.0,0.0,0.0,0.0,0.0,0.0,0.0,0.0,0.0,0.0,0.0,0.0,0.0,0.0,0.0,0.0,0.0,0.0,0.0,0.0,0.0,0.0,0.0,0.0,0.0,0.0,0.0,0.0,0.0,0.0,0.0,0.0,0.0,0.0,0.0,0.0,0.0,0.0,0.0,0.0,0.0,0.0,0.0,0.0,0.0,0.0,5.5908,5.4884,5.5083,5.6701,5.6721,5.6991,5.7527,0.0,0.0,0.0,0.0,0.0,0.0,0.0,0.0,0.0,0.0,0.0,0.0,0.0,0.0,0.0,0.0,0.0,0.0,0.0,0.0,0.0,0.0,0.0,0.0,0.0,0.0,0.0,0.0,0.0,0.0,0.0,0.0,0.0,0.0,0.0,0.0,0.0,0.0,0.0,0.0,0.0,0.0,0.0,0.0,0.0,0.0,0.0,0.0,0.0,0.0,0.0,0.0,0.0,0.0,0.0,0.0,0.0,0.0,0.0,0.0,0.0,0.0,0.0,0.0,0.0,0.0,0.0,0.0,0.0,0.0,0.0,0.0,0.0,0.0,0.0,0.0,0.0,0.0,0.0,0.0,0.0,0.0,0.0,0.0,0.0,0.0,0.0,0.0,0.0,0.0,0.0,0.0,0.0,0.0,0.0,0.0,0.0,0.0,0.0,0.0,0.0,0.0,0.0,0.0,0.0,0.0,0.0,0.0,6.3656,6.0218,5.8796,5.9642,6.0024,5.9946,0.0,0.0,0.0,0.0,0.0,0.0,0.0,0.0,0.0,0.0,0.0,0.0,0.0,0.0,0.0,0.0,0.0,0.0,0.0,0.0,0.0,0.0,0.0,0.0,0.0,0.0,0.0,0.0,0.0,0.0,0.0,0.0,0.0,0.0,0.0,0.0,0.0,0.0,0.0,0.0,0.0,0.0,0.0,0.0,0.0,0.0,0.0,0.0,0.0,0.0,0.0,0.0,0.0,0.0,0.0,0.0,0.0,0.0,0.0,0.0,0.0,0.0,0.0,0.0,0.0,0.0,0.0,0.0,0.0,0.0,0.0,0.0,0.0,0.0,0.0,0.0,0.0,0.0,0.0,0.0,0.0,0.0,0.0,0.0,0.0,0.0,0.0,0.0,0.0,0.0,0.0,0.0,0.0,0.0,0.0,0.0,0.0,0.0,0.0,0.0,0.0,0.0,0.0,0.0,0.0,0.0,0.0,0.0,0.0,6.7179,6.7486,6.6737,6.5014,6.4184,6.3256,0.0,0.0,0.0,0.0,0.0,0.0,0.0,0.0,0.0,0.0,0.0,0.0,0.0,0.0,0.0,0.0,0.0,0.0,0.0,0.0,0.0,0.0,0.0,0.0,0.0,0.0,0.0,0.0,0.0,0.0,0.0,0.0,0.0,0.0,0.0,0.0,0.0,0.0,0.0,0.0,0.0,0.0,0.0,0.0,0.0,0.0,0.0,0.0,0.0,0.0,0.0,0.0,0.0,0.0,0.0,0.0,0.0,0.0,0.0,0.0,0.0,0.0,0.0,0.0,0.0,0.0,0.0,0.0,0.0,0.0,0.0,0.0,0.0,0.0,0.0,0.0,0.0,0.0,0.0,0.0,0.0,0.0,0.0,0.0,0.0,0.0,0.0,0.0,0.0,0.0,0.0,0.0,0.0,0.0,0.0,0.0,0.0,0.0,0.0,0.0,0.0,0.0,0.0,0.0,0.0,0.0,0.0,0.0,6.7128,7.1655,7.3488,7.3668,7.2083,6.8693,6.6112,0.0,0.0,0.0,0.0,0.0,0.0,0.0,0.0,0.0,0.0,0.0,0.0,0.0,0.0,0.0,0.0,0.0,0.0,0.0,0.0,0.0,0.0,0.0,0.0,0.0,0.0,0.0,0.0,0.0,0.0,0.0,0.0,0.0,0.0,0.0,0.0,0.0,0.0,0.0,0.0,0.0,0.0,0.0,0.0,0.0,0.0,0.0,0.0,0.0,0.0,0.0,0.0,0.0,0.0,0.0,0.0,0.0,0.0,0.0,0.0,0.0,0.0,0.0,0.0,0.0,0.0,0.0,0.0,0.0,0.0,0.0,0.0,0.0,0.0,0.0,0.0,0.0,0.0,0.0,0.0,0.0,0.0,0.0,0.0,0.0,0.0,0.0,0.0,0.0,0.0,0.0,0.0,0.0,0.0,0.0,0.0,0.0,0.0,0.0,0.0,0.0,0.0,0.0,0.0,0.0,0.0,0.0,0.0,7.1223,7.6152,7.8351,7.9405,7.926,7.3312,6.8895,0.0,0.0,0.0,0.0,0.0,0.0,0.0,0.0,0.0,0.0,0.0,0.0,0.0,0.0,0.0,0.0,0.0,0.0,0.0,0.0,0.0,0.0,0.0,0.0,0.0,0.0,0.0,0.0,0.0,0.0,0.0,0.0,0.0,0.0,0.0,0.0,0.0,0.0,0.0,0.0,0.0,0.0,0.0,0.0,0.0,0.0,0.0,0.0,0.0,0.0,0.0,0.0,0.0,0.0,0.0,0.0,0.0,0.0,0.0,0.0,0.0,0.0,0.0,0.0,0.0,0.0,0.0,0.0,0.0,0.0,0.0,0.0,0.0,0.0,0.0,0.0,0.0,0.0,0.0,0.0,0.0,0.0,0.0,0.0,0.0,0.0,0.0,0.0,0.0,0.0,0.0,0.0,0.0,0.0,0.0,0.0,0.0,0.0,0.0,0.0,0.0,0.0,0.0,0.0,0.0,0.0,0.0,0.0,7.473,7.9164,8.1214,8.2223,8.2223,7.7089,7.2966,0.0,0.0,0.0,0.0,0.0,0.0,0.0,0.0,0.0,0.0,0.0,0.0,0.0,0.0,0.0,0.0,0.0,0.0,0.0,0.0,0.0,0.0,0.0,0.0,0.0,0.0,0.0,0.0,0.0,0.0,0.0,0.0,0.0,0.0,0.0,0.0,0.0,0.0,0.0,0.0,0.0,0.0,0.0,0.0,0.0,0.0,0.0,0.0,5.3699,0.0,0.0,0.0,0.0,0.0,0.0,0.0,0.0,0.0,0.0,0.0,0.0,0.0,0.0,0.0,0.0,0.0,0.0,0.0,0.0,0.0,0.0,0.0,0.0,0.0,0.0,0.0,0.0,0.0,0.0,0.0,0.0,0.0,0.0,0.0,0.0,0.0,0.0,0.0,0.0,0.0,0.0,0.0,0.0,0.0,0.0,0.0,0.0,0.0,0.0,0.0,0.0,0.0,0.0,0.0,0.0,0.0,0.0,0.0,7.7844,8.2014,8.3971,8.4767,8.4237,7.9995,7.5769,0.0,0.0,0.0,0.0,0.0,0.0,0.0,0.0,0.0,0.0,0.0,0.0,0.0,0.0,0.0,0.0,0.0,0.0,0.0,0.0,0.0,0.0,0.0,0.0,0.0,0.0,0.0,0.0,0.0,0.0,0.0,0.0,0.0,0.0,0.0,0.0,0.0,0.0,0.0,0.0,0.0,0.0,0.0,0.0,0.0,0.0,0.0,0.0,0.0,0.0,0.0,0.0,0.0,0.0,0.0,0.0,0.0,0.0,0.0,0.0,0.0,0.0,0.0,0.0,0.0,0.0,0.0,0.0,0.0,0.0,0.0,0.0,0.0,0.0,0.0,0.0,0.0,0.0,0.0,0.0,0.0,0.0,0.0,0.0,0.0,0.0,0.0,0.0,0.0,0.0,0.0,0.0,0.0,0.0,0.0,0.0,0.0,0.0,0.0,0.0,0.0,0.0,0.0,0.0,0.0,0.0,0.0,7.6024,8.0689,8.4754,8.6505,8.6995,8.6114,8.2276,7.7855,7.301,0.0,0.0,0.0,0.0,0.0,0.0,0.0,0.0,0.0,0.0,0.0,0.0,0.0,0.0,0.0,0.0,0.0,0.0,0.0,0.0,0.0,0.0,0.0,0.0,0.0,0.0,0.0,0.0,0.0,0.0,0.0,0.0,0.0,0.0,0.0,0.0,0.0,0.0,5.3687,5.5832,0.0,0.0,0.0,0.0,0.0,0.0,0.0,0.0,5.9123,0.0,0.0,0.0,0.0,0.0,0.0,0.0,0.0,0.0,0.0,0.0,0.0,0.0,0.0,0.0,0.0,0.0,0.0,0.0,0.0,0.0,0.0,0.0,0.0,0.0,0.0,0.0,0.0,0.0,0.0,0.0,0.0,0.0,0.0,0.0,0.0,0.0,0.0,0.0,0.0,0.0,0.0,0.0,0.0,0.0,0.0,0.0,0.0,0.0,0.0,0.0,0.0,0.0,0.0,0.0,0.0,7.2753,7.8402,8.3324,8.7456,8.8501,8.8629,8.7729,8.3911,7.9507,7.461,0.0,0.0,0.0,0.0,0.0,0.0,0.0,0.0,0.0,0.0,0.0,0.0,0.0,0.0,0.0,0.0,0.0,0.0,0.0,0.0,0.0,0.0,0.0,0.0,0.0,0.0,0.0,0.0,0.0,0.0,0.0,0.0,0.0,0.0,0.0,0.0,0.0,0.0,0.0,5.9163,6.0578,0.0,0.0,0.0,0.0,0.0,0.0,0.0,0.0,6.3142,0.0,0.0,0.0,0.0,0.0,0.0,0.0,0.0,0.0,0.0,0.0,0.0,0.0,0.0,0.0,0.0,0.0,0.0,0.0,0.0,0.0,0.0,0.0,0.0,0.0,0.0,0.0,0.0,0.0,0.0,0.0,0.0,0.0,0.0,0.0,0.0,0.0,0.0,0.0,0.0,0.0,0.0,0.0,0.0,0.0,0.0,0.0,0.0,0.0,0.0,0.0,0.0,0.0,0.0,0.0,7.5786,8.1216,8.5935,8.9931,9.0482,9.0262,8.9381,8.4756,8.0094,0.0,0.0,0.0,0.0,0.0,0.0,0.0,0.0,0.0,0.0,0.0,0.0,0.0,0.0,0.0,0.0,0.0,0.0,0.0,0.0,0.0,0.0,0.0,0.0,0.0,0.0,0.0,0.0,0.0,0.0,0.0,0.0,0.0,0.0,0.0,0.0,0.0,0.0,0.0,0.0,6.1581,6.3046,6.3745,0.0,0.0,0.0,0.0,0.0,0.0,6.7247,6.6381,0.0,0.0,0.0,0.0,0.0,0.0,0.0,0.0,0.0,0.0,0.0,0.0,0.0,0.0,0.0,0.0,0.0,0.0,0.0,0.0,0.0,0.0,0.0,0.0,0.0,0.0,0.0,0.0,0.0,0.0,0.0,0.0,0.0,0.0,0.0,0.0,0.0,0.0,0.0,0.0,0.0,0.0,0.0,0.0,0.0,0.0,0.0,0.0,0.0,0.0,0.0,0.0,0.0,0.0,0.0,7.873,8.3751,8.8243,9.2189,9.2464,9.1987,9.0812,8.571,8.0865,0.0,0.0,0.0,0.0,0.0,0.0,0.0,0.0,0.0,0.0,0.0,0.0,0.0,0.0,0.0,0.0,0.0,0.0,0.0,0.0,0.0,0.0,0.0,0.0,0.0,0.0,0.0,0.0,0.0,0.0,0.0,0.0,0.0,0.0,0.0,0.0,0.0,0.0,0.0,0.0,0.0,6.5372,6.6815,6.7729,0.0,0.0,0.0,0.0,7.1182,7.0493,0.0,0.0,0.0,0.0,0.0,0.0,0.0,0.0,0.0,0.0,0.0,0.0,0.0,0.0,0.0,0.0,0.0,0.0,0.0,0.0,0.0,0.0,0.0,0.0,0.0,0.0,0.0,0.0,0.0,0.0,0.0,0.0,0.0,0.0,0.0,0.0,0.0,0.0,0.0,0.0,0.0,0.0,0.0,0.0,0.0,0.0,0.0,0.0,0.0,0.0,0.0,0.0,0.0,0.0,0.0,0.0,8.056,8.5436,8.9895,9.3804,9.4703,9.4006,9.1785,8.7636,8.2774,0.0,0.0,0.0,0.0,0.0,0.0,0.0,0.0,0.0,0.0,0.0,0.0,0.0,0.0,0.0,0.0,0.0,0.0,0.0,0.0,0.0,0.0,0.0,0.0,0.0,0.0,0.0,0.0,0.0,0.0,0.0,0.0,0.0,0.0,0.0,0.0,0.0,0.0,0.0,0.0,0.0,6.783,6.9254,7.0762,7.224,0.0,0.0,7.4013,7.5596,7.4563,0.0,0.0,0.0,0.0,0.0,0.0,0.0,0.0,0.0,0.0,0.0,0.0,0.0,0.0,0.0,0.0,0.0,0.0,0.0,0.0,0.0,0.0,0.0,0.0,0.0,0.0,0.0,0.0,0.0,0.0,0.0,0.0,0.0,0.0,0.0,0.0,0.0,0.0,0.0,0.0,0.0,0.0,0.0,0.0,0.0,0.0,0.0,0.0,0.0,0.0,0.0,0.0,0.0,0.0,0.0,7.6371,8.2941,8.828,9.2941,9.6832,9.6906,9.6135,9.463,8.9344,8.4058,0.0,0.0,0.0,0.0,0.0,0.0,0.0,0.0,0.0,0.0,0.0,0.0,0.0,0.0,0.0,0.0,0.0,0.0,0.0,0.0,0.0,0.0,0.0,0.0,0.0,0.0,0.0,0.0,0.0,0.0,0.0,0.0,0.0,0.0,0.0,0.0,0.0,0.0,0.0,0.0,0.0,0.0,7.2409,7.4535,0.0,0.0,0.0,7.8634,7.8889,0.0,0.0,0.0,0.0,0.0,0.0,0.0,0.0,0.0,0.0,0.0,0.0,0.0,0.0,0.0,0.0,0.0,0.0,0.0,0.0,0.0,0.0,0.0,0.0,0.0,0.0,0.0,0.0,0.0,0.0,0.0,0.0,0.0,0.0,0.0,0.0,0.0,0.0,0.0,0.0,0.0,0.0,0.0,0.0,0.0,0.0,0.0,0.0,0.0,0.0,0.0,0.0,0.0,0.0,0.0,0.0,0.0,8.5123,9.0629,9.5254,9.8924,9.8888,9.8227,9.6942,9.1106,0.0,0.0,0.0,0.0,0.0,0.0,0.0,0.0,0.0,0.0,0.0,0.0,0.0,0.0,0.0,0.0,0.0,0.0,0.0,0.0,0.0,0.0,0.0,0.0,0.0,0.0,0.0,5.7571,0.0,0.0,0.0,0.0,0.0,0.0,0.0,0.0,0.0,0.0,0.0,0.0,0.0,0.0,7.2165,7.5395,7.7928,7.98,0.0,0.0,8.2608,8.1851,8.0747,7.8849,0.0,0.0,0.0,0.0,0.0,0.0,0.0,0.0,0.0,0.0,0.0,0.0,0.0,0.0,0.0,0.0,0.0,0.0,0.0,0.0,0.0,0.0,0.0,0.0,0.0,0.0,0.0,0.0,0.0,0.0,0.0,0.0,0.0,0.0,0.0,0.0,0.0,0.0,0.0,0.0,0.0,0.0,0.0,0.0,0.0,0.0,0.0,0.0,0.0,0.0,0.0,0.0,0.0,0.0,0.0,8.6721,9.1693,9.5841,9.9015,10.0503,10.0136,9.7843,9.2978,8.8463,0.0,0.0,0.0,0.0,0.0,0.0,0.0,0.0,0.0,0.0,0.0,0.0,0.0,0.0,0.0,0.0,0.0,0.0,0.0,0.0,0.0,0.0,0.0,0.0,0.0,0.0,0.0,0.0,0.0,0.0,0.0,0.0,0.0,0.0,0.0,0.0,0.0,0.0,0.0,0.0,0.0,7.4676,7.7892,8.0424,8.2223,0.0,0.0,8.532,8.4678,8.3243,8.1376,7.9002,0.0,0.0,0.0,0.0,0.0,0.0,0.0,0.0,0.0,0.0,0.0,0.0,0.0,0.0,0.0,0.0,0.0,0.0,0.0,0.0,0.0,0.0,0.0,0.0,0.0,0.0,0.0,0.0,0.0,0.0,0.0,0.0,0.0,0.0,0.0,0.0,0.0,0.0,0.0,0.0,0.0,0.0,0.0,0.0,0.0,0.0,0.0,0.0,0.0,0.0,0.0,0.0,0.0,8.1706,8.8409,9.3786,9.808,10.12,10.2412,10.2065,10.0136,9.5437,9.0959,0.0,0.0,0.0,0.0,0.0,0.0,0.0,0.0,0.0,0.0,0.0,0.0,0.0,0.0,0.0,0.0,0.0,0.0,0.0,0.0,0.0,0.0,0.0,0.0,0.0,0.0,0.0,0.0,6.5197,6.6452,6.6733,0.0,0.0,0.0,0.0,0.0,0.0,0.0,0.0,0.0,0.0,7.6533,8.0277,8.2541,0.0,0.0,8.6073,8.643,8.5221,8.3229,8.0884,7.799,7.5061,0.0,0.0,0.0,0.0,0.0,0.0,0.0,0.0,0.0,0.0,0.0,0.0,0.0,0.0,0.0,0.0,0.0,0.0,0.0,0.0,0.0,0.0,0.0,0.0,0.0,0.0,0.0,0.0,0.0,0.0,0.0,0.0,0.0,0.0,0.0,0.0,0.0,0.0,0.0,0.0,0.0,0.0,0.0,0.0,0.0,0.0,0.0,0.0,0.0,0.0,0.0,0.0,8.3242,8.973,9.5144,9.9438,10.2632,10.3696,10.3476,10.1824,9.786,9.3932,0.0,0.0,0.0,0.0,0.0,0.0,0.0,0.0,0.0,0.0,0.0,0.0,0.0,0.0,0.0,0.0,0.0,0.0,0.0,0.0,0.0,0.0,0.0,0.0,0.0,0.0,0.0,0.0,6.7166,6.776,6.7063,0.0,0.0,0.0,0.0,0.0,0.0,0.0,0.0,0.0,0.0,7.8531,8.2157,8.4146,8.5496,8.6082,8.6968,8.7061,8.5482,8.3658,8.1407,7.8465,0.0,0.0,0.0,0.0,0.0,0.0,0.0,0.0,0.0,0.0,0.0,0.0,0.0,0.0,0.0,0.0,0.0,0.0,0.0,0.0,0.0,0.0,0.0,0.0,0.0,0.0,0.0,0.0,0.0,0.0,5.9852,0.0,0.0,0.0,0.0,0.0,0.0,0.0,0.0,0.0,0.0,0.0,0.0,0.0,0.0,0.0,0.0,0.0,0.0,0.0,0.0,0.0,0.0,8.4578,9.0537,9.5437,9.9475,10.2632,10.4263,10.43,10.2742,10.0283,9.7456,9.4079,0.0,0.0,0.0,0.0,0.0,0.0,0.0,0.0,0.0,0.0,0.0,0.0,0.0,0.0,0.0,0.0,0.0,0.0,0.0,0.0,0.0,0.0,0.0,0.0,0.0,0.0,6.719,6.8303,6.7981,0.0,0.0,0.0,0.0,0.0,0.0,0.0,0.0,0.0,0.0,7.7173,8.0688,8.3275,8.5058,8.6099,8.6299,8.711,8.7254,8.5794,8.4957,8.3777,0.0,0.0,0.0,0.0,0.0,0.0,0.0,0.0,0.0,0.0,0.0,0.0,0.0,0.0,0.0,0.0,0.0,0.0,0.0,0.0,0.0,0.0,0.0,0.0,0.0,0.0,0.0,6.2673,6.4218,0.0,0.0,0.0,0.0,0.0,0.0,0.0,0.0,0.0,0.0,0.0,7.7888,7.8667,0.0,0.0,0.0,0.0,0.0,0.0,0.0,0.0,0.0,0.0,0.0,0.0,8.5711,9.2115,9.6539,10.0283,10.3403,10.5091,10.5422,10.432,10.1934,9.8154,9.2794,0.0,0.0,0.0,0.0,0.0,0.0,0.0,0.0,0.0,0.0,0.0,0.0,0.0,0.0,0.0,0.0,0.0,0.0,0.0,0.0,0.0,0.0,0.0,0.0,0.0,6.5693,0.0,0.0,0.0,0.0,0.0,0.0,0.0,0.0,0.0,0.0,0.0,7.342,7.5963,7.9326,8.2297,8.4336,8.5725,8.6587,0.0,0.0,0.0,0.0,0.0,0.0,0.0,0.0,0.0,0.0,0.0,0.0,0.0,0.0,7.6929,7.3752,7.4012,7.4844,7.5194,0.0,0.0,0.0,0.0,0.0,0.0,0.0,0.0,0.0,0.0,0.0,0.0,0.0,0.0,6.7942,0.0,7.008,0.0,0.0,0.0,0.0,0.0,0.0,0.0,0.0,8.1144,8.3175,8.5063,8.5899,8.653,0.0,8.6094,8.2848,0.0,0.0,0.0,0.0,0.0,0.0,0.0,0.0,8.7593,9.34,9.7456,10.0943,10.3806,10.5532,10.5972,10.5107,10.3036,9.9659,9.4923,9.1818,8.8125,0.0,0.0,0.0,0.0,0.0,0.0,0.0,0.0,0.0,0.0,0.0,0.0,0.0,0.0,0.0,0.0,0.0,0.0,0.0,0.0,0.0,0.0,0.0,6.738,0.0,0.0,0.0,0.0,0.0,0.0,0.0,0.0,0.0,7.0698,7.3521,7.642,7.8721,8.1579,8.402,8.5556,0.0,0.0,0.0,0.0,0.0,0.0,0.0,8.3702,8.3615,8.3915,8.39,8.3131,8.3483,8.3936,8.4201,0.0,0.0,7.9229,7.9303,8.0327,8.0665,8.1203,8.1578,8.163,8.2281,8.293,0.0,0.0,0.0,0.0,0.0,0.0,0.0,0.0,7.266,7.3913,0.0,7.5367,0.0,0.0,0.0,0.0,0.0,8.0712,0.0,0.0,8.8119,9.0271,9.2687,9.3562,9.4184,9.4431,9.3763,9.2704,9.1046,8.2752,0.0,0.0,0.0,0.0,0.0,0.0,9.0173,9.441,9.8337,10.1494,10.388,10.5532,10.5972,10.5107,10.366,10.2045,10.0356,9.6937,9.3251,8.9274,8.4228,0.0,0.0,0.0,0.0,0.0,0.0,0.0,0.0,0.0,0.0,0.0,0.0,0.0,0.0,0.0,0.0,0.0,0.0,0.0,0.0,6.9775,0.0,0.0,0.0,0.0,0.0,0.0,0.0,0.0,0.0,0.0,7.4509,7.72,7.986,8.1541,0.0,0.0,0.0,0.0,8.619,8.6355,8.5977,8.5724,8.5814,8.5938,8.6362,8.7236,0.0,0.0,8.9963,9.0165,9.043,9.1215,9.205,9.0991,8.58,8.5357,8.601,8.6892,8.7182,8.7183,8.7323,8.8053,8.8706,7.8007,0.0,0.0,0.0,0.0,7.4417,7.5986,7.7868,7.8496,7.938,8.0417,8.0626,0.0,0.0,0.0,0.0,0.0,0.0,8.9835,9.248,9.4651,9.6676,9.8505,9.9912,10.0907,10.1493,10.0743,10.0169,9.959,9.4386,8.8619,8.2612,0.0,0.0,0.0,0.0,9.2078,9.6722,9.9695,10.2301,10.4703,10.5825,10.5972,10.5107,10.5275,10.4284,10.2098,10.0719,9.8176,9.418,9.0112,0.0,0.0,0.0,0.0,0.0,0.0,0.0,0.0,0.0,0.0,0.0,0.0,0.0,0.0,0.0,0.0,0.0,0.0,0.0,7.1383,7.2558,7.2587,0.0,0.0,0.0,0.0,0.0,0.0,0.0,0.0,0.0,8.1438,8.1822,8.2408,0.0,0.0,8.76,8.753,8.8056,8.8219,8.7694,8.8129,0.0,0.0,8.8433,8.9187,9.0151,9.2,9.3864,9.5295,9.6103,9.6632,9.6848,9.8113,9.8571,9.7007,9.4592,9.325,9.3402,9.3856,9.4273,9.435,9.4552,9.4728,8.7635,8.3493,8.0338,7.9486,8.037,8.1119,8.2643,8.4634,8.4962,8.567,8.6605,8.6724,8.6669,8.6578,8.7942,0.0,0.0,0.0,9.5974,9.8428,10.0182,10.2051,10.4016,10.5025,10.5984,10.6905,10.586,10.5268,10.5144,10.146,9.7021,9.1761,0.0,0.0,8.924,9.1327,9.4223,9.7823,10.0576,10.2852,10.4614,10.5789,10.6156,10.5642,10.5789,10.5201,10.3712,10.2741,10.0631,9.7191,9.3607,8.9152,0.0,0.0,0.0,0.0,0.0,0.0,0.0,0.0,0.0,0.0,0.0,6.5502,0.0,0.0,0.0,0.0,7.2283,7.3488,7.4298,7.5146,0.0,0.0,0.0,0.0,0.0,0.0,0.0,7.9381,8.103,8.3396,8.7124,8.7291,8.7093,8.7158,8.8711,8.9785,8.9544,0.0,8.9957,8.9452,8.9978,9.0485,9.0517,9.1465,9.3008,9.5428,9.7284,9.9117,10.076,10.1518,10.187,10.2035,10.3049,10.4029,10.3947,10.2304,10.0481,9.9099,9.9111,9.9453,9.9491,9.9719,9.9985,9.6526,9.5862,8.8549,8.6269,8.7458,8.7909,8.9367,9.1419,9.1646,9.2325,9.3214,9.3271,9.3572,9.414,9.5088,0.0,9.915,9.9953,10.1686,10.4122,10.5,10.6698,10.9055,10.9202,10.9937,11.1055,10.9628,10.8785,10.8386,10.5356,10.3507,10.2725,9.6743,9.3578,9.3395,9.4976,9.6612,9.83,10.1274,10.3219,10.41,10.5532,10.6266,10.6156,10.5422,10.4923,10.4777,10.3248,10.1231,9.8671,9.5349,9.1251,8.6263,0.0,0.0,0.0,0.0,0.0,0.0,0.0,0.0,0.0,0.0,0.0,0.0,0.0,0.0,0.0,7.7265,0.0,7.7511,7.7793,0.0,0.0,0.0,7.8022,7.9489,7.9902,8.152,8.5331,0.0,0.0,9.1818,9.3129,9.3142,9.1784,9.1971,9.2339,9.2531,9.2109,9.1748,9.1862,9.2044,9.2584,9.3863,9.5386,9.7823,10.1444,10.3284,10.4221,10.5755,10.6303,10.6391,10.6506,10.7246,10.786,10.781,10.8274,10.7901,10.438,10.3439,10.3249,10.33,10.3795,10.4227,10.1777,10.1413,9.915,9.6449,9.3753,9.405,9.495,9.6154,9.6346,9.7049,9.8022,9.8043,9.8776,10.0068,10.0438,10.1931,10.4256,10.5269,10.671,10.8513,10.9944,11.092,11.1588,11.28,11.3548,11.381,11.348,11.2944,11.2188,10.9695,10.8008,10.7098,10.3231,10.0039,9.7728,9.8024,9.9365,10.1531,10.2925,10.432,10.5736,10.5568,10.5128,10.4504,10.4284,10.3623,10.2412,10.239,10.1549,9.9696,9.6899,9.3677,9.0031,8.5228,0.0,0.0,0.0,0.0,0.0,0.0,0.0,0.0,0.0,7.2595,7.468,0.0,7.7245,0.0,8.0474,8.154,8.1974,8.2507,0.0,0.0,8.294,8.3785,8.3584,8.5792,8.7976,8.9515,9.137,9.3492,9.6021,9.7085,9.8071,9.915,9.7029,9.517,9.4767,9.5242,9.5643,9.5757,9.679,9.8046,9.9058,10.1099,10.3142,10.4846,10.5854,10.6955,10.8642,10.9566,11.0237,11.0862,11.1736,11.2285,11.213,11.2464,11.2202,11.1092,10.9014,10.7203,10.7241,10.7382,10.7497,10.6711,10.6559,10.6225,10.4704,10.2302,10.0637,10.0456,10.1313,10.1422,10.1806,10.2408,10.2843,10.3726,10.4917,10.5534,10.6902,10.883,10.9452,11.0479,11.1801,11.2684,11.3353,11.3809,11.4692,11.5281,11.5649,11.5281,11.4692,11.3809,11.1843,11.0444,10.9576,10.6726,10.4407,10.2656,10.1337,10.1384,10.2685,10.3843,10.5054,10.6302,10.5568,10.4887,10.443,10.3366,10.2432,10.1551,10.1153,10.0318,9.8972,9.7233,9.4816,9.1504,8.7815,8.4141,0.0,0.0,0.0,0.0,0.0,0.0,0.0,0.0,0.0,0.0,0.0,8.2828,8.4597,8.5582,8.6291,8.6728,8.7273,8.7578,8.7438,8.8494,8.9325,8.9641,9.1305,9.3057,9.4606,9.6319,9.8105,9.9925,10.0953,10.2041,10.3622,10.2383,10.0761,9.9369,9.9556,9.9901,9.9939,10.1055,10.2566,10.4193,10.6013,10.762,10.8734,10.9376,11.0144,11.145,11.212,11.2654,11.3088,11.3632,11.3962,11.3895,11.3884,11.3861,11.3585,11.2333,11.1097,11.0851,11.0828,11.0828,11.0845,11.0882,11.0869,11.0915,11.0682,10.7197,10.5933,10.6232,10.6123,10.624,10.6561,10.7658,10.8493,10.9189,11.0142,11.1368,11.2779,11.2779,11.3353,11.4324,11.4324,11.4817,11.5641,11.5678,11.601,11.6638,11.601,11.5198,11.4253,11.2871,11.1763,11.0766,10.8496,10.7294,10.7183,10.4607,10.3191,10.3117,10.4587,10.5725,10.6444,10.5542,10.497,10.4786,10.2529,10.1227,10.1117,9.9664,9.8484,9.7613,9.6981,9.5256,9.2134,8.9873,8.7415,0.0,8.2416,0.0,0.0,0.0,0.0,0.0,0.0,0.0,0.0,8.6725,8.9179,9.0887,9.1385,9.1595,9.1608,9.2069,9.2653,9.3313,9.3732,9.4588,9.609,9.6473,9.7495,9.9817,10.0899,10.2119,10.3753,10.4771,10.5649,10.6808,10.75,10.7088,10.5345,10.4594,10.4374,10.4363,10.5158,10.6759,10.8641,10.9957,11.1088,11.2434,11.2654,11.3176,11.3896,11.4088,11.4176,11.4291,11.4407,11.4407,11.4291,11.4445,11.4561,11.4665,11.4615,11.4367,11.3631,11.3392,11.3637,11.2684,11.2684,11.289,11.3093,11.322,11.2681,11.1205,10.913,10.847,10.9163,11.083,11.231,11.3032,11.318,11.3407,11.3998,11.492,11.492,11.5384,11.6166,11.6203,11.6299,11.6454,11.6491,11.6564,11.6675,11.6528,11.5715,11.429,11.3995,11.3093,11.1652,10.9842,10.8956,10.8882,0.0,0.0,0.0,10.6139,10.6713,10.6824,10.5439,10.4369,10.3705,10.1343,0.0,9.9056,9.8134,9.7599,9.7505,9.6802,0.0,0.0,0.0,0.0,0.0,0.0,0.0,0.0,0.0,0.0,0.0,9.2213,9.1638,8.9259,9.2067,9.4318,9.4941,9.5832,9.6361,9.6374,9.6757,9.7058,9.726,9.798,9.8849,9.9894,10.1159,10.2501,10.3602,10.5096,10.6445,10.7543,10.8487,10.9568,11.0973,11.1594,11.1824,11.189,11.0073,10.8968,10.9007,11.0139,11.1264,11.1874,11.2742,11.3483,11.3753,11.3753,11.4137,11.4945,11.5138,11.533,11.5869,11.6022,11.6034,11.6034,11.6599,11.6984,11.71,11.76,11.7281,11.4544,11.3956,11.3917,11.6162,0.0,11.6335,11.6189,0.0,11.5598,11.4555,11.2982,11.1957,11.2089,11.3151,11.4348,11.4902,11.4939,11.5309,11.5715,11.6121,11.6084,11.6371,11.6886,11.6923,11.6967,11.7037,11.7037,11.7037,11.7037,11.7165,11.6375,11.4833,11.4883,11.4127,11.2472,11.1266,11.0634,11.0597,10.9446,10.8026,10.6427,10.6897,10.7158,10.7104,10.5665,10.4667,10.4185,0.0,0.0,0.0,0.0,0.0,0.0,0.0,0.0,0.0,0.0,0.0,9.3814,9.27,9.2533,9.3574,9.4674,9.588,9.7235,9.9048,9.9061,9.6582,9.8456,9.9907,10.0177,10.0755,10.1092,10.1103,10.1394,10.1799,10.2144,10.269,10.3367,10.4212,10.5057,10.6056,10.7324,10.8591,10.9716,11.0627,11.1435,11.2264,11.3242,11.406,11.4714,11.4984,11.383,11.284,11.3264,11.4368,11.5215,11.5291,11.5945,11.6484,11.6522,11.6522,11.6676,11.71,11.7176,11.733,11.7715,11.7792,11.7792,11.7792,11.8138,11.8446,11.8484,11.8792,11.8677,11.6792,11.6522,11.6522,11.9254,11.9283,11.9283,11.8958,11.8284,11.7639,11.7149,11.6644,0.0,0.0,0.0,11.5582,11.5952,11.5989,11.6655,11.6951,11.6951,11.6951,11.7058,11.7265,11.7265,11.737,11.7537,11.7537,11.7499,11.7537,11.7684,11.6927,11.5399,11.5577,11.4814,11.3244,11.2384,11.1916,11.1767,11.1094,10.9771,10.7839,10.786,10.7844,10.7678,10.64,10.5637,10.5525,10.2622,10.1059,10.1039,9.9661,9.8945,9.9125,9.9257,9.9135,9.8664,9.8027,9.7873,9.8286,9.7571,9.7896,9.9693,10.0824,10.185,10.2866,10.473,10.5086,10.3388,10.4062,10.4659,10.4891,10.5135,10.5319,10.5331,10.5547,10.5934,10.6626,10.6777,10.7203,10.8175,10.8367,10.9011,11.0598,11.1434,11.2252,11.3011,11.3714,11.4368,11.4791,11.5792,11.6918,11.7034,11.6484,11.6061,11.6676,11.7253,11.7907,11.8061,11.8407,11.9061,11.8831,11.8946,11.91,11.91,11.91,11.91,11.8946,11.91,11.9061,11.9061,11.9177,11.9292,11.9292,11.9446,11.9523,11.9523,11.9523,11.9331,11.9431,11.9725,11.9725,11.9863,12.0103,12.0011,11.953,11.8711,11.7159,11.6448,11.6522,11.7343,11.7716,11.7753,11.7865,11.7902,11.7902,11.7902,11.7922,11.7942,11.7942,11.7962,11.7982,11.8002,11.7982,11.8002,11.8022,11.7183,11.5746,11.575,11.4983,11.3467,11.2675,11.2014,11.1356,11.1206,11.0966,11.0597,11.0366,10.9938,10.9354,10.8492,10.7757,10.7126,10.5397,10.4422,10.4384,10.3463,10.3121,10.3382,10.3428,10.3542,10.3723,10.2971,10.305,10.3891,10.3271,10.335,10.453,10.5567,10.6846,10.8511,11.0271,10.961,10.5804,10.6163,10.672,10.6936,10.7702,10.8125,10.8125,10.831,10.8451,10.8577,10.8549,10.9175,11.0714,11.0895,11.1522,11.3137,11.356,11.3945,11.4714,11.5022,11.5676,11.6869,11.7407,11.8138,11.9138,11.91,11.8638,11.8715,11.8831,11.8908,11.9023,11.8985,11.9254,11.91,11.9215,11.9292,11.9331,11.9331,11.9331,11.9177,11.9292,11.9254,11.9215,11.9677,12.0023,12.0177,12.06,12.1062,12.1062,12.1073,12.0716,12.2419,12.2178,12.2178,12.1781,12.1127,12.0816,12.0202,11.9436,11.8784,11.8129,11.7696,11.8013,11.8277,11.8373,11.8373,11.8373,11.8336,11.7924,11.7961,11.8298,11.7924,11.7961,11.8336,11.8336,11.8392,11.8355,11.8037,11.7268,11.6086,11.5799,11.5079,11.395,11.3565,11.3223,11.2901,11.2948,11.2998,11.296,11.1775,11.1033,11.0771,11.0119,10.9648,10.9371,10.7817,10.7002,10.6986,10.6171,10.5853,10.6136,10.615,10.6277,10.6613,10.6297,10.6527,10.7508,10.7265,10.7684,10.9194,11.0206,11.1139,11.2021,11.279,11.246,11.0417,11.0541,11.0783,11.0934,11.1347,11.1561,11.1561,11.1643,11.1675,11.1675,11.1675,11.1983,11.2676,11.2868,11.333,11.4484,11.4714,11.5022,11.588,11.6369,11.6869,11.7753,11.8484,11.96,12.0804,12.0677,12.0408,12.0446,12.0446,12.0446,12.0408,12.0446,12.0446,12.0446,12.0446,12.0446,12.0446,12.0446,12.0408,12.0446,12.0446,12.0446,12.0408,12.0716,12.0985,12.1023,12.1254,12.1574,12.1612,12.1612,12.1304,12.5071,12.4589,12.4344,12.345,12.209,12.1425,12.0791,12.0211,12.0007,11.9463,11.8844,11.8581,11.8562,11.8747,11.8802,11.8782,11.8707,11.8179,11.8216,11.8707,11.818,11.8069,11.8409,11.8446,11.8371,11.8164,11.7723,11.7058,11.6264,11.5865,11.528,11.4594,11.4535,11.4535,11.4535,11.4626,11.4689,11.456,11.318,11.2322,11.2159,11.1733,11.1485,11.1346,11.0279,10.9662,10.961,10.8978,10.8748,10.8954,10.8981,10.9098,10.9402,10.9427,10.9744,11.0453,11.0554,11.1291,11.2893,11.3715,11.4268,11.455,11.4561,11.4561,11.4561,11.4483,11.4268,11.4038,11.3819,11.3868,11.3819,11.3907,11.3984,11.3984,11.3984,11.3945,11.4253,11.4291,11.4714,11.5599,11.583,11.6176,11.6946,11.7677,11.8138,11.8561,11.9677,12.0831,12.1458,12.1612,12.1612,12.1612,12.1612,12.1497,12.1612,12.1535,12.1497,12.1612,12.1535,12.1458,12.1458,12.1535,12.1574,12.1458,12.1497,12.1458,12.1535,12.1535,12.1535,12.1497,12.1574,12.1639,12.1947,12.2177,12.1958,12.5511,12.5505,12.4868,12.4089,12.3327,12.2578,12.2184,12.1884,12.057,12.0061,12.0108,11.9342,11.9039,11.9179,11.9352,11.9421,11.94,11.9476,11.9421,11.94,11.9362,11.8861,11.8157,11.8102,11.7632,11.7063,11.7027,11.6657,11.588,11.6018,11.5795,11.5261,11.5214,11.5185,11.52,11.52,11.5229,11.5229,11.5155,11.4626,11.3692,11.3673,11.3399,11.2829,11.2774,11.2778,11.2688,11.2702,11.2729,11.287,11.2806,11.2907,11.3042,11.3067,11.3153,11.3374,11.3385,11.3904,11.4862,11.5077,11.5473,11.6138,11.6226,11.6264,11.6253,11.6253,11.5588,11.4561,11.4099,11.4137,11.3984,11.4099,11.4176,11.4253,11.4214,11.4291,11.5099,11.5176,11.5792,11.7407,11.7484,11.7869,11.8484,11.8869,11.9254,11.9869,12.0677,12.1381,12.1535,12.1612,12.1612,12.1612,12.1612,12.1612,12.1612,12.1612,12.1612,12.1612,12.1612,12.1612,12.1612,12.1612,12.1612,12.1612,12.1612,12.1612,12.1689,12.1612,12.1689,12.1958,12.1947,12.1908,12.2639,12.3255,12.3178,12.7053,12.6684,12.6309,12.5448,12.4325,12.3462,12.2861,12.2335,12.1829,12.1205,12.0496,12.0172,11.9946,11.9705,11.9787,11.9868,11.9926,11.9495,11.9533,11.9888,11.9432,11.8983,11.8616,11.8578,11.8161,11.7364,11.6933,11.6509,11.6145,11.5848,11.5533,11.5326,11.5288,11.5288,11.5302,11.5388,11.5473,11.5519,11.5656,11.557,11.52,11.5121,11.5035,11.486,11.4886,11.4911,11.4911,11.4911,11.4974,11.5097,11.5109,11.5169,11.5298,11.531,11.5333,11.5378,11.5417,11.5554,11.5984,11.5995,11.6369,11.7215,11.7253,11.7484,11.7984,11.8023,11.7715,11.7061,11.6099,11.5484,11.5484,11.5484,11.5484,11.5522,11.5945,11.6369,11.6715,11.7215,11.7907,11.8484,11.86,11.8677,11.9061,11.9523,12.0139,12.0869,12.142,12.1574,12.1612,12.1612,12.1612,12.1612,12.1612,12.1612,12.1612,12.1612,12.1612,12.1612,12.1612,12.1612,12.1612,12.1612,12.1612,12.1612,12.1727,12.1947,12.2331,12.2408,12.2447,12.2716,12.3062,12.3216,12.3562,12.387,12.3678,12.8268,12.7667,12.7404,12.6391,12.4851,12.4271,12.3576,12.2863,12.2787,12.2198,12.1281,12.0967,12.0685,12.04,12.0203,12.0182,12.0258,11.9775,11.9828,12.0332,11.9752,11.9356,11.9092,11.9039,11.862,11.7835,11.7026,11.6536,11.6298,11.5778,11.5459,11.5417,11.5417,11.5431,11.5487,11.5737,11.6051,11.6198,11.6532,11.6799,11.6861,11.6786,11.6556,11.6233,11.6193,11.6217,11.6217,11.6217,11.6253,11.6347,11.6347,11.6393,11.6484,11.6484,11.6484,11.6534,11.6753,11.683,11.6869,11.7072,11.7484,11.8061,11.8177,11.8407,11.8946,11.91,11.91,11.8908,11.7946,11.7215,11.7226,11.7215,11.7215,11.7253,11.783,11.8138,11.8177,11.8754,11.91,11.9369,11.9446,11.9562,11.9792,12.0292,12.0908,12.1408,12.1574,12.1612,12.1612,12.1612,12.1612,12.1612,12.1612,12.1612,12.1612,12.1612,12.1612,12.1612,12.1612,12.1612,12.1651,12.1727,12.1947,12.2216,12.2177,12.2408,12.3024,12.3255,12.337,12.3909,12.4255,12.4409,12.4486,12.4639,12.4832,12.8568,12.8418,12.763,12.641,12.4946,12.5026,12.4651,12.3804,12.3253,12.3036,12.2837,12.1565,12.1092,12.1385,12.0753,12.0387,12.0488,12.0705,12.0722,12.0688,12.0736,12.0208,11.9229,11.9176,11.8757,11.8037,11.7424,11.6768,11.6123,11.5983,11.5802,11.5721,11.5797,11.5813,11.6033,11.671,11.7183,11.7387,11.8124,11.867,11.8732,11.8815,11.7996,11.6608,11.6443,11.6604,11.6577,11.6511,11.6511,11.6522,11.6588,11.6561,11.6572,11.6572,11.6611,11.6638,11.7292,11.7753,11.783,11.8407,11.8946,11.9023,11.9023,11.91,11.9292,11.9369,11.9331,11.9177,11.9138,11.8985,11.8946,11.8754,11.8792,11.8792,11.8946,11.9023,11.9023,11.9215,11.9485,12.0062,12.0254,12.0562,12.1331,12.1497,12.16,12.1754,12.1689,12.1689,12.1727,12.1689,12.1689,12.1612,12.1612,12.1612,12.1612,12.1612,12.1612,12.1651,12.1689,12.1689,12.1908,12.2139,12.2562,12.2947,12.3293,12.3601,12.3909,12.4101,12.4216,12.4601,12.5063,12.5255,12.5332,12.6063,12.6178,12.8686,12.873,12.7827,12.7228,12.6722,12.5818,12.5195,12.4837,12.4244,12.3671,12.3284,12.2862,12.2593,12.2344,12.2131,12.1561,12.0872,12.0957,12.1024,12.1013,12.1065,12.0579,11.9734,11.9644,11.9223,11.8509,11.8217,11.7988,11.7719,11.7694,11.7362,11.6979,11.7349,11.7413,11.7106,11.7732,11.8217,11.8379,11.8746,11.896,11.9069,11.9077,11.8731,11.8158,11.8115,11.8177,11.8138,11.8138,11.8138,11.8138,11.8177,11.8177,11.8138,11.8177,11.8138,11.8177,11.8446,11.8638,11.8677,11.8908,11.9331,11.9792,11.9869,12.0177,12.0562,12.0716,12.0677,12.0677,12.0677,12.0716,12.0485,11.9754,11.91,11.9177,11.9562,11.9869,11.9985,12.0331,12.0831,12.1062,12.1139,12.1485,12.2177,12.2408,12.2639,12.3101,12.3216,12.2947,12.2562,12.2447,12.2254,12.1754,12.1612,12.1793,12.2408,12.187,12.1651,12.1793,12.1908,12.2331,12.2601,12.3178,12.3601,12.3716,12.4139,12.4524,12.4755,12.5293,12.5332,12.5563,12.6063,12.5986,12.6229,12.6486,12.664,12.8807,12.8907,12.8342,12.8079,12.7889,12.6905,12.6335,12.6066,12.5446,12.4887,12.4407,12.4037,12.3636,12.3297,12.3143,12.2703,12.1932,12.1882,12.1948,12.2039,12.1847,12.1386,12.0862,12.0517,12.0121,11.9608,11.9338,11.907,11.879,11.8752,11.842,11.7884,11.8421,11.8446,11.8087,11.8713,11.9235,11.9383,11.9599,11.9826,11.9908,11.9908,11.9908,11.9908,11.9908,11.96,11.9177,11.91,11.91,11.91,11.91,11.91,11.91,11.91,11.91,11.9138,11.9331,11.9485,11.9562,11.9754,12.0292,12.1023,12.1139,12.1523,12.2293,12.2408,12.2408,12.2408,12.2408,12.237,12.2177,12.1408,12.0523,12.01,12.0369,12.0869,12.11,12.1639,12.21,12.237,12.2447,12.2716,12.3139,12.3255,12.3524,12.4062,12.4101,12.3832,12.3447,12.3255,12.3139,12.2562,12.2524,12.2754,12.3139,12.2947,12.2754,12.287,12.2831,12.3139,12.3485,12.4062,12.4486,12.4524,12.4793,12.5216,12.5717,12.6294,12.6563,12.6717,12.6601,12.6409,12.6575,12.664,12.6717,12.9021,12.9173,12.9211,12.8832,12.8389,12.8284,12.804,12.7433,12.6821,12.6435,12.6169,12.4917,12.4516,12.4287,12.403,12.3583,12.3827,12.3867,12.374,12.3649,12.3132,12.2774,12.2535,12.187,12.1524,12.1382,12.0684,11.9915,11.9308,11.9219,11.9017,11.8765,11.888,11.9019,11.8924,11.9692,12.0175,12.0411,12.0973,12.1408,12.1574,12.1485,12.1485,12.1523,12.1562,12.0946,11.9446,11.9331,11.9331,11.9292,11.9254,11.9138,11.9331,11.9331,11.9215,11.9446,11.9946,12.0331,12.0485,12.1139,12.1985,12.2601,12.2831,12.3062,12.3639,12.3832,12.3832,12.3793,12.3832,12.3947,12.387,12.3678,12.3062,12.1958,12.1716,12.2062,12.2639,12.287,12.3178,12.3716,12.3832,12.4062,12.4101,12.4139,12.4255,12.4409,12.4447,12.437,12.4178,12.4139,12.4101,12.3947,12.3678,12.3639,12.3909,12.4101,12.4101,12.4139,12.4062,12.4139,12.4332,12.4793,12.5293,12.5447,12.5717,12.6113,12.6178,12.6678,12.6871,12.6986,12.6871,12.6909,12.6948,12.6986,12.6755,12.934,12.9541,12.9703,12.971,12.9577,12.9113,12.8799,12.8544,12.7755,12.7429,12.7347,12.6985,12.6911,12.6832,12.6382,12.6185,12.644,12.6414,12.5608,12.4298,12.3846,12.3731,12.3618,12.3349,12.3272,12.3118,12.2462,12.1923,12.1541,12.1003,12.0453,12.0033,12.0406,12.0353,11.9927,12.0707,12.1154,12.1216,12.1447,12.1574,12.1651,12.2177,12.2485,12.2562,12.3024,12.3024,12.2524,12.1447,12.0869,12.0831,12.0831,12.0831,12.0843,12.0831,12.0831,12.0908,12.1639,12.21,12.2177,12.2793,12.337,12.3678,12.3716,12.3832,12.4062,12.4139,12.4178,12.4139,12.4101,12.4101,12.4101,12.4101,12.3909,12.337,12.3332,12.3332,12.3639,12.3755,12.3832,12.4024,12.4101,12.4332,12.4832,12.4986,12.5216,12.5678,12.5794,12.564,12.514,12.4986,12.4678,12.4255,12.4255,12.4486,12.4793,12.5024,12.514,12.514,12.5101,12.5024,12.5216,12.5447,12.5947,12.6371,12.6652,12.6883,12.6909,12.714,12.7409,12.7525,12.7602,12.7563,12.7486,12.7371,12.7255,12.9683,12.9927,13.0067,13.0267,13.0424,12.9906,12.9794,12.9773,12.8987,12.8605,12.8635,12.8405,12.8432,12.8395,12.8101,12.8035,12.8207,12.822,12.7438,12.6089,12.5601,12.537,12.4986,12.4332,12.4101,12.4024,12.3601,12.3178,12.287,12.2331,12.1639,12.1023,12.1343,12.1331,12.0908,12.1639,12.21,12.21,12.237,12.2524,12.2639,12.3062,12.3332,12.3408,12.3832,12.4062,12.4024,12.3062,12.2524,12.2524,12.2524,12.2524,12.2524,12.2524,12.2524,12.2639,12.2985,12.3332,12.3408,12.3716,12.4293,12.4486,12.4562,12.4755,12.4947,12.5063,12.5063,12.5063,12.5101,12.5063,12.5063,12.5063,12.5063,12.5063,12.4409,12.4332,12.4486,12.487,12.5063,12.5178,12.514,12.5332,12.5717,12.5909,12.6063,12.6614,12.6678,12.6601,12.6024,12.587,12.5447,12.5178,12.5332,12.5601,12.5794,12.5947,12.6101,12.6101,12.6101,12.5947,12.5986,12.6178,12.6537,12.6986,12.7294,12.7717,12.7832,12.814,12.8409,12.8397,12.8397,12.8371,12.8332,12.8179,12.8063,12.9978,13.03,13.0333,13.0541,13.0804,13.0781,13.0877,13.1045,13.0407,12.9996,12.987,12.9383,12.9041,12.9032,12.9075,12.9039,12.9129,12.918,12.9192,12.882,12.8371,12.7717,12.6755,12.5447,12.4832,12.4639,12.4332,12.3832,12.3332,12.3062,12.2562,12.1908,12.1908,12.1804,12.1985,12.2601,12.2985,12.3024,12.3639,12.3909,12.3947,12.4139,12.4178,12.4178,12.437,12.4447,12.4486,12.4332,12.4178,12.4101,12.387,12.3832,12.4024,12.4101,12.3909,12.3909,12.4101,12.4178,12.4178,12.4447,12.4755,12.537,12.5486,12.5794,12.6294,12.6332,12.6371,12.6409,12.6447,12.6537,12.6498,12.6486,12.6486,12.646,12.5332,12.4909,12.5409,12.6101,12.6332,12.6486,12.664,12.6717,12.6678,12.6678,12.6652,12.6806,12.6832,12.6601,12.6601,12.6486,12.664,12.6486,12.6217,12.6217,12.6294,12.6294,12.6486,12.6871,12.6832,12.6717,12.664,12.6832,12.7255,12.7678,12.8025,12.8448,12.8756,12.8986,12.9217,12.9256,12.9256,12.9294,12.9179,12.8986,12.8756,13.0588,13.0682,13.0924,13.1108,13.1165,13.118,13.1222,13.1254,13.1076,13.0884,13.0884,13.0756,13.0594,13.0689,13.0114,12.9949,13.0077,13.0115,13.0141,13.0217,13.0602,12.9833,12.8602,12.7448,12.682,12.6628,12.564,12.4947,12.4716,12.4062,12.3639,12.3447,12.3293,12.337,12.3524,12.3639,12.3755,12.3793,12.3985,12.4178,12.4305,12.4844,12.5063,12.5101,12.5678,12.5947,12.6024,12.6024,12.5332,12.4178,12.4101,12.4101,12.4216,12.4216,12.4255,12.4332,12.4755,12.5063,12.5178,12.5601,12.6063,12.6294,12.6267,12.6447,12.664,12.6717,12.6717,12.6717,12.6717,12.6717,12.6717,12.6729,12.6729,12.664,12.6294,12.6101,12.6294,12.6524,12.6717,12.6717,12.6794,12.7063,12.7332,12.7217,12.7063,12.7371,12.7217,12.6871,12.7025,12.6986,12.714,12.6844,12.6614,12.6652,12.6678,12.6678,12.6909,12.7486,12.7525,12.7332,12.7255,12.7332,12.7986,12.864,12.8833,12.9179,12.941,12.9602,12.9833,13.0141,13.0141,13.0141,12.991,12.9717,12.9371,13.0819,13.0947,13.1194,13.1334,13.1375,13.1389,13.1416,13.147,13.1483,13.1483,13.1483,13.1445,13.1523,13.1512,13.1064,13.0911,13.0987,13.1025,13.0987,13.1064,13.141,13.0871,12.9756,12.8871,12.8282,12.782,12.6948,12.6101,12.5409,12.487,12.4486,12.4101,12.4101,12.4101,12.4062,12.4545,12.4761,12.4811,12.5077,12.5447,12.5882,12.6344,12.681,12.6979,12.7302,12.7174,12.678,12.669,12.6178,12.5409,12.5216,12.5216,12.5216,12.5216,12.5178,12.5216,12.5678,12.5947,12.6024,12.6447,12.669,12.6678,12.6717,12.6717,12.6717,12.6717,12.6717,12.6717,12.6717,12.6717,12.6767,12.6986,12.7371,12.7755,12.7755,12.7602,12.7255,12.7563,12.7717,12.7755,12.7755,12.7871,12.8409,12.7986,12.8025,12.8217,12.814,12.7948,12.7871,12.7717,12.764,12.7525,12.7563,12.7717,12.7794,12.7794,12.7832,12.8332,12.8563,12.8294,12.8217,12.8217,12.8756,12.941,12.9602,12.9833,13.0141,13.0448,13.0756,13.0987,13.0987,13.091,13.0718,13.0487,13.0141,13.0962,13.1161,13.1278,13.1416,13.1523,13.1537,13.1589,13.1654,13.1654,13.1654,13.1654,13.1679,13.1654,13.1679,13.1538,13.1641,13.1641,13.1564,13.1628,13.164,13.1679,13.1306,13.0689,12.9768,12.9025,12.8409,12.8089,12.7063,12.614,12.5717,12.5152,12.4829,12.456,12.4483,12.4927,12.5497,12.584,12.6132,12.6855,12.7506,12.7969,12.82,12.8436,12.8791,12.8471,12.7974,12.7402,12.7059,12.6866,12.6854,12.678,12.6537,12.6587,12.6676,12.665,12.6558,12.6532,12.6647,12.6662,12.6686,12.6739,12.6763,12.6751,12.6727,12.6751,12.6763,12.6775,12.6775,12.6804,12.7109,12.734,12.7727,12.8292,12.8831,12.9127,12.8909,12.8525,12.8794,12.9179,12.9179,12.9179,12.9217,12.9294,12.9256,12.9217,12.9179,12.8986,12.864,12.8602,12.8563,12.8602,12.8717,12.8794,12.8986,12.9025,12.9025,12.9063,12.9294,12.964,12.9602,12.9563,12.9602,12.9871,13.0217,13.0487,13.0794,13.1179,13.1448,13.1564,13.1564,13.1372,13.1487,13.1564,13.1295,13.0987,13.1292,13.143,13.1576,13.1615,13.1628,13.1641,13.1692,13.1756,13.1718,13.1756,13.1679,13.1679,13.1679,13.1679,13.1679,13.1679,13.1679,13.1692,13.173,13.1867,13.1867,13.1862,13.1489,13.0687,13.0153,12.9576,12.8486,12.7717,12.7268,12.6638,12.6354,12.6167,12.6063,12.6263,12.6459,12.7137,12.7749,12.7864,12.8554,12.9,12.9232,12.9309,12.9413,12.96,12.9357,12.9203,12.8872,12.8332,12.7985,12.7747,12.7272,12.6943,12.681,12.6795,12.683,12.6887,12.6921,12.6921,12.6933,12.691,12.6933,12.691,12.6987,12.6944,12.6933,12.7037,12.6998,12.7048,12.7511,12.8182,12.876,12.8999,12.9272,12.9556,12.9958,13.0165,12.991,12.9525,12.9371,12.9333,12.9333,12.9448,13.0102,12.964,12.9679,12.9987,12.9794,12.9294,12.9294,12.941,12.9563,12.9756,12.9717,12.9833,12.9794,12.9833,12.9987,13.0102,13.0448,13.0641,13.0602,13.0564,13.0641,13.0948,13.1372,13.1641,13.1679,13.1679,13.1641,13.1679,13.1679,13.1679,13.1679,13.1679,13.1679,13.1605,13.2138,13.2244,13.2526,13.2872,13.291,13.291,13.2833,13.2449,13.2307,13.2218,13.191,13.1679,13.1679,13.1679,13.1679,13.1705,13.1793,13.1804,13.1915,13.1963,13.2045,13.203,13.1524,13.1056,13.0517,12.9322,12.8552,12.7974,12.7358,12.6826,12.6949,12.7307,12.7445,12.7716,12.8493,12.8862,12.8961,12.9428,12.9913,13.0261,13.0338,13.0306,13.0252,13.018,13.002,12.9518,12.9171,12.8939,12.8763,12.8325,12.7624,12.7014,12.6883,12.6955,12.6961,12.6972,12.6972,12.701,12.6972,12.6961,12.706,12.7368,12.755,12.7743,12.7936,12.8206,12.8283,12.8708,12.9248,13.002,13.009,13.016,13.0649,13.0988,13.121,13.1159,13.0728,13.0371,13.0371,13.0487,13.0641,13.0679,13.0294,13.0448,13.0871,13.091,13.0525,13.0602,13.0679,13.0641,13.0679,13.0564,13.0564,13.0564,13.0641,13.0794,13.0948,13.1179,13.1295,13.1295,13.1256,13.1218,13.1448,13.1641,13.1641,13.1679,13.1679,13.1692,13.1692,13.1692,13.1692,13.1692,13.1692,13.1692,13.2107,13.301,13.3179,13.3641,13.4257,13.4257,13.4218,13.4141,13.3526,13.318,13.3038,13.2256,13.2038,13.191,13.1718,13.173,13.1781,13.1816,13.1877,13.2022,13.2092,13.216,13.2171,13.2016,13.1774,13.0963,13.0124,12.938,12.8724,12.7898,12.7732,12.7611,12.8124,12.8493,12.8746,12.939,12.9906,12.9966,13.0366,13.0754,13.1267,13.1345,13.1304,13.1231,13.1167,13.0891,13.0389,13.007,12.9827,12.9827,12.9761,12.8884,12.7918,12.7268,12.7279,12.729,12.7431,12.7616,12.7869,12.7711,12.7701,12.7504,12.8143,12.8508,12.8751,12.9092,12.9372,12.9583,12.9825,13.0261,13.0919,13.1073,13.1399,13.1817,13.2076,13.2103,13.2069,13.1877,13.1638,13.1576,13.1357,13.1396,13.1435,13.1295,13.1525,13.1692,13.1692,13.1692,13.1692,13.1653,13.1423,13.1295,13.1141,13.1102,13.1064,13.1064,13.1295,13.1384,13.1641,13.1653,13.1692,13.1602,13.1487,13.1564,13.1679,13.1692,13.1705,13.173,13.173,13.1743,13.1793,13.1816,13.1792,13.1717,13.1717,13.3138,13.4064,13.4051,13.418,13.4295,13.4334,13.4411,13.4295,13.4218,13.4103,13.3949,13.318,13.2769,13.2577,13.1949,13.1781,13.1855,13.1889,13.2034,13.2171,13.2237,13.2319,13.2383,13.2394,13.2299,13.1997,13.1194,13.0478,13.0119,12.9595,12.8939,12.9186,12.939,12.9509,12.9842,13.0484,13.0958,13.1035,13.1501,13.1947,13.2101,13.2169,13.2169,13.2128,13.2059,13.1971,13.1778,13.1286,13.0968,13.0931,13.0322,12.9905,12.944,12.8803,12.8512,12.8435,12.8502,12.8714,12.9188,12.9496,12.9592,12.9726,12.9758,12.976,12.9809,12.9992,13.0264,13.0331,13.0825,13.1444,13.218,13.2051,13.2084,13.2281,13.2215,13.216,13.2137,13.2092,13.2022,13.1913,13.1915,13.1867,13.1792,13.1779,13.1779,13.1792,13.1792,13.1755,13.173,13.1717,13.1628,13.1615,13.1602,13.1564,13.1564,13.1525,13.1564,13.1576,13.1692,13.1717,13.1705,13.1692,13.1692,13.1755,13.1742,13.1717,13.1781,13.1818,13.1867,13.1879,13.1939,13.1999,13.1939,13.1841,13.1792,13.3626,13.4872,13.4911,13.518,13.5526,13.5603,13.5603,13.5526,13.5103,13.4911,13.468,13.4064,13.3372,13.3,13.2615,13.2216,13.2031,13.2069,13.2171,13.2319,13.2383,13.2435,13.2525,13.2525,13.2487,13.235,13.1909,13.1392,13.0939,13.0128,12.9868,12.9909,13.0201,13.0502,13.0785,13.1454,13.1831,13.2035,13.2344,13.2605,13.2605,13.2605,13.2605,13.2605,13.2605,13.2615,13.2537,13.2305,13.2014,13.1935,13.1634,13.1244,13.0826,13.0448,12.9929,12.9646,12.9565,12.9698,13.0125,13.0203,13.0116,13.0233,13.0599,13.0805,13.0925,13.1157,13.1339,13.1515,13.1661,13.2231,13.2564,13.2556,13.2509,13.2509,13.244,13.2409,13.2399,13.2397,13.2263,13.2154,13.2064,13.2007,13.1975,13.1913,13.1901,13.1889,13.1915,13.1879,13.1792,13.1779,13.1818,13.1742,13.1742,13.1742,13.1742,13.1755,13.1755,13.1742,13.1793,13.1779,13.1804,13.1816,13.1865,13.1925,13.1915,13.1816,13.1867,13.1927,13.1975,13.201,13.2057,13.208,13.2045,13.1999,13.1963,13.4306,13.5757,13.5757,13.618,13.6757,13.6796,13.6757,13.6642,13.6065,13.5757,13.5642,13.4911,13.4193,13.3654,13.3358,13.3035,13.25,13.2783,13.2937,13.3068,13.3093,13.3028,13.2758,13.2719,13.2719,13.2487,13.2399,13.2149,13.1577,13.0909,13.0543,13.0736,13.1259,13.1472,13.1696,13.216,13.2537,13.2662,13.2669,13.2675,13.2675,13.2675,13.2675,13.2675,13.2675,13.2705,13.2648,13.261,13.2636,13.2654,13.2555,13.2409,13.193,13.1834,13.1523,13.0891,13.0611,13.0564,13.0805,13.0891,13.1063,13.1102,13.1465,13.1681,13.1857,13.2176,13.2603,13.2758,13.2736,13.2689,13.2749,13.274,13.2723,13.2657,13.2687,13.2696,13.2651,13.2604,13.2528,13.2419,13.2285,13.2177,13.2087,13.2045,13.2022,13.2022,13.201,13.1999,13.1963,13.1951,13.1939,13.1841,13.1816,13.1816,13.1828,13.1841,13.1853,13.1865,13.1889,13.1913,13.1987,13.201,13.2057,13.208,13.208,13.2034,13.2034,13.2045,13.2103,13.2148,13.216,13.216,13.2148,13.2126,13.2103,13.5782,13.6642,13.6642,13.6719,13.6796,13.6796,13.6796,13.6796,13.6642,13.6642,13.6514,13.5808,13.5373,13.5101,13.4555,13.4402,13.4339,13.4279,13.4277,13.4341,13.44,13.4122,13.3657,13.357,13.3165,13.2827,13.2633,13.2448,13.2187,13.2033,13.2071,13.2081,13.2073,13.2393,13.2286,13.2535,13.2687,13.2696,13.2714,13.2723,13.2693,13.2732,13.2732,13.2693,13.2693,13.2702,13.2749,13.2749,13.2767,13.2873,13.2882,13.2876,13.2815,13.2839,13.2807,13.2489,13.2093,13.1829,13.231,13.2341,13.2333,13.2295,13.2613,13.2753,13.2673,13.2688,13.2906,13.2986,13.294,13.29,13.289,13.2882,13.284,13.2767,13.2758,13.2749,13.2732,13.2732,13.2678,13.2651,13.2528,13.2348,13.2209,13.2171,13.2103,13.2103,13.2114,13.2114,13.2092,13.208,13.2045,13.1987,13.1963,13.1925,13.1913,13.1975,13.1948,13.1972,13.2057,13.208,13.2114,13.2137,13.2126,13.2148,13.2171,13.2193,13.2171,13.2193,13.2276,13.2308,13.2291,13.2319,13.2308,13.2287,13.2226,13.6449,13.6796,13.6796,13.6796,13.6796,13.6796,13.6796,13.6796,13.6796,13.6848,13.6874,13.6527,13.6179,13.5774,13.5054,13.4747,13.4803,13.4934,13.4949,13.5068,13.504,13.4877,13.4579,13.4435,13.4086,13.3486,13.3245,13.2983,13.278,13.2566,13.2507,13.2538,13.2586,13.2556,13.2651,13.2788,13.2823,13.2848,13.2835,13.2868,13.2868,13.2906,13.2906,13.2859,13.2859,13.2859,13.2859,13.2868,13.2884,13.2963,13.2963,13.2978,13.3002,13.2971,13.2971,13.2932,13.2667,13.2621,13.2893,13.2978,13.3017,13.3017,13.3009,13.2955,13.2971,13.2963,13.2971,13.3009,13.3009,13.2994,13.2971,13.2963,13.2908,13.2876,13.2843,13.2859,13.2843,13.2801,13.2823,13.2775,13.2749,13.2614,13.246,13.247,13.243,13.2389,13.2368,13.2327,13.2242,13.2121,13.2126,13.208,13.2069,13.208,13.2069,13.2069,13.2053,13.2076,13.2193,13.2215,13.2226,13.2276,13.2281,13.2302,13.2345,13.2383,13.2351,13.2351,13.2394,13.2425,13.2456,13.2425,13.2394,13.2415,13.2394,13.6796,13.6796,13.6796,13.6796,13.6796,13.6796,13.6796,13.6796,13.6848,13.6912,13.7001,13.7037,13.6736,13.6328,13.5824,13.5658,13.5542,13.5578,13.561,13.562,13.5623,13.5635,13.5491,13.5365,13.5045,13.4232,13.4288,13.4016,13.3573,13.3283,13.3206,13.2682,13.269,13.2726,13.2758,13.2873,13.3,13.3397,13.367,13.3771,13.374,13.3468,13.3398,13.3281,13.3134,13.3017,13.3017,13.3009,13.3009,13.3009,13.3009,13.3009,13.3017,13.3017,13.3017,13.2978,13.2862,13.29,13.2978,13.3017,13.3017,13.3017,13.3017,13.3009,13.3009,13.3017,13.3017,13.3017,13.3017,13.3017,13.3009,13.3009,13.3002,13.2955,13.2994,13.3025,13.3032,13.2955,13.2955,13.2986,13.2971,13.2924,13.2812,13.2826,13.2775,13.2705,13.2642,13.2576,13.246,13.2306,13.2306,13.2306,13.2316,13.2316,13.2306,13.2274,13.2242,13.222,13.2295,13.2386,13.2428,13.2468,13.2518,13.2528,13.2547,13.2537,13.2468,13.2497,13.2487,13.2477,13.2477,13.2487,13.2515,13.2497,13.2487,13.6796,13.6796,13.6796,13.6796,13.6796,13.6796,13.6796,13.6835,13.6938,13.7001,13.7075,13.7243,13.7308,13.7209,13.7082,13.703,13.7195,13.7322,13.7139,13.717,13.7387,13.6866,13.6575,13.6322,13.6087,13.5341,13.5231,13.5184,13.5001,13.4691,13.3937,13.2985,13.3271,13.3012,13.3092,13.3413,13.3724,13.4198,13.4719,13.5107,13.4921,13.461,13.4221,13.4027,13.3522,13.3017,13.3017,13.3134,13.3172,13.3172,13.3056,13.3017,13.3017,13.3017,13.3017,13.3017,13.3017,13.3017,13.3017,13.3017,13.3017,13.3017,13.3017,13.2978,13.304,13.2986,13.3017,13.304,13.3023,13.3001,13.2993,13.3017,13.3016,13.3008,13.3023,13.306,13.3074,13.3081,13.3095,13.3156,13.3143,13.3081,13.306,13.3016,13.294,13.2821,13.2749,13.2678,13.266,13.2528,13.2556,13.2614,13.2594,13.2642,13.2651,13.2566,13.247,13.2451,13.2528,13.2586,13.2632,13.266,13.2662,13.2632,13.2653,13.2634,13.2615,13.2577,13.2577,13.2517,13.2497,13.2497,13.2497,13.2497,13.2497,13.6796,13.6796,13.6796,13.6796,13.6796,13.6796,13.6848,13.6925,13.6988,13.7112,13.7255,13.7375,13.7451,13.7462,13.7484,13.7477,13.7477,13.7477,13.7557,13.7609,13.7591,13.7563,13.7367,13.7236,13.6991,13.6349,13.6219,13.587,13.537,13.559,13.5282,13.4631,13.4459,13.4522,13.4555,13.447,13.4757,13.4998,13.5426,13.5612,13.5534,13.5387,13.5115,13.5037,13.4921,13.461,13.4571,13.4066,13.3872,13.3677,13.3328,13.3211,13.3172,13.3172,13.3172,13.3172,13.3172,13.3172,13.3095,13.3056,13.3017,13.3017,13.3017,13.3071,13.3232,13.313,13.312,13.3102,13.3148,13.3205,13.306,13.3088,13.3116,13.3081,13.3088,13.3116,13.3143,13.3156,13.3183,13.3221,13.3208,13.317,13.3163,13.3163,13.3081,13.2954,13.2884,13.2792,13.2775,13.2758,13.2736,13.2767,13.2767,13.2758,13.2758,13.274,13.2684,13.2732,13.2732,13.2749,13.2758,13.2675,13.2687,13.2675,13.2723,13.2696,13.2669,13.2632,13.2605,13.2557,13.2507,13.2497,13.2497,13.2497,13.2497,13.6796,13.6796,13.6796,13.6796,13.6796,13.6796,13.6874,13.7001,13.7051,13.7208,13.7397,13.7484,13.7477,13.7477,13.7477,13.7477,13.7477,13.7487,13.7598,13.7659,13.7728,13.7832,13.794,13.7883,13.7628,13.7218,13.7134,13.6823,13.6433,13.6326,13.6334,13.6318,13.6225,13.6085,13.5519,13.5884,13.5962,13.6001,13.6241,13.6319,13.6389,13.6125,13.6008,13.5884,13.5651,13.5418,13.5262,13.4921,13.4726,13.4532,13.426,13.3911,13.3794,13.3786,13.3786,13.3755,13.3755,13.3747,13.3716,13.3483,13.3561,13.3949,13.3987,13.3978,13.3859,13.3855,13.4122,13.3649,13.3617,13.3494,13.3285,13.3156,13.317,13.3136,13.315,13.3176,13.3208,13.3233,13.3251,13.3275,13.3263,13.3275,13.3263,13.3257,13.3195,13.3091,13.3067,13.2978,13.2924,13.2869,13.2876,13.2821,13.2835,13.2818,13.2801,13.2835,13.2859,13.2851,13.2851,13.2835,13.2826,13.2792,13.2792,13.2835,13.2835,13.2792,13.2767,13.2779,13.2671,13.2577,13.2547,13.2517,13.2497,13.2497,13.2497,13.6796,13.6796,13.6796,13.6796,13.6796,13.6796,13.6887,13.7038,13.716,13.7335,13.7484,13.7477,13.7477,13.7477,13.7477,13.7477,13.7487,13.7498,13.7598,13.7699,13.7804,13.7895,13.8099,13.8166,13.8385,13.8137,13.8184,13.8215,13.7896,13.7826,13.7873,13.7756,13.7469,13.708,13.5845,13.6475,13.6863,13.698,13.7562,13.7718,13.7601,13.7135,13.6902,13.6746,13.6358,13.6117,13.6047,13.5775,13.5581,13.5503,13.5262,13.5068,13.5107,13.5146,13.5185,13.5224,13.5262,13.5387,13.5464,13.4726,13.4781,13.506,13.4989,13.5156,13.5456,13.5497,13.5199,13.4575,13.4407,13.3999,13.3591,13.3208,13.3214,13.3208,13.3221,13.3245,13.3281,13.3298,13.3315,13.3332,13.3359,13.338,13.3364,13.3343,13.3293,13.3245,13.3208,13.315,13.3074,13.3038,13.3008,13.2993,13.2932,13.2971,13.2971,13.2971,13.3017,13.2971,13.2971,13.2971,13.2971,13.2971,13.2971,13.3009,13.2963,13.2955,13.29,13.289,13.2779,13.2701,13.2548,13.2547,13.2517,13.2507,13.2527,13.6796,13.6796,13.6796,13.6796,13.6796,13.6796,13.6925,13.7148,13.7308,13.7451,13.7505,13.7477,13.7477,13.7477,13.7603,13.7603,13.7614,13.7619,13.7689,13.7824,13.7994,13.8401,13.871,13.9014,13.9233,13.966,13.9777,13.9349,13.8914,13.8883,13.8495,13.8262,13.8067,13.7834,13.7446,13.764,13.7718,13.7718,13.7951,13.8067,13.8067,13.7795,13.764,13.764,13.729,13.7096,13.7057,13.6708,13.6475,13.6358,13.6117,13.5806,13.5767,13.5767,13.569,13.5651,13.5659,13.5954,13.6264,13.6169,13.5936,13.5912,13.5856,13.5957,13.5867,13.586,13.5662,13.5458,13.5107,13.4622,13.4216,13.3588,13.3438,13.3287,13.3298,13.3332,13.3359,13.3359,13.3364,13.338,13.3405,13.3487,13.3496,13.3477,13.3439,13.3359,13.3327,13.3245,13.317,13.3156,13.3136,13.3136,13.313,13.313,13.3123,13.3095,13.3088,13.3088,13.3109,13.313,13.313,13.3102,13.3109,13.3095,13.3102,13.3109,13.2758,13.2567,13.2782,13.2797,13.2407,13.245,13.2615,13.2596,13.2557,13.6796,13.6809,13.6848,13.6874,13.6861,13.6822,13.6963,13.7219,13.7408,13.7477,13.7554,13.7786,13.798,13.8057,13.825,13.8409,13.8429,13.854,13.8667,13.8731,13.8832,13.9337,13.9705,13.9854,14.0049,14.0631,14.067,14.032,13.9815,13.9536,13.8922,13.8262,13.8106,13.8028,13.799,13.799,13.8028,13.8028,13.8106,13.8106,13.8106,13.8028,13.8067,13.8028,13.799,13.799,13.7951,13.7679,13.729,13.7096,13.6824,13.6436,13.6436,13.6436,13.6436,13.6475,13.6591,13.6901,13.7309,13.7447,13.7149,13.6918,13.6678,13.6717,13.6791,13.701,13.6732,13.6409,13.5845,13.5473,13.5068,13.4364,13.3886,13.3777,13.3531,13.36,13.3454,13.3454,13.3477,13.3487,13.3505,13.3543,13.3602,13.3598,13.3574,13.35,13.3468,13.3354,13.3275,13.3257,13.3245,13.3233,13.3221,13.3195,13.3183,13.317,13.3176,13.3195,13.3208,13.3214,13.3189,13.3156,13.3183,13.3124,13.2826,13.2527,13.2221,13.212,13.2046,13.1945,13.1742,13.1986,13.2547,13.2562,13.2391,13.6809,13.6822,13.6951,13.7013,13.6988,13.6912,13.7001,13.7231,13.7419,13.7515,13.7593,13.8444,13.8715,13.8985,13.9654,13.991,13.9925,13.9984,14.0032,14.0181,14.0049,14.0457,14.0646,14.0748,14.0981,14.0903,14.0981,14.1214,14.0709,13.9769,13.8961,13.8262,13.8106,13.8106,13.8106,13.8106,13.8106,13.8106,13.8106,13.8106,13.8106,13.8106,13.8106,13.8106,13.8106,13.8106,13.8067,13.7951,13.7951,13.7912,13.7912,13.7951,13.799,13.8067,13.8067,13.806,13.7996,13.8094,13.817,13.8189,13.824,13.7971,13.8184,13.8379,13.8279,13.805,13.7775,13.7429,13.6971,13.6533,13.6094,13.5398,13.4701,13.4394,13.3945,13.3808,13.3544,13.3522,13.3582,13.3598,13.3566,13.3628,13.3635,13.3631,13.3613,13.3581,13.3555,13.3479,13.342,13.3364,13.3343,13.3304,13.3281,13.3245,13.3239,13.3263,13.3257,13.3275,13.3257,13.3257,13.3233,13.3233,13.3257,13.3024,13.2403,13.1989,13.1626,13.1244,13.0957,13.0876,13.1151,13.1339,13.1842,13.203,13.1977,13.6951,13.6963,13.7087,13.7148,13.716,13.7208,13.7278,13.7358,13.7462,13.7786,13.8444,13.8676,13.9179,13.9731,14.0037,14.0204,14.0295,14.0342,14.0387,14.0583,14.0868,14.1142,14.1439,14.1641,14.1952,14.2302,14.2418,14.2069,14.1369,14.0282,13.9,13.8223,13.8106,13.8106,13.8106,13.8106,13.8106,13.8106,13.8106,13.8106,13.8106,13.8106,13.8106,13.8106,13.8106,13.8106,13.8106,13.8106,13.8106,13.8106,13.8106,13.8106,13.8106,13.8114,13.8083,13.8152,13.8196,13.8238,13.8429,13.8456,13.8502,13.8554,13.8628,13.8628,13.8594,13.856,13.8474,13.811,13.7759,13.7287,13.6897,13.6273,13.5615,13.5117,13.4627,13.4175,13.391,13.3656,13.3677,13.3616,13.3626,13.3641,13.3644,13.366,13.3668,13.3647,13.3626,13.3606,13.3527,13.3479,13.3434,13.34,13.3385,13.3359,13.3364,13.338,13.3359,13.3343,13.3338,13.3338,13.3343,13.3343,13.3338,13.3009,13.2358,13.1685,13.1011,13.0736,13.068,13.0673,13.0874,13.0946,13.1059,13.1308,13.1648,13.673,13.7061,13.7219,13.7301,13.7358,13.7425,13.7458,13.743,13.7494,13.798,13.8792,13.9179,13.9819,14.0656,14.1105,14.137,14.1467,14.1628,14.1709,14.1808,14.1609,14.2052,14.2418,14.2535,14.2768,14.3195,14.3265,14.2884,14.2108,14.0787,13.9427,13.8184,13.8106,13.8106,13.8106,13.8106,13.8106,13.8106,13.8106,13.8106,13.8106,13.8106,13.8106,13.8106,13.8106,13.8106,13.8106,13.8106,13.8106,13.8106,13.8106,13.8106,13.8122,13.8137,13.822,13.8291,13.8332,13.8402,13.8496,13.8539,13.8584,13.863,13.8716,13.8692,13.8684,13.8641,13.8634,13.8508,13.82,13.7853,13.7541,13.7155,13.6531,13.5946,13.5298,13.4649,13.4237,13.386,13.3722,13.366,13.3637,13.3653,13.3663,13.3672,13.3713,13.3663,13.3655,13.3648,13.361,13.3553,13.3555,13.3522,13.3518,13.3513,13.3513,13.3505,13.3487,13.3473,13.3487,13.3487,13.3487,13.3399,13.3312,13.2898,13.2395,13.1678,13.1006,13.0834,13.0748,13.0754,13.0748,13.0796,13.0854,13.0851,13.1204,13.6264,13.7104,13.7346,13.7419,13.7466,13.7477,13.7544,13.7593,13.767,13.8134,13.8985,13.9836,14.0713,14.156,14.2153,14.2581,14.2598,14.2679,14.2731,14.3226,14.2915,14.304,14.3079,14.3304,14.3195,14.3273,14.3265,14.3079,14.269,14.1525,14.0049,13.8378,13.8495,13.8572,13.8456,13.8417,13.8339,13.8106,13.8106,13.8106,13.8106,13.8106,13.8106,13.8106,13.8106,13.8106,13.8106,13.8106,13.8106,13.8106,13.8106,13.8106,13.8153,13.8206,13.8312,13.8416,13.8447,13.8479,13.8554,13.8599,13.8635,13.8716,13.876,13.8751,13.8754,13.8744,13.8735,13.8744,13.8442,13.8406,13.8171,13.7898,13.743,13.6847,13.6231,13.5422,13.4649,13.419,13.3731,13.3665,13.3676,13.3683,13.368,13.3686,13.3688,13.3688,13.3685,13.3683,13.3669,13.3621,13.3638,13.3648,13.3596,13.3553,13.3578,13.357,13.3598,13.3594,13.3602,13.359,13.353,13.3418,13.3235,13.2777,13.2269,13.1748,13.1179,13.0993,13.086,13.0855,13.08,13.0744,13.0748,13.082,13.1069,13.6154,13.6469,13.7159,13.7494,13.7477,13.7477,13.7913,13.8482,13.8482,13.8996,13.9836,14.0698,14.1564,14.2375,14.2688,14.2997,14.3088,14.3197,14.3287,14.3265,14.3304,14.3304,14.3304,14.3304,14.3304,14.3304,14.3226,14.3001,14.2379,14.1719,14.1214,14.0126,13.9893,13.9621,13.9116,13.9077,13.8883,13.8495,13.8417,13.8417,13.8378,13.8184,13.8106,13.8106,13.8106,13.8106,13.8106,13.8106,13.8106,13.8106,13.8106,13.8137,13.8198,13.8316,13.839,13.846,13.849,13.8557,13.8589,13.8639,13.8677,13.8728,13.8805,13.8795,13.8804,13.8797,13.8761,13.8811,13.8815,13.8815,13.8774,13.8501,13.8266,13.7685,13.7101,13.6131,13.5122,13.4464,13.3844,13.3694,13.3699,13.3699,13.3696,13.3696,13.3696,13.3695,13.3692,13.369,13.3692,13.3676,13.3674,13.3696,13.3624,13.3613,13.3602,13.3632,13.3626,13.3645,13.3603,13.3628,13.3617,13.35,13.3351,13.2747,13.2178,13.1923,13.1642,13.1152,13.1022,13.123,13.1333,13.1451,13.1315,13.1319,13.1468,13.5823,13.6316,13.7232,13.763,13.763,13.763,13.8124,13.8898,13.9334,13.9982,14.0747,14.1307,14.1986,14.2794,14.293,14.3061,14.3189,14.324,14.3295,14.3304,14.3304,14.3304,14.3304,14.3304,14.3304,14.3304,14.3234,14.2884,14.2185,14.1913,14.1525,14.0903,14.0748,14.0554,14.001,13.9932,13.9738,13.931,13.9155,13.9155,13.9,13.865,13.8184,13.8106,13.8106,13.8145,13.8106,13.8114,13.8137,13.8168,13.8206,13.8263,13.8357,13.8403,13.8454,13.8501,13.8574,13.8607,13.8612,13.866,13.8739,13.8751,13.8793,13.8813,13.8834,13.883,13.8834,13.8879,13.8875,13.8873,13.8873,13.8678,13.8639,13.8289,13.7548,13.6654,13.5648,13.4757,13.4174,13.3746,13.3747,13.3747,13.3746,13.3747,13.375,13.375,13.375,13.375,13.3711,13.3711,13.3711,13.3738,13.3679,13.3665,13.3661,13.3653,13.3644,13.3666,13.3647,13.3655,13.3658,13.3593,13.3382,13.3024,13.2773,13.2782,13.2392,13.1953,13.2092,13.2486,13.2416,13.2303,13.2092,13.1989,13.2239,13.5328,13.6449,13.7407,13.7793,13.7793,13.7793,13.8288,13.9141,14.0003,14.0846,14.1574,14.1699,14.2233,14.2697,14.3013,14.3189,14.3287,14.3295,14.3304,14.3304,14.3304,14.3304,14.3304,14.3304,14.3304,14.3304,14.3265,14.2884,14.2341,14.2263,14.1991,14.1175,14.102,14.102,14.0903,14.0826,14.0709,14.0398,14.032,14.0515,14.001,13.931,13.8844,13.8533,13.8417,13.8417,13.8456,13.8472,13.8503,13.8344,13.8408,13.8397,13.8441,13.8472,13.8546,13.8585,13.859,13.8609,13.8635,13.8656,13.8711,13.8763,13.88,13.8825,13.8879,13.889,13.8892,13.8893,13.889,13.8891,13.8891,13.8867,13.8867,13.8711,13.789,13.7226,13.6211,13.5195,13.4531,13.4023,13.3906,13.3906,13.3789,13.3789,13.3789,13.3789,13.3789,13.3789,13.3789,13.3789,13.375,13.375,13.3742,13.3736,13.3694,13.3685,13.3674,13.3672,13.3661,13.367,13.3672,13.3653,13.3634,13.358,13.3446,13.3281,13.3313,13.3094,13.3346,13.3372,13.3199,13.2947,13.3019,13.2986,13.3238,13.4898,13.6498,13.7407,13.7793,13.7802,13.7802,13.8297,13.915,14.0012,14.0895,14.1698,14.2491,14.2945,14.307,14.3079,14.3189,14.3295,14.3304,14.3304,14.3304,14.3304,14.3304,14.3304,14.3304,14.3304,14.3304,14.3304,14.3195,14.2807,14.2884,14.2962,14.2651,14.269,14.2418,14.1797,14.168,14.1525,14.1253,14.102,14.102,14.0864,14.0437,14.032,14.0204,14.0204,14.0204,14.0204,14.0204,13.9832,13.9331,13.8896,13.8765,13.8723,13.8752,13.8741,13.8713,13.8723,13.8604,13.8651,13.8669,13.868,13.8777,13.8774,13.8804,13.8869,13.8891,13.8894,13.8899,13.89,13.8903,13.8906,13.8906,13.8867,13.8672,13.8125,13.7695,13.6992,13.5937,13.5078,13.457,13.4218,13.4062,13.3789,13.3789,13.3789,13.3789,13.3789,13.3789,13.3789,13.3789,13.3789,13.3789,13.3789,13.3747,13.3704,13.3736,13.3692,13.3693,13.3693,13.3692,13.369,13.3688,13.3677,13.3659,13.3665,13.3551,13.3665,13.3646,13.3657,13.3577,13.3629,13.3599,13.3669,13.3659,13.3683]}]]